     2              OBSERVATION DATA    GPS                 RINEX VERSION / TYPE
teqc 2000Jul20 Karen Wendt 20031231 22:48:55UTC             PGM / RUN BY / DATE
                                                            COMMENT
L2: 1 -> 1; 150 -> 5; 250 -> 9                              COMMENT
L2: 1 -> 1; 150 -> 5; 250 -> 9                              COMMENT
L2: 1 -> 1; 150 -> 5; 250 -> 9                              COMMENT
L2: 1 -> 1; 150 -> 5; 250 -> 9                              COMMENT
L2: 1 -> 1; 150 -> 5; 250 -> 9                              COMMENT
L2: 1 -> 1; 150 -> 5; 250 -> 9                              COMMENT
L2: 1 -> 1; 150 -> 5; 250 -> 9                              COMMENT
L2: 1 -> 1; 150 -> 5; 250 -> 9                              COMMENT
L2: 1 -> 1; 150 -> 5; 250 -> 9                              COMMENT
L2: 1 -> 1; 150 -> 5; 250 -> 9                              COMMENT
L2: 1 -> 1; 150 -> 5; 250 -> 9                              COMMENT
L2: 1 -> 1; 150 -> 5; 250 -> 9                              COMMENT
L2: 1 -> 1; 150 -> 5; 250 -> 9                              COMMENT
L2: 1 -> 1; 150 -> 5; 250 -> 9                              COMMENT
Original Marker Name: 1009 1009_unstamped_USNavy_12thNavalDiCOMMENT
Campaign Name: USGS San Simeon 2003-2004                    COMMENT
4-Character Station Name: 1009                              COMMENT
6-Character Antenna Code: DMRCHT                            COMMENT
Vertical Measurement Point: BCR                             COMMENT
Vertical Offset to Rinex Ref. Point: 0.0348                 COMMENT
Radial Measurement Point: ECF                               COMMENT
Radial Offset to Rinex Ref. Point: 0.1897                   COMMENT
Antenna Height from Field Measurement: 1.3150 m             COMMENT
Additional Antenna Identification Info.:                    COMMENT
Turborogue and Ashtech Choke Ring                           COMMENT
Original XYZ: -2693923.1205 -4433487.6929 3698018.2331      COMMENT
New XYZ position is based on association with SCEC monument COMMENT
E1F0L8A0+0011. Position of that monument is believed to be  COMMENT
valid to within 1 m horizontally; vertical accuracy         COMMENT
should be no worse than 3-times this value.                 COMMENT
                                                            COMMENT
Revised Rinex header created by UCSD GPS archive for        COMMENT
GSAC on 20-Apr-2005 (2005:110) 16:29:11 GMT                 COMMENT
For assistance contact dagnew@ucsd.edu                      COMMENT
or anderson@python.ucsd.edu                                 COMMENT
                                                            COMMENT
1009 1009_UNSTAMPED_USNAVY_12THNAVALDIST.                   MARKER NAME
GDH US GEOLOGICAL SURVEY                                    OBSERVER / AGENCY
LP020000801 ASHTECH Z-XII3 CD00                             REC # / TYPE / VERS
CR620022602 DORNE-MARGOL. TYPE T                            ANT # / TYPE
 -2693942.0000 -4433464.0000  3698003.0000                  APPROX POSITION XYZ
        1.2664        0.0000        0.0000                  ANTENNA: DELTA H/E/N
     1     1     0                                          WAVELENGTH FACT L1/2
     5    C1    L1    L2    P1    P2                        # / TYPES OF OBSERV
    30                                                      INTERVAL
  2003    12    29     0     0   30.000000                  TIME OF FIRST OBS
  2003    12    29    23    59   30.000000                  TIME OF LAST OBS
                                                            END OF HEADER
 03 12 29  0  0 30.0000000  0  8G30G 9G17G 4G24G 5G10G 6
  20654909.258   -22975065.50849 -17625004.84247  20654909.534    20654914.371
  24995373.558    -2227990.55849  -1712182.35345  24995373.323    24995382.516
  20563373.727   -26199834.06249 -20386975.17948  20563373.213    20563379.134
  24477501.907    -4030340.45149  -2858743.67445  24477502.088    24477509.497
  21342739.091   -23135391.87049 -18001293.73147  21342738.919    21342745.060
  20348156.553   -26033002.49449 -19567930.62848  20348156.035    20348161.522
  21687745.705   -19960388.15249 -15539125.57347  21687744.937    21687751.616
  22904733.109   -14792365.53549 -11078339.49046  22904733.024    22904739.638
 03 12 29  0  1  0.0000000  0  8G30G 9G17G 4G24G 5G10G 6
  20645448.564   -23024781.60249 -17663744.62947  20645448.833    20645453.694
  25013921.682    -2130518.42849  -1636230.12945  25013921.662    25013930.978
  20561464.401   -26209867.50349 -20394793.42748  20561463.875    20561469.833
  24497035.364    -3927692.04149  -2778757.88845  24497035.465    24497042.841
  21354768.725   -23072175.99249 -17952034.60947  21354768.551    21354774.676
  20353468.589   -26005087.42449 -19546178.62648  20353468.087    20353473.598
  21675839.721   -20022954.32549 -15587878.39947  21675838.959    21675845.663
  22892205.531   -14858197.96649 -11129637.43146  22892205.426    22892212.078
 03 12 29  0  1 30.0000000  0  8G30G 9G17G 4G24G 5G10G 6
  20636077.105   -23074028.83749 -17702119.07847  20636077.371    20636082.231
  25032446.431    -2033169.31849  -1560373.76245  25032446.469    25032456.104
  20559635.941   -26219475.91149 -20402280.48148  20559635.431    20559641.392
  24516569.662    -3825038.35449  -2698768.03045  24516569.813    24516577.257
  21366851.714   -23008679.52949 -17902556.85047  21366851.546    21366857.661
  20358880.738   -25976646.41149 -19524016.80248  20358880.221    20358885.760
  21664025.174   -20085040.30349 -15636257.04947  21664024.358    21664031.046
  22879689.197   -14923971.17849 -11180889.23046  22879689.061    22879695.798
 03 12 29  0  2  0.0000000  0  8G30G 9G17G 4G24G 5G10G 6
  20626795.318   -23122804.91549 -17740126.38547  20626795.597    20626800.458
  25050947.564    -1935945.43549  -1484614.98945  25050947.430    25050957.432
  20557888.344   -26228659.72449 -20409436.68048  20557887.830    20557893.788
  24536104.569    -3722381.20249  -2618775.51745  24536104.639    24536112.333
  21378987.666   -22944904.70749 -17852862.19247  21378987.485    21378993.607
  20364392.878   -25947679.96549 -19501445.54848  20364392.375    20364397.904
  21652302.550   -20146642.98849 -15684259.10447  21652301.753    21652308.374
  22867184.259   -14989684.64449 -11232094.47146  22867184.148    22867190.910
 03 12 29  0  2 30.0000000  0  8G30G 9G17G 4G24G 5G10G 6
  20617603.478   -23171108.10449 -17777765.21447  20617603.760    20617608.623
  25069424.390    -1838849.55549  -1408955.91945  25069424.218    25069434.134
  20556221.275   -26237420.11849 -20416262.94448  20556220.745    20556226.700
  24555639.821    -3619722.54049  -2538781.80845  24555639.974    24555647.727
  21391176.099   -22880854.21849 -17802952.73747  21391175.907    21391181.993
  20370004.855   -25918188.83849 -19478465.45348  20370004.339    20370009.862
  21640672.311   -20207760.10749 -15731882.79947  21640671.525    21640678.120
  22854690.654   -15055338.46949 -11283253.22546  22854690.567    22854697.320
 03 12 29  0  3  0.0000000  0  8G30G 9G17G 4G24G 5G10G 6
  20608502.052   -23218936.34849 -17815033.95347  20608502.331    20608507.193
  25087876.507    -1741884.28949  -1333398.66545  25087876.364    25087886.115
  20554634.651   -26245757.74549 -20422759.78548  20554634.123    20554640.076
  24575175.022    -3517064.18449  -2458788.30545  24575175.290    24575182.923
  21403416.593   -22816530.22549 -17752830.16047  21403416.383    21403422.460
  20375716.645   -25888173.30949 -19455076.73248  20375716.125    20375721.621
  21629134.918   -20268389.31249 -15779126.29947  21629134.132    21629140.731
  22842208.593   -15120932.36249 -11334365.28646  22842208.448    22842215.193
 03 12 29  0  3 30.0000000  0  7G30G17G 4G24G 5G10G 6
  20599491.535   -23266287.15849 -17851930.66747  20599491.789    20599496.592
  20553128.505   -26253672.63349 -20428927.21548  20553127.986    20553133.943
  24594710.049    -3414407.47049  -2378796.06445  24594710.216    24594717.879
  21415708.716   -22751934.45249 -17702495.80647  21415708.524    21415714.625
  20381528.207   -25857633.25149 -19431279.28948  20381527.682    20381533.156
  21617691.056   -20328527.20449 -15825986.96347  21617690.264    21617696.825
  22829738.045   -15186465.56049 -11385430.05846  22829737.911    22829744.588
 03 12 29  0  4  0.0000000  0  7G30G17G 4G24G 5G10G 6
  20590572.167   -23313158.56749 -17888453.81447  20590572.433    20590577.251
  20551702.624   -26261165.59449 -20434765.87648  20551702.093    20551708.048
  24614244.401    -3311754.27749  -2298806.56145  24614244.534    24614252.097
  21428052.141   -22687069.27149 -17651951.52447  21428051.958    21428058.097
  20387439.529   -25826569.03349 -19407073.40748  20387439.000    20387444.504
  21606341.089   -20388171.52349 -15872463.01947  21606340.302    21606346.830
  22817279.089   -15251937.77449 -11436447.30346  22817278.936    22817285.548
 03 12 29  0  4 30.0000000  0  7G30G17G 4G24G 5G10G 6
  20581744.290   -23359549.19549 -17924602.32747  20581744.585    20581749.393
  20550356.773   -26268237.98849 -20440276.82348  20550356.254    20550362.179
  24633777.521    -3209106.73149  -2218821.43145  24633777.671    24633785.313
  21440446.299   -22621937.37649 -17601199.42147  21440446.128    21440452.301
  20393450.346   -25794981.89449 -19382460.05648  20393449.809    20393455.318
  21595085.498   -20447319.83849 -15918552.58347  21595084.684    21595091.187
  22804831.626   -15317349.24049 -11487417.21746  22804831.484    22804838.046
 03 12 29  0  5  0.0000000  0  7G30G17G 4G24G 5G10G 6
  20573008.353   -23405456.84249 -17960374.49547  20573008.623    20573013.412
  20549090.930   -26274890.07849 -20445460.26248  20549090.411    20549096.310
  24653309.407    -3106466.24349  -2138841.86545  24653309.518    24653317.161
  21452890.854   -22556540.71149 -17550241.00047  21452890.683    21452896.901
  20399560.684   -25762871.85849 -19357439.25348  20399560.158    20399565.682
  21583924.804   -20505969.33049 -15964253.45047  21583924.020    21583930.551
  22792395.928   -15382699.37549 -11538339.33146  22792395.803    22792402.256
 03 12 29  0  5 30.0000000  0  7G30G17G 4G24G 5G10G 6
  20564364.643   -23450879.75549 -17995768.94347  20564364.887    20564369.664
  20547904.885   -26281122.89249 -20450316.99348  20547904.342    20547910.248
  24672839.480    -3003834.96749  -2058869.44245  24672839.668    24672847.165
  21465385.355   -22490881.52149 -17499078.01147  21465385.213    21465391.455
  20405770.401   -25730239.74649 -19332011.63848  20405769.859    20405775.388
  21572859.493   -20564117.77849 -16009563.89547  21572858.701    21572865.252
  22779971.882   -15447988.15349 -11589213.63046  22779971.764    22779978.109
 03 12 29  0  6  0.0000000  0  7G30G17G 4G24G 5G10G 6
  20555813.638   -23495815.45649 -18030783.75047  20555813.886    20555818.663
  20546798.495   -26286936.93949 -20454847.41548  20546797.958    20546803.844
  24692367.665    -2901214.43649  -1978905.38545  24692367.819    24692375.275
  21477929.491   -22424961.74649 -17447711.97247  21477929.349    21477935.597
  20412079.350   -25697085.90149 -19306177.47848  20412078.812    20412084.324
  21561890.057   -20621762.46749 -16054481.79647  21561889.235    21561895.833
  22767559.704   -15513214.72949 -11640039.46646  22767559.597    22767565.871
 03 12 29  0  6 30.0000000  0  7G30G17G 4G24G 5G10G 6
  20547355.633   -23540262.49449 -18065417.77747  20547355.872    20547360.618
  20545771.650   -26292333.08149 -20459052.19748  20545771.109    20545776.986
  24711893.422    -2798606.26549  -1898950.94245  24711893.542    24711900.863
  21490522.717   -22358784.06549 -17396144.96147  21490522.571    21490528.801
  20418487.503   -25663411.02649 -19279937.32148  20418486.966    20418492.446
  21551016.807   -20678901.23249 -16099005.46347  21551016.012    21551022.615
  22755159.369   -15578379.27349 -11690816.96546  22755159.211    22755165.442
 03 12 29  0  7  0.0000000  0  7G30G17G 4G24G 5G10G 6
  20538990.996   -23584218.51149 -18099669.18947  20538991.242    20538996.004
  20544824.263   -26297311.65849 -20462931.60648  20544823.715    20544829.606
  24731416.487    -2696011.95149  -1819007.27145  24731416.627    24731423.829
  21503164.664   -22292350.38349 -17344378.46847  21503164.499    21503170.749
  20424994.698   -25629215.39949 -19253291.37948  20424994.161    20424999.661
  21540240.570   -20735530.76149 -16143132.32147  21540239.772    21540246.321
  22742770.965   -15643480.86749 -11741545.42046  22742770.778    22742777.030
 03 12 29  0  7 30.0000000  0  7G30G17G 4G24G 5G10G 6
  20530720.226   -23627681.64549 -18133536.53947  20530720.458    20530725.193
  20543956.097   -26301873.78949 -20466486.50848  20543955.536    20543961.436
  24750936.555    -2593433.27649  -1739075.81145  24750936.673    24750943.688
  21515854.889   -22225662.64249 -17292414.00547  21515854.744    21515861.007
  20431600.971   -25594499.25549 -19226239.84148  20431600.427    20431605.913
  21529561.587   -20791648.86049 -16186860.66647  21529560.806    21529567.362
  22730394.412   -15708519.48649 -11792224.79946  22730394.246    22730400.554
 03 12 29  0  8  0.0000000  0  7G30G17G 4G24G 5G10G 6
  20522543.742   -23670649.34149 -18167017.83347  20522543.959    20522548.726
  20543167.191   -26306019.40249 -20469716.85248  20543166.642    20543172.543
  24770453.315    -2490871.23349  -1659157.30845  24770453.413    24770460.513
  21528593.099   -22158722.87649 -17240253.15947  21528592.955    21528599.236
  20438306.249   -25559262.78649 -19198782.85648  20438305.705    20438311.210
  21518980.522   -20847252.53949 -16230188.16847  21518979.730    21518986.290
  22718030.089   -15773494.18949 -11842854.38446  22718029.905    22718036.222
 03 12 29  0  8 30.0000000  0  7G30G17G 4G24G 5G10G 6
  20514461.715   -23713120.26149 -18200112.02847  20514461.953    20514466.747
  20542457.331   -26309749.67049 -20472623.54548  20542456.773    20542462.708
  24789966.474    -2388328.05649  -1579253.51944  24789966.743    24789973.977
  21541378.889   -22091533.27449 -17187897.63747  21541378.734    21541385.010
  20445110.282   -25523507.48249 -19170921.58548  20445109.725    20445115.223
  21508497.747   -20902339.69749 -16273113.18447  21508496.968    21508503.505
  22705677.922   -15838404.88349 -11893434.08146  22705677.746    22705684.026
 03 12 29  0  9  0.0000000  0  7G30G17G 4G24G 5G10G 6
  20506474.646   -23755092.47749 -18232817.62247  20506474.883    20506479.695
  20541826.353   -26313065.36449 -20475207.19248  20541825.800    20541831.756
  24809475.925    -2285805.21149  -1499365.53644  24809475.977    24809483.473
  21554211.706   -22024096.51649 -17135349.51747  21554211.520    21554217.805
  20452012.992   -25487233.34049 -19142656.02448  20452012.456    20452017.949
  21498113.763   -20956907.81849 -16315633.76447  21498112.956    21498119.481
  22693338.027   -15903251.11749 -11943963.55546  22693337.869    22693344.061
 03 12 29  0  9 30.0000000  0  6G30G17G24G 5G10G 6
  20498584.199   -23796557.13649 -18265127.72248  20498584.435    20498589.259
  20541275.414   -26315960.58349 -20477463.19648  20541274.861    20541280.796
  21567092.459   -21956407.68349 -17082604.97247  21567092.293    21567098.536
  20459015.578   -25450434.48349 -19113981.59948  20459015.049    20459020.517
  21487830.278   -21010947.52749 -16357742.59347  21487829.525    21487836.032
  22681011.833   -15968025.65349 -11994437.16446  22681011.682    22681017.747
 03 12 29  0 10  0.0000000  0  6G30G17G24G 5G10G 6
  20490788.834   -23837521.89349 -18297048.29148  20490789.082    20490793.885
  20540802.562   -26318445.50549 -20479399.48848  20540801.999    20540807.931
  21580018.986   -21888478.61249 -17029673.23247  21580018.804    21580025.049
  20466116.126   -25413120.89749 -19084906.08648  20466115.593    20466121.085
  21477646.023   -21064466.17249 -16399445.40847  21477645.236    21477651.783
  22668697.472   -16032737.80049 -12044862.16646  22668697.337    22668703.294
 03 12 29  0 10 30.0000000  0  6G30G17G24G 5G10G 6
  20483089.142   -23877984.20549 -18328577.34448  20483089.382    20483094.150
  20540407.698   -26320520.37549 -20481016.25748  20540407.152    20540413.070
  21592990.963   -21820310.53349 -16976555.24747  21592990.754    21592996.978
  20473314.649   -25375292.45649 -19055429.38448  20473314.110    20473319.604
  21467561.518   -21117460.50049 -16440739.65547  21467560.697    21467567.220
  22656395.278   -16097386.23049 -12095237.51046  22656395.114    22656401.033
 03 12 29  0 11  0.0000000  0  6G30G17G24G 5G10G 6
  20475485.458   -23917941.74949 -18359713.07248  20475485.686    20475490.476
  20540090.867   -26322185.33049 -20482313.60948  20540090.301    20540096.208
  21606008.138   -21751905.00249 -16923252.23847  21606007.912    21606014.107
  20480611.087   -25336949.47749 -19025551.74948  20480610.558    20480616.030
  21457577.335   -21169927.51549 -16481623.01947  21457576.539    21457583.033
  22644105.301   -16161969.96549 -12145562.44646  22644105.152    22644111.111
 03 12 29  0 11 30.0000000  0  6G30G17G24G 5G10G 6
  20467978.219   -23957392.40649 -18390453.82448  20467978.473    20467983.224
  20539851.917   -26323440.98749 -20483292.02948  20539851.367    20539857.269
  21619070.093   -21683264.08049 -16869765.80247  21619069.869    21619076.074
  20488005.322   -25298092.66549 -18995273.72348  20488004.769    20488010.248
  21447694.033   -21221864.52949 -16522093.39447  21447693.231    21447699.726
  22631827.815   -16226488.37049 -12195836.48146  22631827.682    22631833.663
 03 12 29  0 12  0.0000000  0  6G30G17G24G 5G10G 6
  20460567.928   -23996333.66149 -18420797.63948  20460568.163    20460572.873
  20539690.790   -26324287.56449 -20483951.68748  20539690.248    20539696.160
  21632176.521   -21614389.17049 -16816097.04747  21632176.326    21632182.513
  20495497.305   -25258722.04649 -18964595.32748  20495496.743    20495502.220
  21437912.189   -21273268.68849 -16562148.55247  21437911.393    21437917.823
  22619563.007   -16290940.46049 -12246058.84346  22619562.862    22619568.835
 03 12 29  0 12 30.0000000  0  7G30G21G17G24G 5G10G 6
  20453254.104   -24034768.00149 -18450746.45848  20453254.337    20453259.033
  24891436.835    -6844213.17849  -5310623.13245  24891436.407    24891444.408
  20539606.566   -26324729.99549 -20484296.42548  20539606.017    20539611.922
  21645326.241   -21545286.80649 -16762251.05747  21645326.063    21645332.274
  20503086.197   -25218841.96749 -18933519.94948  20503085.639    20503091.135
  21428231.347   -21324141.70049 -16601789.82947  21428230.555    21428236.977
  22607310.086   -16355329.95949 -12296232.44146  22607309.935    22607315.979
 03 12 29  0 13  0.0000000  0  7G30G21G17G24G 5G10G 6
  20446037.911   -24072689.09849 -18480295.34748  20446038.162    20446042.868
  24873343.931    -6939292.26349  -5384710.45445  24873343.234    24873351.346
  20539599.901   -26324764.80349 -20484323.53748  20539599.381    20539605.305
  21658519.717   -21475954.74549 -16708226.08347  21658519.519    21658525.741
  20510772.650   -25178449.33349 -18902045.17648  20510772.098    20510777.640
  21418652.826   -21374477.04549 -16641012.13947  21418652.036    21418658.456
  22595069.936   -16419652.11249 -12346353.55246  22595069.779    22595075.933
 03 12 29  0 13 30.0000000  0  7G30G21G17G24G 5G10G 6
  20438920.107   -24110093.39749 -18509441.53448  20438920.360    20438925.041
  24855275.354    -7034243.46349  -5458698.16845  24855274.561    24855282.360
  20539671.081   -26324390.94449 -20484032.20248  20539670.532    20539676.452
  21671756.848   -21406393.19949 -16654022.28747  21671756.615    21671762.857
  20518556.943   -25137542.71249 -18870169.89448  20518556.389    20518561.920
  21409177.455   -21424270.40049 -16679812.11347  21409176.656    21409183.048
  22582843.019   -16483904.34849 -12396420.19646  22582842.894    22582849.141
 03 12 29  0 14  0.0000000  0  7G30G21G17G24G 5G10G 6
  20431900.963   -24146979.51449 -18538183.94548  20431901.189    20431905.844
  24837230.826    -7129066.12649  -5532585.74845  24837230.084    24837238.144
  20539819.740   -26323609.65649 -20483423.39048  20539819.199    20539825.102
  21685037.164   -21336604.72649 -16599641.66647  21685036.961    21685043.211
  20526438.755   -25096123.55349 -18837895.23548  20526438.193    20526443.715
  21399805.573   -21473519.85349 -16718188.26147  21399804.764    21399811.144
  22570629.407   -16548086.61549 -12446432.31746  22570629.299    22570635.615
 03 12 29  0 14 30.0000000  0  7G30G21G17G24G 5G10G 6
  20424980.566   -24183346.31349 -18566521.69348  20424980.800    20424985.458
  24819210.878    -7223759.60249  -5606372.64945  24819210.278    24819218.498
  20540045.626   -26322422.58549 -20482498.39448  20540045.103    20540050.991
  21698360.187   -21266591.85549 -16545086.19647  21698359.958    21698366.197
  20534417.774   -25054193.37749 -18805222.37948  20534417.229    20534422.797
  21390537.453   -21522223.91149 -16756139.43047  21390536.660    21390543.070
  22558429.147   -16612199.03449 -12496390.01446  22558429.035    22558435.428
 03 12 29  0 15  0.0000000  0  7G30G21G17G24G 5G10G 6
  20418159.226   -24219192.80949 -18594454.01248  20418159.442    20418164.105
  24801215.762    -7318323.66349  -5680058.69345  24801215.346    24801223.291
  20540348.413   -26320831.38349 -20481258.48248  20540347.863    20540353.753
  21711725.332   -21196357.65049 -16490358.25447  21711725.105    21711731.305
  20542493.821   -25011753.67949 -18772152.48848  20542493.258    20542498.839
  21381373.441   -21570381.17049 -16793664.50947  21381372.614    21381378.995
  22546242.134   -16676242.06149 -12546293.62646  22546241.982    22546248.379
 03 12 29  0 15 30.0000000  0  7G30G21G17G24G 5G10G 6
  20411437.085   -24254517.73749 -18621979.91548  20411437.316    20411441.975
  24783245.734    -7412757.35649  -5753643.17945  24783245.167    24783252.957
  20540727.909   -26318837.14749 -20479704.52248  20540727.360    20540733.244
  21725132.090   -21125904.57849 -16435459.77347  21725131.874    21725138.075
  20550666.540   -24968805.63149 -18738686.48248  20550665.990    20550671.566
  21372313.775   -21617989.64249 -16830761.97147  21372312.965    21372319.342
  22534068.433   -16740215.40749 -12596142.94946  22534068.279    22534074.635
 03 12 29  0 16  0.0000000  0  7G30G21G17G24G 5G10G 6
  20404814.502   -24289319.59349 -18649098.22848  20404814.731    20404819.402
  24765300.407    -7507059.91949  -5827125.48745  24765299.780    24765307.341
  20541183.819   -26316441.29649 -20477837.61348  20541183.265    20541189.174
  21738580.077   -21055235.04849 -16380392.62047  21738579.864    21738586.030
  20558935.803   -24925350.35949 -18704825.24148  20558935.225    20558940.836
  21363358.936   -21665047.53549 -16867430.41347  21363358.105    21363364.494
  22521907.986   -16804118.91449 -12645937.85146  22521907.808    22521914.092
 03 12 29  0 16 30.0000000  0  7G30G21G17G24G 5G10G 6
  20398291.886   -24323595.98649 -18675807.08948  20398292.136    20398296.808
  24747380.186    -7601229.56249  -5900504.24845  24747379.696    24747387.344
  20541716.134   -26313643.80249 -20475657.73548  20541715.586    20541721.509
  21752069.001   -20984350.43149 -16325157.86747  21752068.776    21752074.951
  20567301.518   -24881388.10249 -18670568.94248  20567300.964    20567306.588
  21354509.428   -21711551.87249 -16903667.50547  21354508.592    21354514.925
  22509761.030   -16867951.33649 -12695677.35846  22509760.877    22509767.104
 03 12 29  0 17  0.0000000  0  7G30G21G17G24G 5G10G 6
  20391869.569   -24357345.47149 -18702105.37648  20391869.802    20391874.481
  24729485.582    -7695265.51649  -5973778.82745  24729485.094    24729492.900
  20542324.627   -26310446.01449 -20473165.94348  20542324.085    20542329.988
  21765598.373   -20913252.95649 -16269757.26047  21765598.170    21765604.351
  20575763.529   -24836920.17449 -18635918.61748  20575762.976    20575768.571
  21345765.585   -21757500.85349 -16939471.85947  21345764.795    21345771.109
  22497627.588   -16931712.42549 -12745361.28746  22497627.447    22497633.665
 03 12 29  0 17 30.0000000  0  7G30G21G17G24G 5G10G 6
  20385547.789   -24390566.41749 -18727991.81248  20385548.029    20385552.698
  24711616.492    -7789166.64449  -6046948.37145  24711616.154    24711623.884
  20543009.117   -26306848.96949 -20470363.03548  20543008.581    20543014.464
  21779167.864   -20841944.78649 -16214192.46847  21779167.656    21779173.854
  20584321.607   -24791947.30949 -18600874.83048  20584321.031    20584326.617
  21337127.855   -21802892.38549 -16974841.83347  21337127.054    21337133.374
  22485507.848   -16995401.71149 -12794989.25046  22485507.707    22485513.930
 03 12 29  0 18  0.0000000  0  7G30G21G17G24G 5G10G 6
  20379326.920   -24423257.15349 -18753465.09148  20379327.165    20379331.843
  24693773.420    -7882931.49649  -6120011.72145  24693773.057    24693780.860
  20543769.438   -26302853.41749 -20467249.60248  20543768.905    20543774.794
  21792777.049   -20770428.16549 -16158465.24447  21792776.864    21792783.025
  20592975.580   -24746470.37649 -18565438.26448  20592975.020    20592980.600
  21328596.587   -21847724.26449 -17009775.71847  21328595.780    21328602.068
  22473401.934   -17059018.51049 -12844560.73946  22473401.778    22473407.981
 03 12 29  0 18 30.0000000  0  7G30G21G17G24G 5G10G 6
  20373207.158   -24455416.74349 -18778524.49548  20373207.392    20373212.084
  24675956.580    -7976560.11149  -6192968.87845  24675956.011    24675963.614
  20544605.249   -26298461.13349 -20463827.03148  20544604.696    20544610.594
  21806425.385   -20698705.49249 -16102577.46647  21806425.206    21806431.413
  20601725.176   -24700491.02349 -18529610.20548  20601724.613    20601730.173
  21320172.088   -21891995.26149 -17044272.55747  21320171.273    21320177.556
  22461309.703   -17122563.09249 -12894075.96046  22461309.549    22461315.767
 03 12 29  0 19  0.0000000  0  7G30G21G17G24G 5G10G 6
  20367188.787   -24487043.55949 -18803168.75148  20367189.018    20367193.677
  24658165.893    -8070050.92549  -6265818.68145  24658165.128    24658172.738
  20545516.427   -26293672.77949 -20460095.84048  20545515.875    20545521.769
  21820112.534   -20626779.09449 -16046530.93947  21820112.361    21820118.564
  20610570.176   -24654010.28049 -18493391.45248  20610569.620    20610575.175
  21311854.718   -21935703.15449 -17078330.61447  21311853.900    21311860.151
  22449231.384   -17186034.79349 -12943534.38146  22449231.231    22449237.480
 03 12 29  0 19 30.0000000  0  7G30G21G17G24G 5G10G 6
  20361272.187   -24518135.26549 -18827396.03848  20361272.424    20361277.094
  24640401.338    -8163402.27749  -6338559.80045  24640400.735    24640408.417
  20546502.893   -26288488.74849 -20456056.32748  20546502.352    20546508.246
  21833838.191   -20554650.22049 -15990326.63247  21833838.028    21833844.241
  20619510.474   -24607028.63049 -18456782.38348  20619509.920    20619515.468
  21303645.099   -21978844.93549 -17111947.54247  21303644.264    21303650.491
  22437167.211   -17249432.32949 -12992935.01046  22437167.073    22437173.308
 03 12 29  0 20  0.0000000  0  7G30G21G17G24G 5G10G 6
  20355457.688   -24548690.58949 -18851205.36548  20355457.910    20355462.592
  24622663.628    -8256613.58749  -6411191.84345  24622663.175    24622670.782
  20547564.370   -26282910.58449 -20451709.69448  20547563.818    20547569.699
  21847601.943   -20482321.26249 -15933966.42047  21847601.750    21847607.999
  20628545.892   -24559547.07249 -18419783.77348  20628545.355    20628550.939
  21295543.403   -22021419.28149 -17145122.31647  21295542.583    21295548.832
  22425117.143   -17312755.62649 -13042277.79346  22425117.005    22425123.273
 03 12 29  0 20 30.0000000  0  7G30G21G17G24G 5G10G 6
  20349745.463   -24578708.52749 -18874595.95048  20349745.704    20349750.363
  24604952.922    -8349683.91849  -6483713.99645  24604952.186    24604960.014
  20548700.665   -26276939.57749 -20447056.95248  20548700.091    20548705.936
  21861403.305   -20409794.92749 -15877452.40047  21861403.096    21861409.352
  20637676.188   -24511567.16049 -18382396.83748  20637675.634    20637681.243
  21287550.022   -22063424.55749 -17177853.66547  21287549.226    21287555.461
  22413081.221   -17376004.53849 -13091562.61246  22413081.067    22413087.418
 03 12 29  0 21  0.0000000  0  7G30G21G17G24G 5G10G 6
  20344135.839   -24608187.11449 -18897566.25748  20344136.068    20344140.757
  24587269.135    -8442612.20749  -6556125.51245  24587268.468    24587276.126
  20549911.499   -26270576.26549 -20442098.52048  20549910.943    20549916.809
  21875241.869   -20337072.84649 -15820785.84947  21875241.665    21875247.936
  20646901.161   -24463089.76249 -18344622.25148  20646900.608    20646906.188
  21279665.421   -22104858.43849 -17210139.76747  21279664.605    21279670.803
  22401059.685   -17439178.21949 -13140788.80946  22401059.539    22401065.842
 03 12 29  0 21 30.0000000  0  7G30G21G17G24G 5G10G 6
  20338629.147   -24637124.98549 -18920115.22848  20338629.360    20338634.063
  24569612.698    -8535397.03149  -6628425.20245  24569612.022    24569619.515
  20551196.829   -26263821.81849 -20436835.30648  20551196.283    20551202.146
  21889117.248   -20264156.99049 -15763968.30547  21889117.090    21889123.345
  20656220.518   -24414116.18149 -18306461.02648  20656219.956    20656225.544
  21271889.858   -22145719.10149 -17241979.20647  21271889.048    21271895.264
  22389052.545   -17502276.10149 -13189955.94547  22389052.422    22389058.688
 03 12 29  0 22  0.0000000  0  7G30G21G17G24G 5G10G 6
  20333225.697   -24665520.13949 -18942241.30348  20333225.911    20333230.602
  24551983.739    -8628037.02749  -6700612.01745  24551983.156    24551990.610
  20552556.483   -26256676.94049 -20431267.85948  20552555.932    20552561.770
  21903029.239   -20191049.04449 -15707001.07847  21903029.078    21903035.313
  20665634.199   -24364647.00849 -18267913.62548  20665633.650    20665639.216
  21264223.806   -22186004.16949 -17273370.13147  21264223.005    21264229.228
  22377059.993   -17565297.30049 -13239063.31747  22377059.864    22377066.057
 03 12 29  0 22 30.0000000  0  7G30G21G17G24G 5G10G 6
  20327925.635   -24693372.08949 -18963944.10248  20327925.830    20327930.540
  24534382.366    -8720532.13249  -6772685.94945  24534381.871    24534389.039
  20553990.037   -26249143.51949 -20425397.65548  20553989.489    20553995.345
  21916977.228   -20117751.93249 -15649886.45347  21916977.053    21916983.332
  20675141.832   -24314684.22149 -18228981.59548  20675141.268    20675146.836
  21256667.466   -22225712.73449 -17304311.82747  21256666.656    21256672.886
  22365081.973   -17628242.00249 -13288111.09147  22365081.846    22365087.986
 03 12 29  0 23  0.0000000  0  7G30G21G17G24G 5G10G 6
  20322729.257   -24720678.98849 -18985222.18848  20322729.467    20322734.173
  24516808.870    -8812880.98049  -6844645.90845  24516808.397    24516815.461
  20555497.409   -26241222.16849 -20419225.16748  20555496.856    20555502.689
  21930960.866   -20044267.35549 -15592625.74547  21930960.692    21930966.980
  20684743.216   -24264228.51049 -18189665.46548  20684742.661    20684748.249
  21249221.329   -22264842.34849 -17334802.39447  21249220.531    21249226.745
  22353118.720   -17691109.27349 -13337098.52447  22353118.578    22353124.665
 03 12 29  0 23 30.0000000  0  7G30G21G17G24G 5G10G 6
  20317636.927   -24747439.28449 -19006074.34848  20317637.143    20317641.828
  24499263.448    -8905082.39649  -6916491.01645  24499262.944    24499270.050
  20557078.417   -26232913.87149 -20412751.16148  20557077.851    20557083.710
  21944979.724   -19970597.41249 -15535220.59447  21944979.577    21944985.888
  20694438.218   -24213280.87349 -18149966.01748  20694437.679    20694443.276
  21241885.622   -22303391.38349 -17364840.56247  21241884.829    21241891.032
  22341170.401   -17753898.38649 -13386025.06247  22341170.220    22341176.216
 03 12 29  0 24  0.0000000  0  7G30G21G17G24G 5G10G 6
  20312648.818   -24773651.78449 -19026499.65348  20312649.046    20312653.717
  24481746.123    -8997135.45249  -6988220.49945  24481745.751    24481752.777
  20558732.809   -26224220.00549 -20405976.71148  20558732.256    20558738.120
  21959033.534   -19896744.08049 -15477672.55047  21959033.397    21959039.702
  20704226.591   -24161842.73049 -18109884.35848  20704226.013    20704231.618
  21234660.784   -22341358.19249 -17394425.04947  21234659.981    21234666.154
  22329237.037   -17816608.69149 -13434890.18547  22329236.851    22329242.784
 03 12 29  0 24 30.0000000  0  7G30G21G17G24G 5G10G 6
  20307765.267   -24799314.93349 -19046496.89648  20307765.496    20307770.151
  24464257.171    -9089039.36649  -7059833.79045  24464256.928    24464263.777
  20560460.399   -26215141.41149 -20398902.47448  20560459.840    20560465.713
  21973121.913   -19822709.40949 -15419983.19647  21973121.744    21973128.038
  20714108.023   -24109915.42449 -18069421.52748  20714107.452    20714113.077
  21227547.095   -22378740.71349 -17423554.24247  21227546.305    21227552.431
  22317318.749   -17879239.63449 -13483693.47247  22317318.562    22317324.485
 03 12 29  0 25  0.0000000  0  7G30G21G17G24G 5G10G 6
  20302986.548   -24824427.32549 -19066064.97548  20302986.765    20302991.419
  24446796.962    -9180792.75149  -7131329.78045  24446796.686    24446803.474
  20562260.966   -26205679.19749 -20391529.31148  20562260.413    20562266.280
  21987244.456   -19748495.08749 -15362153.86447  21987244.258    21987250.573
  20724082.416   -24057499.67149 -18028578.09148  20724081.857    20724087.488
  21220544.916   -22415537.11949 -17452226.73047  21220544.133    21220550.236
  22305415.652   -17941790.55749 -13532434.39847  22305415.472    22305421.387
 03 12 29  0 25 30.0000000  0  7G30G21G17G24G 5G10G 6
  20298312.789   -24848988.20349 -19085203.30748  20298312.990    20298317.651
  24429365.395    -9272395.23149  -7202708.19045  24429364.973    24429371.813
  20564134.205   -26195835.09149 -20383858.57348  20564133.667    20564139.524
  22001400.643   -19674103.98849 -15304186.78147  22001400.438    22001406.723
  20734149.491   -24004596.87049 -17987355.13748  20734148.917    20734154.552
  21213654.551   -22451746.18849 -17480441.55447  21213653.753    21213659.857
  22293527.798   -18004261.37049 -13581112.91447  22293527.632    22293533.511
 03 12 29  0 26  0.0000000  0  7G30G21G17G24G 5G10G 6
  20293744.345   -24872995.47149 -19103910.25748  20293744.563    20293749.206
  24411962.870    -9363844.97949  -7273967.58345  24411962.531    24411969.335
  20566080.101   -26185609.33549 -20375890.44248  20566079.549    20566085.418
  22015590.175   -19599537.57349 -15246083.08147  22015589.964    22015596.231
  20744308.972   -23951208.53349 -17945753.84748  20744308.394    20744314.032
  21206876.324   -22487365.67049 -17508196.95947  21206875.526    21206881.632
  22281655.461   -18066650.81649 -13629728.02747  22281655.321    22281661.184
 03 12 29  0 26 30.0000000  0  7G30G21G17G24G 5G10G 6
  20289281.408   -24896448.33449 -19122185.20348  20289281.623    20289286.251
  24394589.694    -9455141.47049  -7345107.56745  24394589.507    24394596.071
  20568098.342   -26175003.49349 -20367626.13948  20568097.802    20568103.651
  22029812.658   -19524798.16549 -15187844.59347  22029812.438    22029818.694
  20754560.561   -23897336.03449 -17903775.29148  20754559.997    20754565.628
  21200210.575   -22522394.22649 -17535491.90447  21200209.780    21200215.895
  22269798.668   -18128958.64049 -13678279.53547  22269798.489    22269804.345
 03 12 29  0 27  0.0000000  0  7G30G21G17G24G 5G10G 6
  20284924.126   -24919345.78549 -19140027.35748  20284924.329    20284928.966
  24377245.941    -9546284.05649  -7416127.61345  24377245.444    24377252.177
  20570188.599   -26164019.14649 -20359066.89648  20570188.055    20570193.882
  22044067.593   -19449888.04249 -15129473.07547  22044067.360    22044073.581
  20764903.981   -23842981.05849 -17861420.77448  20764903.387    20764909.049
  21193657.539   -22556830.60049 -17562325.40247  21193656.727    21193662.849
  22257957.367   -18191184.64549 -13726767.28447  22257957.227    22257963.113
 03 12 29  0 27 30.0000000  0  7G30G21G17G24G 5G10G 6
  20280672.851   -24941686.42749 -19157435.64048  20280673.062    20280677.678
  24359931.429    -9637271.66549  -7487026.90945  24359930.841    24359937.767
  20572350.653   -26152657.30649 -20350213.50648  20572350.098    20572355.957
  22058354.729   -19374808.73649 -15070969.73347  22058354.499    22058360.758
  20775338.990   -23788144.51149 -17818691.01148  20775338.423    20775344.107
  21187217.445   -22590673.12949 -17588696.17447  21187216.655    21187222.777
  22246131.824   -18253327.96549 -13775190.61547  22246131.704    22246137.611
 03 12 29  0 28  0.0000000  0  7G30G21G17G24G 5G10G 6
  20276527.870   -24963468.24849 -19174408.47448  20276528.092    20276532.703
  24342646.607    -9728102.47449  -7557804.01345  24342646.187    24342652.972
  20574584.545   -26140918.19049 -20341066.13048  20574584.012    20574589.846
  22072673.651   -19299562.14249 -15012336.03747  22072673.416    22072679.681
  20785865.587   -23732827.00549 -17775586.47148  20785865.005    20785870.690
  21180890.855   -22623919.53849 -17614602.43547  21180890.045    21180896.199
  22234322.326   -18315387.21849 -13823548.42647  22234322.189    22234328.103
 03 12 29  0 28 30.0000000  0  7G30G21G17G24G 5G10G 6
  20272489.432   -24984690.38549 -19190945.19848  20272489.657    20272494.253
  24325391.910    -9818775.78649  -7628458.39345  24325391.473    24325398.472
  20576889.851   -26128803.56549 -20331626.15348  20576889.316    20576895.160
  22087024.092   -19224150.32049 -14953573.59047  22087023.842    22087030.101
  20796483.272   -23677030.65249 -17732108.80948  20796482.685    20796488.387
  21174677.968   -22656568.25749 -17640042.97947  21174677.156    21174683.330
  22222528.859   -18377362.21349 -13871840.59547  22222528.694    22222534.567
 03 12 29  0 29  0.0000000  0  7G30G21G17G24G 5G10G 6
  20268557.702   -25005351.77249 -19207044.97248  20268557.929    20268562.518
  24308167.342    -9909291.09249  -7698989.65445  24308166.876    24308173.774
  20579266.414   -26116314.57449 -20321894.46548  20579265.881    20579271.721
  22101405.537   -19148575.39249 -14894684.05247  22101405.296    22101411.547
  20807191.827   -23620756.67549 -17688258.97048  20807191.261    20807196.944
  21168579.053   -22688618.11649 -17665016.87347  21168578.258    21168584.401
  22210751.497   -18439252.39549 -13920066.67247  22210751.367    22210757.200
 03 12 29  0 29 30.0000000  0  7G30G21G17G24G 5G10G 6
  20264732.638   -25025452.65249 -19222707.98448  20264732.837    20264737.438
  24290972.924    -9999648.85149  -7769398.13445  24290972.400    24290979.023
  20581713.716   -26103453.87449 -20311873.13248  20581713.167    20581719.006
  22115817.405   -19072840.50249 -14835669.86047  22115817.178    22115823.413
  20817990.779   -23564008.16249 -17644039.36148  20817990.165    20817995.839
  21162594.167   -22720068.95549 -17689524.00147  21162593.332    21162599.464
  22198990.207   -18501058.42249 -13968227.17447  22198990.059    22198995.852
 03 12 29  0 30  0.0000000  0  7G30G21G17G24G 5G10G 6
  20261014.795   -25044989.91749 -19237931.81548  20261015.001    20261019.582
  24273808.802   -10089845.93949  -7839681.43145  24273808.283    24273815.013
  20584231.898   -26090220.68649 -20301561.55148  20584231.363    20584237.180
  22130259.733   -18996945.50149 -14776530.91247  22130259.510    22130265.794
  20828879.969   -23506784.72349 -17599449.67848  20828879.397    20828885.100
  21156723.846   -22750917.31649 -17713561.67147  21156723.045    21156729.170
  22187245.405   -18562777.81249 -14016320.16647  22187245.250    22187251.028
 03 12 29  0 30 30.0000000  0  7G30G21G17G24G 5G10G 6
  20257404.339   -25063962.98949 -19252716.01148  20257404.551    20257409.117
  24256675.288   -10179881.92249  -7909839.18645  24256674.724    24256681.747
  20586820.652   -26076616.79149 -20290961.10548  20586820.101    20586825.930
  22144731.969   -18920893.34549 -14717269.50247  22144731.751    22144738.038
  20839859.344   -23449087.78649 -17554491.03248  20839858.786    20839864.479
  21150968.421   -22781162.26549 -17737129.14947  21150967.630    21150973.710
  22175517.093   -18624410.40749 -14064345.52647  22175516.959    22175522.697
 03 12 29  0 31  0.0000000  0  7G30G21G17G24G 5G10G 6
  20253901.504   -25082370.37949 -19267059.42048  20253901.726    20253906.305
  24239572.613   -10269755.53549  -7979870.42745  24239572.213    24239579.185
  20589479.779   -26062642.81349 -20280072.29048  20589479.220    20589485.072
  22159233.806   -18844685.56149 -14657886.82547  22159233.622    22159239.874
  20850928.648   -23390918.42849 -17509164.28048  20850928.063    20850933.751
  21145328.201   -22810801.98849 -17760225.02547  21145327.374    21145333.449
  22163805.518   -18685955.01949 -14112302.33147  22163805.387    22163811.092
 03 12 29  0 31 30.0000000  0  7G30G21G17G24G 5G10G 6
  20250506.382   -25100211.71249 -19280961.74648  20250506.596    20250511.191
  24222501.194   -10359466.74549  -8049775.10945  24222500.771    24222507.505
  20592208.887   -26048301.08949 -20268896.92048  20592208.351    20592214.184
  22173764.792   -18768324.86849 -14598384.99147  22173764.553    22173770.867
  20862087.329   -23332279.18649 -17463471.38148  20862086.758    20862092.442
  21139803.141   -22839836.11849 -17782849.01147  21139802.329    21139808.423
  22152110.684   -18747411.76249 -14160190.66447  22152110.513    22152116.275
 03 12 29  0 32  0.0000000  0  7G30G21G17G24G 5G10G 6
  20247219.142   -25117486.28849 -19294422.43848  20247219.362    20247223.957
  24205460.851   -10449014.81049  -8119552.68445  24205460.379    24205466.879
  20595007.822   -26033592.71749 -20257435.84648  20595007.283    20595013.100
  22188324.388   -18691813.44549 -14538765.70547  22188324.233    22188330.549
  20873335.145   -23273171.45249 -17417413.41548  20873334.581    20873340.257
  21134393.593   -22868263.32849 -17805000.06547  21134392.794    21134398.875
  22140432.594   -18808780.13449 -14208010.13447  22140432.448    22140438.213
 03 12 29  0 32 30.0000000  0  7G30G21G17G24G 5G10G 6
  20244040.110   -25134192.11249 -19307439.95048  20244040.352    20244044.931
  24188451.689   -10538397.95149  -8189201.74145  24188451.194    24188457.780
  20597876.392   -26018518.30049 -20245689.54548  20597875.827    20597881.667
  22202912.482   -18615152.31449 -14479029.76747  22202912.304    22202918.662
  20884672.000   -23213596.07549 -17370991.06348  20884671.403    20884677.108
  21129099.963   -22896081.49849 -17826676.54647  21129099.149    21129105.251
  22128771.676   -18870058.61549 -14255759.56347  22128771.510    22128777.243
 03 12 29  0 33  0.0000000  0  7G30G21G17G24G 5G10G 6
  20240969.461   -25150328.37749 -19320013.65248  20240969.698    20240974.278
  24171473.967   -10627615.34349  -8258721.66745  24171473.538    24171480.025
  20600814.364   -26003079.28249 -20233659.14348  20600813.783    20600819.623
  22217528.667   -18538344.05749 -14419179.18247  22217528.485    22217534.808
  20896097.479   -23153554.63549 -17324205.54247  20896096.903    20896102.618
  21123922.434   -22923289.49749 -17847877.56447  21123921.624    21123927.752
  22117127.924   -18931246.60949 -14303438.48547  22117127.741    22117133.477
 03 12 29  0 33 30.0000000  0  7G30G21G17G24G 5G10G 6
  20238007.341   -25165894.36249 -19332142.97848  20238007.569    20238012.142
  24154528.087   -10716666.45549  -8328112.01145  24154527.658    24154533.991
  20603821.411   -25987277.04749 -20221345.71448  20603820.832    20603826.680
  22232172.565   -18461390.20349 -14359215.14847  22232172.307    22232178.633
  20907611.297   -23093049.16849 -17277058.44547  20907610.722    20907616.433
  21118861.230   -22949886.28849 -17868602.31647  21118860.417    21118866.516
  22105501.479   -18992343.66049 -14351046.53647  22105501.310    22105507.099
 03 12 29  0 34  0.0000000  0  7G30G21G17G24G 5G10G 6
  20235153.936   -25180889.12349 -19343827.19748  20235154.164    20235158.756
  24137613.855   -10805550.99749  -8397372.56345  24137613.458    24137619.608
  20606897.296   -25971113.01849 -20208750.36548  20606896.742    20606902.559
  22246843.663   -18384292.98549 -14299139.39447  22246843.451    22246849.750
  20919213.113   -23032081.32849 -17229551.05447  20919212.550    20919218.228
  21113916.545   -22975870.70749 -17888849.90147  21113915.720    21113921.811
  22093892.452   -19053349.37349 -14398583.42147  22093892.287    22093898.092
 03 12 29  0 34 30.0000000  0  7G30G21G17G24G 5G10G 6
  20232409.452   -25195311.41849 -19355065.33948  20232409.694    20232414.272
  24120731.723   -10894267.21549  -8466501.95745  24120731.135    24120737.358
  20610041.865   -25954588.15849 -20195873.84748  20610041.315    20610047.127
  22261541.697   -18307054.10349 -14238953.25847  22261541.476    22261547.799
  20930902.708   -22970652.28749 -17181684.28747  20930902.138    20930907.820
  21109088.685   -23001241.28249 -17908619.16347  21109087.853    21109093.908
  22082301.051   -19114262.48449 -14446048.15147  22082300.891    22082306.663
 03 12 29  0 35  0.0000000  0  7G30G21G17G24G 5G10G 6
  20229774.042   -25209160.43749 -19365856.77348  20229774.289    20229778.883
  24103881.671   -10982814.50049  -8535499.70945  24103881.041    24103887.340
  20613254.863   -25937703.69749 -20182717.12148  20613254.311    20613260.136
  22276266.342   -18229675.39549 -14178658.16247  22276266.162    22276272.486
  20942679.706   -22908763.58049 -17133459.33647  20942679.155    20942684.835
  21104377.895   -23025996.74049 -17927909.10847  21104377.084    21104383.083
  22070727.424   -19175082.32449 -14493440.19847  22070727.234    22070732.971
 03 12 29  0 35 30.0000000  0  7G30G21G17G24G 5G10G 6
  20227247.924   -25222435.39649 -19376200.89048  20227248.157    20227252.724
  24087063.688   -11071192.16249  -8604365.30945  24087063.184    24087069.471
  20616536.042   -25920461.10649 -20169281.33348  20616535.480    20616541.325
  22291017.203   -18152159.22449 -14118255.96247  22291016.980    22291023.352
  20954543.964   -22846416.81749 -17084877.45847  20954543.401    20954549.093
  21099784.319   -23050136.09049 -17946718.97447  21099783.494    21099789.491
  22059171.603   -19235808.36649 -14540759.15947  22059171.414    22059177.140
 03 12 29  0 36  0.0000000  0  7G30G21G17G24G 5G10G 6
  20224831.352   -25235134.46249 -19386096.25748  20224831.590    20224836.144
  24070278.433   -11159398.45549  -8673097.37145  24070277.974    24070284.241
  20619885.311   -25902860.67549 -20155566.70748  20619884.731    20619890.558
  22305793.978   -18074506.32749 -14057747.21247  22305793.790    22305800.185
  20966495.143   -22783613.10849 -17035939.52047  20966494.568    20966500.239
  21095308.330   -23073657.39149 -17965047.23947  21095307.493    21095313.510
  22047633.985   -19296438.95349 -14588003.73647  22047633.801    22047639.515
 03 12 29  0 36 30.0000000  0  7G30G21G17G24G 5G10G 6
  20222524.354   -25247257.85349 -19395543.04448  20222524.598    20222529.155
  24053525.859   -11247433.47049  -8741695.96645  24053525.401    24053531.561
  20623302.161   -25884904.85149 -20141575.15248  20623301.595    20623307.401
  22320596.300   -17996719.46649 -13997134.08146  22320596.123    22320602.547
  20978532.766   -22720355.06549 -16986647.55647  20978532.204    20978537.868
  21090950.028   -23096560.27849 -17982893.62147  21090949.210    21090955.254
  22036114.428   -19356974.46349 -14635174.22147  22036114.216    22036119.945
 03 12 29  0 37  0.0000000  0  7G30G21G17G24G 5G10G 6
  20220327.091   -25258804.51449 -19404540.43348  20220327.309    20220331.869
  24036806.044   -11335296.28349  -8810160.38745  24036805.416    24036811.600
  20626786.469   -25866594.72849 -20127307.51448  20626785.903    20626791.687
  22335423.816   -17918800.38249 -13936417.91546  22335423.648    22335430.053
  20990656.655   -22656643.53949 -16937002.22447  20990656.101    20990661.775
  21086709.619   -23118843.71949 -18000257.31047  21086708.795    21086714.833
  22024613.116   -19417413.89449 -14682269.84647  22024612.928    22024618.659
 03 12 29  0 37 30.0000000  0  7G30G21G17G24G 5G10G 6
  20218239.677   -25269773.87749 -19413087.97748  20218239.894    20218244.435
  24020119.022   -11422986.18449  -8878490.08145  24020118.518    24020124.684
  20630337.875   -25847931.85249 -20112765.00748  20630337.315    20630343.130
  22350276.070   -17840751.44349 -13875600.56746  22350275.876    22350282.260
  21002866.377   -22592481.01549 -16887005.46747  21002865.828    21002871.536
  21082587.225   -23140506.72549 -18017137.54647  21082586.419    21082592.480
  22013130.238   -19477756.75049 -14729290.22147  22013130.037    22013135.764
 03 12 29  0 38  0.0000000  0  7G30G21G17G24G 5G10G 6
  20216262.388   -25280164.62049 -19421184.65448  20216262.613    20216267.144
  24003465.384   -11510501.52449  -8946683.74545  24003464.857    24003470.873
  20633956.259   -25828916.97249 -20097948.21048  20633955.710    20633961.526
  22365152.757   -17762574.11049 -13814683.16646  22365152.547    22365158.917
  21015161.728   -22527868.80349 -16836658.30347  21015161.137    21015166.828
  21078583.173   -23161547.96049 -18033533.28947  21078582.351    21078588.433
  22001665.888   -19538001.73649 -14776234.32647  22001665.714    22001671.491
 03 12 29  0 38 30.0000000  0  7G30G21G17G24G 5G10G 6
  20214395.295   -25289976.34349 -19428830.14248  20214395.485    20214400.032
  23986844.859   -11597842.27449  -9014741.36345  23986844.443    23986850.296
  20637641.353   -25809551.68349 -20082858.36748  20637640.799    20637646.606
  22380053.500   -17684270.24449 -13753667.18246  22380053.321    22380059.622
  21027542.259   -22462808.69649 -16785962.12947  21027541.676    21027547.372
  21074697.611   -23181966.59049 -18049443.87747  21074696.801    21074702.869
  21990220.375   -19598148.20849 -14823101.66947  21990220.197    21990226.000
 03 12 29  0 39  0.0000000  0  7G30G21G17G24G 5G10G 6
  20212638.497   -25299208.22849 -19436023.81048  20212638.721    20212643.270
  23970257.661   -11685008.01649  -9082662.61545  23970257.276    23970263.094
  20641392.875   -25789837.38249 -20067496.56648  20641392.321    20641398.117
  22394977.998   -17605841.81449 -13692554.12546  22394977.789    22394984.046
  21040007.744   -22397302.30949 -16734918.20547  21040007.176    21040012.857
  21070930.715   -23201761.70249 -18064868.60647  21070929.899    21070935.947
  21978793.678   -19658195.48049 -14869891.71747  21978793.518    21978799.298
 03 12 29  0 39 30.0000000  0  7G30G21G17G24G 5G10G 6
  20210992.236   -25307859.40849 -19442764.98348  20210992.461    20210996.994
  23953704.154   -11771996.84249  -9150446.01745  23953703.716    23953709.565
  20645210.558   -25769775.31349 -20051863.77848  20645209.979    20645215.778
  22409925.804   -17527290.70349 -13631345.47146  22409925.601    22409931.811
  21052557.848   -22331351.23749 -16683527.77347  21052557.268    21052562.928
  21067282.661   -23220932.28449 -18079806.68947  21067281.864    21067287.901
  21967386.075   -19718142.70149 -14916603.80247  21967385.915    21967391.650
 03 12 29  0 40  0.0000000  0  7G30G21G17G24G 5G10G 6
  20209456.557   -25315929.40649 -19449053.28348  20209456.764    20209461.301
  23937184.526   -11858808.40849  -9218091.27145  23937183.972    23937189.699
  20649094.182   -25749366.71049 -20035960.96248  20649093.600    20649099.405
  22424896.597   -17448618.68149 -13570042.61446  22424896.377    22424902.594
  21065192.159   -22264957.53149 -16631792.43647  21065191.571    21065197.227
  21063753.607   -23239477.65749 -18094257.59747  21063752.778    21063758.797
  21955997.584   -19777989.25249 -14963237.43747  21955997.409    21956003.230
 03 12 29  0 40 30.0000000  0  7G30G21G17G24G 5G10G 6
  20208031.612   -25323417.29949 -19454888.00048  20208031.841    20208036.372
  23920698.555   -11945441.89349  -9285597.78045  23920698.125    23920703.801
  20653043.463   -25728612.78149 -20019789.06648  20653042.906    20653048.752
  22439890.160   -17369826.99949 -13508646.50846  22439889.958    22439896.172
  21077910.508   -22198122.48049 -16579713.19247  21077909.927    21077915.548
  21060343.739   -23257396.50549 -18108220.30447  21060342.918    21060348.923
  21944628.504   -19837733.82549 -15009791.61347  21944628.350    21944634.193
 03 12 29  0 41  0.0000000  0  7G30G21G17G24G 5G10G 6
  20206717.558   -25330322.73149 -19460268.84948  20206717.800    20206722.319
  23904246.685   -12031896.83749  -9352965.16645  23904246.215    23904251.930
  20657058.199   -25707515.23149 -20003349.41348  20657057.647    20657063.497
  22454905.992   -17290918.33749 -13447159.24846  22454905.812    22454911.985
  21090712.360   -22130848.18749 -16527291.68447  21090711.794    21090717.447
  21057053.177   -23274688.38749 -18121694.46647  21057052.346    21057058.371
  21933279.013   -19897376.08049 -15056266.06847  21933278.837    21933284.614
 03 12 29  0 41 30.0000000  0  7G30G21G17G24G 5G10G 6
  20205514.524   -25336644.82949 -19465195.15448  20205514.743    20205519.259
  23887829.077   -12118171.86149  -9420192.36945  23887828.601    23887834.269
  20661138.099   -25686075.17849 -19986642.87148  20661137.542    20661143.373
  22469943.868   -17211894.12149 -13385581.95046  22469943.642    22469949.863
  21103597.450   -22063136.57449 -16474529.40947  21103596.894    21103602.538
  21053882.105   -23291352.33649 -18134679.33247  21053881.291    21053887.296
  21921949.108   -19956914.91049 -15102659.92547  21921948.941    21921954.756
 03 12 29  0 42  0.0000000  0  7G30G21G17G24G 5G10G 6
  20204422.513   -25342383.17349 -19469666.58548  20204422.749    20204427.273
  23871445.544   -12204266.83649  -9487279.27145  23871445.092    23871450.819
  20665282.889   -25664294.20249 -19969670.67248  20665282.313    20665288.172
  22485003.322   -17132756.24449 -13323916.08146  22485003.097    22485009.326
  21116565.418   -21994989.58549 -16421427.87747  21116564.826    21116570.497
  21050830.725   -23307387.39349 -18147174.15447  21050829.914    21050835.868
  21910639.009   -20016349.84949 -15148972.82647  21910638.850    21910644.650
 03 12 29  0 42 30.0000000  0  7G30G21G17G24G 5G10G 6
  20203441.933   -25347536.31349 -19473682.01048  20203442.168    20203446.672
  23855096.528   -12290180.71249  -9554225.04045  23855096.131    23855101.798
  20669492.461   -25642172.71949 -19952433.14948  20669491.899    20669497.742
  22500084.204   -17053505.96649 -13262162.62846  22500083.946    22500090.207
  21129616.044   -21926408.04049 -16367987.73547  21129615.452    21129621.168
  21047899.271   -23322792.16549 -18159177.84747  21047898.463    21047904.380
  21899348.979   -20075679.18549 -15195203.44947  21899348.826    21899354.599
 03 12 29  0 43  0.0000000  0  7G30G21G17G24G 5G10G 6
  20202572.699   -25352104.26149 -19477241.44448  20202572.910    20202577.393
  23838782.343   -12375912.08049  -9621028.60745  23838781.905    23838787.591
  20673766.505   -25619712.49949 -19934931.67448  20673765.920    20673771.789
  22515186.036   -16974145.02149 -13200322.94146  22515185.781    22515192.086
  21142748.894   -21857394.22849 -16314210.75347  21142748.330    21142754.049
  21045087.796   -23337566.36149 -18170690.18447  21045086.979    21045092.898
  21888079.220   -20134902.40149 -15241351.37747  21888079.048    21888084.767
 03 12 29  0 43 30.0000000  0  7G30G21G17G24G 5G10G 6
  20201814.783   -25356086.94749 -19480344.82748  20201815.014    20201819.483
  23822503.026   -12461460.69849  -9687689.77945  23822502.495    23822508.112
  20678104.564   -25596915.77649 -19917167.99048  20678103.997    20678109.864
  22530308.409   -16894676.30849 -13138399.26946  22530308.192    22530314.483
  21155963.658   -21787950.49749 -16260098.77147  21155963.091    21155968.788
  21042396.342   -23351710.03849 -18181711.21347  21042395.533    21042401.446
  21876829.575   -20194019.45549 -15287416.58547  21876829.416    21876835.138
 03 12 29  0 44  0.0000000  0  7G30G21G17G24G 5G10G 6
  20201168.433   -25359483.61449 -19482991.58048  20201168.652    20201173.093
  23806258.468   -12546825.97949  -9754208.09745  23806257.911    23806263.632
  20682506.507   -25573783.35849 -19899142.72348  20682505.939    20682511.795
  22545451.056   -16815100.94749 -13076392.51146  22545450.839    22545457.178
  21169259.951   -21718078.31349 -16205652.93347  21169259.367    21169265.046
  21039825.081   -23365222.17849 -18192240.13847  21039824.243    21039830.146
  21865600.478   -20253028.90849 -15333397.94947  21865600.310    21865605.952
 03 12 29  0 44 30.0000000  0  7G30G21G17G24G 5G10G 6
  20200633.718   -25362293.61649 -19485181.19248  20200633.942    20200638.351
  23790048.966   -12632007.01849  -9820582.86245  23790048.472    23790054.144
  20686972.090   -25550316.54149 -19880856.88648  20686971.528    20686977.354
  22560613.764   -16735420.62249 -13014303.94546  22560613.562    22560619.863
  21182637.400   -21647779.45949 -16150874.62647  21182636.806    21182642.514
  21037374.132   -23378101.81849 -18202276.20947  21037373.310    21037379.183
  21854392.007   -20311929.75249 -15379294.68747  21854391.849    21854397.466
 03 12 29  0 45  0.0000000  0  7G30G21G17G24G 5G10G 6
  20200210.741   -25364516.28549 -19486913.13748  20200210.965    20200215.412
  23773874.700   -12717003.20349  -9886813.56545  23773874.239    23773879.802
  20691501.103   -25526516.39649 -19862311.31248  20691500.502    20691506.361
  22575796.036   -16655637.17149 -12952135.03846  22575795.822    22575802.141
  21196095.619   -21577055.91749 -16095765.38647  21196095.039    21196100.763
  21035043.709   -23390348.08749 -18211818.74047  21035042.893    21035048.753
  21843204.367   -20370721.14049 -15425106.12847  21843204.194    21843209.780
 03 12 29  0 45 30.0000000  0  7G30G21G17G24G 5G10G 6
  20199899.544   -25366151.59849 -19488187.40548  20199899.760    20199904.207
  23757735.671   -12801814.15449  -9952899.95245  23757735.212    23757740.733
  20696093.134   -25502385.08149 -19843507.68348  20696092.553    20696098.392
  22590997.571   -16575752.58549 -12889887.30446  22590997.388    22591003.620
  21209634.257   -21505909.96749 -16040327.00647  21209633.676    21209639.394
  21032833.851   -23401960.86749 -18220867.64547  21032833.043    21032838.891
  21832037.680   -20429402.56649 -15470831.89147  21832037.485    21832042.994
 03 12 29  0 46  0.0000000  0  7G30G21G17G24G 5G10G 6
  20199700.193   -25367199.11249 -19489003.64648  20199700.388    20199704.854
  23741632.160   -12886438.53849 -10018840.96545  23741631.621    23741637.219
  20700748.021   -25477923.54149 -19824446.73548  20700747.451    20700753.255
  22606218.102   -16495768.24049 -12827561.85746  22606217.861    22606224.186
  21223252.992   -21434343.22449 -15984560.73047  21223252.368    21223258.119
  21030744.668   -23412939.48249 -18229422.39747  21030743.869    21030749.729
  21820892.053   -20487973.05949 -15516471.21347  21820891.851    21820897.350
 03 12 29  0 46 30.0000000  0  7G30G21G17G24G 5G10G 6
  20199612.869   -25367657.90249 -19489361.13948  20199613.079    20199617.522
  23725564.239   -12970875.55749 -10084635.96445  23725563.694    23725569.332
  20705465.556   -25453132.87349 -19805129.32348  20705464.965    20705470.757
  22621457.286   -16415685.80049 -12765159.96246  22621457.041    22621463.423
  21236951.445   -21362357.23249 -15928467.76747  21236950.815    21236956.605
  21028776.339   -23423283.04249 -18237482.29947  21028775.542    21028781.395
  21809767.787   -20546431.11749 -15562022.91747  21809767.582    21809773.065
 03 12 29  0 47  0.0000000  0  7G30G21G17G24G 5G10G 6
  20199637.656   -25367527.73949 -19489259.71348  20199637.872    20199642.314
  23709532.055   -13055124.59849 -10150284.51345  23709531.513    23709537.076
  20710245.415   -25428014.38849 -19785556.47248  20710244.816    20710250.614
  22636714.823   -16335506.75349 -12702682.78746  22636714.599    22636720.982
  21250729.294   -21289953.99949 -15872049.68847  21250728.697    21250734.487
  21026928.952   -23432991.03349 -18245046.95547  21026928.151    21026933.969
  21798665.108   -20604775.91749 -15607486.38147  21798664.899    21798670.393
 03 12 29  0 47 30.0000000  0  7G30G21G17G24G 5G10G 6
  20199774.493   -25366808.65649 -19488699.38348  20199774.707    20199779.170
  23693535.670   -13139185.39449 -10215786.36545  23693535.127    23693540.747
  20715087.254   -25402570.18549 -19765729.81348  20715086.664    20715092.485
  22651990.315   -16255233.48449 -12640132.19746  22651990.074    22651996.497
  21264586.143   -21217136.07849 -15815308.47347  21264585.544    21264591.301
  21025202.505   -23442063.63049 -18252116.50347  21025201.696    21025207.531
  21787583.995   -20663007.14249 -15652861.33647  21787583.790    21787589.312
 03 12 29  0 48  0.0000000  0  7G30G21G17G24G 5G10G 6
  20200023.558   -25365499.91449 -19487679.57748  20200023.755    20200028.230
  23677575.359   -13223057.17649 -10281140.94445  23677574.806    23677580.550
  20719990.965   -25376801.04849 -19745649.95648  20719990.389    20719996.178
  22667283.478   -16174867.16049 -12577509.08546  22667283.286    22667289.712
  21278521.673   -21143904.62449 -15758245.02147  21278521.046    21278526.809
  21023597.176   -23450499.68949 -18258690.04347  21023596.377    21023602.189
  21776524.817   -20721123.38649 -15698146.69747  21776524.596    21776530.158
 03 12 29  0 48 30.0000000  0  7G30G21G17G24G 5G10G 6
  20200384.909   -25363600.91649 -19486199.83248  20200385.114    20200389.575
  23661651.222   -13306738.25549 -10346346.92945  23661650.730    23661656.521
  20724956.255   -25350708.18349 -19725317.84148  20724955.672    20724961.473
  22682594.073   -16094409.41949 -12514814.74946  22682593.847    22682600.298
  21292535.435   -21070261.81749 -15700861.03347  21292534.845    21292540.578
  21022113.104   -23458298.75449 -18264767.22347  21022112.295    21022118.059
  21765487.752   -20779123.32949 -15743341.43147  21765487.547    21765493.154
 03 12 29  0 49  0.0000000  0  7G30G21G17G24G 5G10G 6
  20200858.496   -25361112.20549 -19484260.56748  20200858.697    20200863.151
  23645763.450   -13390228.88549 -10411404.50345  23645762.989    23645768.584
  20729982.772   -25324293.62649 -19704735.06048  20729982.192    20729987.990
  22697921.576   -16013862.71649 -12452051.09346  22697921.386    22697927.846
  21306627.007   -20996210.14049 -15643158.45047  21306626.390    21306632.129
  21020750.092   -23465461.23749 -18270348.36747  21020749.298    21020755.055
  21754472.878   -20837006.73649 -15788445.35847  21754472.702    21754478.301
 03 12 29  0 49 30.0000000  0  7G30G21G17G24G 5G10G 6
  20201444.304   -25358033.72449 -19481861.74048  20201444.501    20201448.937
  23629912.108   -13473528.44149 -10476313.19845  23629911.603    23629917.014
  20735070.212   -25297558.88849 -19683902.78648  20735069.630    20735075.429
  22713265.773   -15933228.82749 -12389219.48546  22713265.534    22713271.986
  21320795.937   -20921751.86249 -15585139.03347  21320795.341    21320801.093
  21019508.346   -23471986.64849 -18275433.09147  21019507.548    21019513.336
  21743480.290   -20894772.97549 -15833457.98247  21743480.112    21743485.733
 03 12 29  0 50  0.0000000  0  7G30G21G17G24G 5G10G 6
  20202142.544   -25354364.56249 -19479002.64748  20202142.738    20202147.179
  23614097.232   -13556636.01649 -10541072.28445  23614096.731    23614102.157
  20740218.390   -25270505.04049 -19662821.85348  20740217.816    20740223.588
  22728626.256   -15852508.58749 -12326320.60146  22728626.040    22728632.503
  21335042.001   -20846888.31049 -15526803.81647  21335041.408    21335047.209
  21018387.975   -23477874.14649 -18280020.73747  21018387.183    21018392.966
  21732510.341   -20952420.41749 -15878378.04447  21732510.146    21732515.756
 03 12 29  0 50 30.0000000  0  7G30G21G17G24G 5G10G 6
  20202953.214   -25350104.40849 -19475683.04248  20202953.406    20202957.853
  23598319.025   -13639550.64749 -10605681.02645  23598318.564    23598324.058
  20745427.084   -25243133.09949 -19641493.05748  20745426.500    20745432.270
  22744002.953   -15771703.62449 -12263355.69846  22744002.764    22744009.148
  21349364.741   -20771621.72649 -15468154.55347  21349364.153    21349369.983
  21017389.096   -23483123.40149 -18284111.05447  21017388.275    21017394.029
  21721563.106   -21009948.12249 -15923204.79147  21721562.935    21721568.596
 03 12 29  0 51  0.0000000  0  7G30G21G17G24G 5G10G 6
  20203876.205   -25345253.82249 -19471903.35748  20203876.427    20203880.903
  23582577.627   -13722272.22949 -10670139.34845  23582577.102    23582582.651
  20750695.899   -25215445.24249 -19619918.09148  20750695.323    20750701.100
  22759395.383   -15690816.34849 -12200326.64746  22759395.119    22759401.513
  21363763.750   -20695954.36649 -15409192.99347  21363763.154    21363768.989
  21016511.648   -23487734.40049 -18287704.02347  21016510.822    21016516.594
  21710638.873   -21067355.62649 -15967937.88847  21710638.678    21710644.300
 03 12 29  0 51 30.0000000  0  7G30G21G17G24G 5G10G 6
  20204911.686   -25339812.40149 -19467663.28848  20204911.871    20204916.338
  23566873.052   -13804800.18849 -10734446.77845  23566872.443    23566878.082
  20756024.502   -25187442.88049 -19598098.05748  20756023.934    20756029.743
  22774803.112   -15609848.11949 -12137234.53346  22774802.853    22774809.270
  21378238.631   -20619888.51749 -15349920.92547  21378237.994    21378243.830
  21015755.643   -23491707.10249 -18290799.61747  21015754.836    21015760.617
  21699737.592   -21124641.98849 -16012576.58047  21699737.414    21699743.027
 03 12 29  0 52  0.0000000  0  7G30G21G17G24G 5G10G 6
  20206059.682   -25333779.56549 -19462962.37148  20206059.876    20206064.348
  23551205.383   -13887133.48349 -10798602.52045  23551204.910    23551210.378
  20761412.883   -25159126.72749 -19576033.50948  20761412.333    20761418.133
  22790226.043   -15528800.05849 -12074080.19546  22790225.815    22790232.186
  21392789.054   -20543425.38449 -15290339.28147  21392788.451    21392794.279
  21015121.244   -23495040.76149 -18293397.25047  21015120.445    21015126.220
  21688859.789   -21181805.44649 -16057119.50747  21688859.605    21688865.154
 03 12 29  0 52 30.0000000  0  7G30G21G17G24G 5G10G 6
  20207320.252   -25327155.21249 -19457800.53348  20207320.443    20207324.902
  23535574.977   -13969271.20149 -10862605.87645  23535574.511    23535580.013
  20766860.722   -25130498.38749 -19553725.70048  20766860.152    20766865.931
  22805663.881   -15447673.83849 -12010864.96446  22805663.677    22805669.989
  21407414.736   -20466567.15549 -15230449.77347  21407414.145    21407419.945
  21014608.473   -23497735.33149 -18295496.89447  21014607.670    21014613.459
  21678005.464   -21238845.13949 -16101565.99147  21678005.279    21678010.821
 03 12 29  0 53  0.0000000  0  7G30G21G17G24G 5G10G 6
  20208693.322   -25319939.52849 -19452177.91348  20208693.523    20208697.995
  23519981.887   -14051213.07449 -10926456.60645  23519981.446    23519986.971
  20772367.643   -25101559.43449 -19531175.85248  20772367.050    20772372.850
  22821116.201   -15366471.58949 -11947590.48346  22821115.950    22821122.264
  21422115.159   -20389316.24449 -15170254.27547  21422114.539    21422120.364
  21014217.300   -23499790.88949 -18297098.60047  21014216.501    21014222.277
  21667174.895   -21295760.39249 -16145915.50847  21667174.707    21667180.206
 03 12 29  0 53 30.0000000  0  7G30G21G17G24G 5G10G 6
  20210178.903   -25312132.78849 -19446094.73548  20210179.104    20210183.582
  23504426.252   -14132958.71549 -10990154.44746  23504425.705    23504431.236
  20777933.286   -25072311.57649 -19508385.30548  20777932.707    20777938.495
  22836582.666   -15285194.81849 -11884257.92946  22836582.433    22836588.670
  21436889.765   -20311674.99349 -15109754.62047  21436889.170    21436895.021
  21013947.745   -23501207.26049 -18298202.23947  21013946.937    21013952.715
  21656368.112   -21352550.36149 -16190167.40447  21656367.929    21656373.421
 03 12 29  0 54  0.0000000  0  7G30G21G17G24G 5G10G 6
  20211777.003   -25303734.66749 -19439550.73748  20211777.208    20211781.668
  23488908.036   -14214507.42749 -11053698.82546  23488907.498    23488912.966
  20783557.480   -25042756.10449 -19485355.05848  20783556.923    20783562.694
  22852063.008   -15203845.00749 -11820868.45546  22852062.806    22852069.001
  21451738.412   -20233644.87449 -15048951.95347  21451737.811    21451743.678
  21013799.897   -23501984.28249 -18298807.68347  21013799.070    21013804.830
  21645585.373   -21409213.78549 -16234320.69347  21645585.193    21645590.693
 03 12 29  0 54 30.0000000  0  7G30G21G17G24G 5G10G 6
  20213487.623   -25294745.23749 -19432545.98348  20213487.814    20213492.305
  23473427.472   -14295858.41149 -11117089.13146  23473426.865    23473432.255
  20789239.953   -25012894.49049 -19462086.25848  20789239.379    20789245.146
  22867556.905   -15122423.75549 -11757423.31646  22867556.710    22867562.944
  21466660.583   -20155228.30549 -14987848.15447  21466659.991    21466665.821
  21013773.666   -23502122.12149 -18298915.05847  21013772.828    21013778.584
  21634826.941   -21465749.75949 -16278374.66647  21634826.751    21634832.256
 03 12 29  0 55  0.0000000  0  7G30G21G17G24G 5G10G 6
  20215310.735   -25285164.55649 -19425080.51348  20215310.951    20215315.414
  23457984.595   -14377011.22149 -11180325.01646  23457983.975    23457989.301
  20794980.396   -24982728.25649 -19438580.09448  20794979.825    20794985.577
  22883064.114   -15040932.83749 -11693923.88446  22883063.905    22883070.093
  21481655.835   -20076427.75949 -14926445.15747  21481655.230    21481661.116
  21013868.997   -23501620.91949 -18298524.48847  21013868.162    21013873.881
  21624092.909   -21522157.42349 -16322328.66547  21624092.722    21624098.188
 03 12 29  0 55 30.0000000  0  7G30G21G17G24G 5G10G 6
  20217246.445   -25274992.42349 -19417154.17048  20217246.632    20217251.109
  23442579.482   -14457965.20349 -11243405.97346  23442578.911    23442584.245
  20800778.622   -24952258.39049 -19414837.33648  20800778.041    20800783.774
  22898584.380   -14959373.51749 -11630371.14846  22898584.120    22898590.319
  21496723.732   -19997245.33549 -14864744.58447  21496723.148    21496729.063
  21014086.105   -23500479.89449 -18297635.34947  21014085.282    21014090.981
  21613383.569   -21578435.46849 -16366181.65747  21613383.366    21613388.818
 03 12 29  0 56  0.0000000  0  7G30G21G17G24G 5G10G 6
  20219294.645   -25264228.75049 -19408766.88848  20219294.863    20219299.355
  23427212.481   -14538719.62249 -11306331.42646  23427211.879    23427217.182
  20806634.362   -24921486.30749 -19390859.07948  20806633.787    20806639.520
  22914117.367   -14877746.86249 -11566765.94746  22914117.127    22914123.274
  21511864.058   -19917682.63449 -14802747.69147  21511863.477    21511869.374
  21014424.953   -23498699.12949 -18296247.71647  21014424.117    21014429.863
  21602699.045   -21634582.56449 -16409932.61347  21602698.893    21602704.333
 03 12 29  0 56 30.0000000  0  7G30G21G17G24G 5G10G 6
  20221455.362   -25252874.12249 -19399919.12248  20221455.568    20221460.080
  23411883.308   -14619274.22149 -11369101.18146  23411882.731    23411888.045
  20812547.185   -24890414.12649 -19366646.98548  20812546.594    20812552.323
  22929662.741   -14796055.46149 -11503110.28646  22929662.475    22929668.634
  21527076.250   -19837742.18249 -14740456.44947  21527075.646    21527081.548
  21014885.443   -23496279.12049 -18294361.96847  21014884.628    21014890.327
  21592039.580   -21690598.29449 -16453581.20247  21592039.392    21592044.835
 03 12 29  0 57  0.0000000  0  7G30G21G17G24G 5G10G 6
  20223728.673   -25240928.00749 -19390610.45648  20223728.864    20223733.362
  23396592.396   -14699627.58749 -11431714.13346  23396591.866    23396597.155
  20818517.044   -24859042.36549 -19342201.45248  20818516.451    20818522.190
  22945220.245   -14714299.73049 -11439404.49446  22945220.025    22945226.197
  21542359.940   -19757425.62249 -14677872.13347  21542359.385    21542365.301
  21015467.635   -23493219.59949 -18291977.89747  21015466.785    21015472.512
  21581405.470   -21746480.91849 -16497126.07747  21581405.274    21581410.713
 03 12 29  0 57 30.0000000  0  7G30G21G17G24G 5G10G 6
  20226114.361   -25228390.89549 -19380841.27048  20226114.572    20226119.066
  23381339.991   -14779779.77849 -11494170.32546  23381339.436    23381344.597
  20824543.605   -24827372.59149 -19317523.70548  20824543.019    20824548.746
  22960789.644   -14632481.69949 -11375650.16746  22960789.436    22960795.642
  21557714.832   -19676735.56149 -14614996.77647  21557714.225    21557720.159
  21016171.469   -23489520.65049 -18289095.57347  21016170.648    21016176.362
  21570796.773   -21802229.62349 -16540566.59747  21570796.568    21570802.040
 03 12 29  0 58  0.0000000  0  7G30G21G17G24G 5G10G 6
  20228612.396   -25215263.69249 -19370612.27148  20228612.603    20228617.100
  23366125.900   -14859730.77549 -11556469.74646  23366125.238    23366130.447
  20830626.367   -24795407.36749 -19292615.73248  20830625.778    20830631.506
  22976370.525   -14550603.67749 -11311849.08646  22976370.300    22976376.566
  21573140.103   -19595675.21049 -14551832.88147  21573139.516    21573145.471
  21016996.861   -23485183.17549 -18285715.69647  21016996.016    21017001.711
  21560213.674   -21857844.00849 -16583902.45647  21560213.475    21560218.896
 03 12 29  0 58 30.0000000  0  7G30G21G17G24G 5G10G 6
  20231222.908   -25201545.33949 -19359922.63748  20231223.116    20231227.615
  23350950.111   -14939478.94149 -11618611.12646  23350949.554    23350954.866
  20836765.386   -24763146.63649 -19267477.49548  20836764.788    20836770.522
  22991962.579   -14468666.26149 -11248001.72146  22991962.395    22991968.717
  21588635.709   -19514245.23049 -14488380.96547  21588635.129    21588641.074
  21017943.958   -23480206.24849 -18281837.54147  21017943.111    21017948.781
  21549656.496   -21913322.02349 -16627132.04347  21549656.293    21549661.748
 03 12 29  0 59  0.0000000  0  7G30G21G17G24G 5G10G 6
  20233945.838   -25187236.29549 -19348772.73248  20233946.041    20233950.535
  23335813.010   -15019024.23149 -11680594.42346  23335812.573    23335817.831
  20842960.236   -24730592.30449 -19242110.47648  20842959.649    20842965.409
  23007565.801   -14386670.61149 -11184108.97746  23007565.614    23007571.964
  21604201.316   -19432447.75249 -14424642.68647  21604200.703    21604206.623
  21019012.680   -23474590.07749 -18277461.27647  21019011.821    21019017.467
  21539125.520   -21968662.64849 -16670254.58147  21539125.314    21539130.799
 03 12 29  0 59 30.0000000  0  7G30G21G17G24G 5G10G 6
  20236780.982   -25172337.47849 -19337163.26248  20236781.188    20236785.667
  23320714.850   -15098366.32949 -11742419.37546  23320714.295    23320719.526
  20849210.536   -24697746.46549 -19216516.31148  20849209.972    20849215.717
  23023179.658   -14304619.13449 -11120172.75046  23023179.444    23023185.837
  21619836.112   -19350286.24849 -14360620.74747  21619835.559    21619841.464
  21020202.826   -23468335.76049 -18272587.75247  21020201.957    21020207.603
  21528620.651   -22023865.63749 -16713269.86247  21528620.456    21528626.001
 03 12 29  1  0  0.0000000  0  7G30G21G17G24G 5G10G 6
  20239728.311   -25156849.06649 -19325094.37148  20239728.517    20239733.011
  23305655.199   -15177504.50149 -11804085.43646  23305654.691    23305660.076
  20855516.149   -24664610.47649 -19190696.05348  20855515.567    20855521.285
  23038803.858   -14222513.37549 -11056194.22046  23038803.648    23038810.043
  21635539.886   -19267762.62649 -14296316.64347  21635539.298    21635545.168
  21021514.317   -23461443.70149 -18267217.28947  21021513.469    21021519.141
  21518142.335   -22078929.66949 -16756176.86747  21518142.130    21518147.661
 03 12 29  1  0 30.0000000  0  7G30G21G17G24G 5G10G 6
  20242787.909   -25140770.84549 -19312565.89048  20242788.099    20242792.590
  23290634.532   -15256437.94349 -11865591.96246  23290634.040    23290639.546
  20861876.745   -24631185.08749 -19164650.29048  20861876.184    20861881.884
  23054438.204   -14140354.15949 -10992174.04346  23054438.005    23054444.423
  21651312.238   -19184878.51749 -14231731.63547  21651311.649    21651317.486
  21022947.241   -23453913.31549 -18261349.43047  21022946.387    21022952.075
  21507690.702   -22133853.18849 -16798974.38047  21507690.486    21507696.030
 03 12 29  1  1  0.0000000  0  7G30G21G17G24G 5G10G 6
  20245959.625   -25124103.31349 -19299578.20248  20245959.834    20245964.317
  23275652.895   -15335166.37249 -11926938.75346  23275652.421    23275657.909
  20868292.074   -24597472.22349 -19138380.51648  20868291.502    20868297.236
  23070082.451   -14058143.22149 -10928113.55146  23070082.224    23070088.607
  21667152.638   -19101636.70449 -14166867.89647  21667152.023    21667157.873
  21024501.601   -23445745.13849 -18254984.58647  21024500.711    21024506.411
  21497266.004   -22188635.22749 -16841661.64947  21497265.823    21497271.305
 03 12 29  1  1 30.0000000  0  7G30G21G17G24G 5G10G 6
  20249243.407   -25106846.84249 -19286131.60448  20249243.610    20249248.069
  23260710.589   -15413689.22749 -11988125.33646  23260710.085    23260715.444
  20874761.832   -24563473.18649 -19111887.75348  20874761.283    20874767.025
  23085736.201   -13975881.94449 -10864013.83646  23085735.988    23085742.414
  21683060.669   -19018039.33249 -14101727.10447  21683060.070    21683065.951
  21026177.150   -23436939.68849 -18248123.16547  21026176.281    21026181.994
  21486868.478   -22243274.59149 -16884237.73647  21486868.290    21486873.772
 03 12 29  1  2  0.0000000  0  7G30G21G17G24G 5G10G 6
  20252639.109   -25089002.52049 -19272226.94048  20252639.310    20252643.760
  23245807.253   -15492007.07249 -12049152.17546  23245806.673    23245811.971
  20881285.665   -24529190.17349 -19085173.70748  20881285.107    20881290.863
  23101399.129   -13893572.32449 -10799876.46846  23101398.964    23101405.353
  21699035.868   -18934089.29849 -14036311.50747  21699035.260    21699041.136
  21027973.818   -23427497.81549 -18240765.83847  21027972.957    21027978.711
  21476498.220   -22297770.85549 -16926702.32547  21476498.030    21476503.413
 03 12 29  1  2 30.0000000  0  7G30G21G17G24G 5G10G 6
  20256146.681   -25070570.09749 -19257864.01248  20256146.851    20256151.334
  23230943.228   -15570117.89449 -12110017.70046  23230942.674    23230947.917
  20887863.421   -24494623.77449 -19058238.83648  20887862.873    20887868.616
  23117071.096   -13811215.45449 -10735702.26546  23117070.955    23117077.398
  21715077.833   -18849788.13249 -13970622.30247  21715077.225    21715083.133
  21029891.681   -23417419.31949 -18232912.43647  21029890.829    21029896.530
  21466155.514   -22352122.14749 -16969053.94147  21466155.290    21466160.682
 03 12 29  1  3  0.0000000  0  7G30G21G17G24G 5G10G 6
  20259766.088   -25051549.84749 -19243043.03748  20259766.286    20259770.766
  23216118.470   -15648021.66549 -12170721.89946  23216117.986    23216123.260
  20894494.841   -24459775.58949 -19031084.39248  20894494.273    20894499.982
  23132751.883   -13728812.65549 -10671492.29546  23132751.689    23132758.111
  21731186.192   -18765138.11949 -13904661.27747  21731185.573    21731191.478
  21031930.570   -23406704.68249 -18224563.34647  21031929.728    21031935.432
  21455840.517   -22406327.50449 -17011291.84547  21455840.331    21455845.679
 03 12 29  1  3 30.0000000  0  7G30G21G17G24G 5G10G 6
  20263497.312   -25031942.14349 -19227764.30748  20263497.503    20263502.009
  23201333.435   -15725717.71649 -12231264.21246  23201332.872    23201338.143
  20901179.617   -24424646.93149 -19003711.39548  20901179.045    20901184.746
  23148441.093   -13646365.19649 -10607247.50146  23148440.878    23148447.281
  21747360.535   -18680141.49049 -13838430.15547  21747359.936    21747365.819
  21034090.501   -23395354.19849 -18215718.79147  21034089.643    21034095.324
  21445553.632   -22460385.39449 -17053414.83547  21445553.403    21445558.780
 03 12 29  1  4  0.0000000  0  7G30G21G17G24G 5G10G 6
  20267340.194   -25011747.72849 -19212028.40348  20267340.382    20267344.883
  23186587.881   -15803205.69949 -12291644.40946  23186587.420    23186592.643
  20907917.384   -24389239.48249 -18976121.15947  20907916.821    20907922.561
  23164138.398   -13563874.68349 -10542969.18846  23164138.181    23164144.686
  21763600.317   -18594800.98449 -13771931.08047  21763599.694    21763605.627
  21036371.237   -23383368.50349 -18206379.26747  21036370.404    21036376.059
  21435294.850   -22514295.12449 -17095422.38047  21435294.664    21435300.053
 03 12 29  1  4 30.0000000  0  7G30G21G17G24G 5G10G 6
  20271294.648   -24990966.95049 -19195835.58448  20271294.844    20271299.309
  23171882.103   -15880485.09749 -12351862.06846  23171881.610    23171886.836
  20914707.897   -24353554.76149 -18948314.86447  20914707.340    20914713.117
  23179843.779   -13481342.47349 -10478658.36746  23179843.598    23179850.017
  21779905.127   -18509118.70749 -13705165.68847  21779904.476    21779910.447
  21038772.806   -23370748.19649 -18196545.23747  21038771.931    21038777.600
  21425064.576   -22568055.47649 -17137313.53047  21425064.377    21425069.761
 03 12 29  1  5  0.0000000  0  7G30G21G17G24G 5G10G 6
  20275360.568   -24969600.62149 -19179186.49848  20275360.750    20275365.215
  23157216.055   -15957555.82749 -12411917.11846  23157215.453    23157220.626
  20921550.972   -24317594.07949 -18920293.54047  20921550.412    20921556.214
  23195556.792   -13398770.42249 -10414316.49046  23195556.550    23195562.930
  21796274.401   -18423097.15949 -13638135.92847  21796273.843    21796279.826
  21041294.987   -23357494.15449 -18186217.38747  21041294.125    21041299.765
  21414862.904   -22621665.49449 -17179087.53947  21414862.689    21414868.063
 03 12 29  1  5 30.0000000  0  7G30G21G17G24G 5G10G 6
  20279537.793   -24947648.94349 -19162081.29448  20279537.988    20279542.474
  23142589.644   -16034417.40949 -12471809.20046  23142589.089    23142594.261
  20928446.226   -24281358.98549 -18892058.38447  20928445.689    20928451.477
  23211277.154   -13316159.18449 -10349944.07946  23211276.977    23211283.294
  21812708.062   -18336738.21449 -13570843.27047  21812707.447    21812713.394
  21043937.719   -23343606.32649 -18175395.67847  21043936.826    21043942.478
  21404690.128   -22675123.62649 -17220743.19247  21404689.922    21404695.297
 03 12 29  1  6  0.0000000  0  7G30G21G17G24G 5G10G 6
  20283826.293   -24925112.51649 -19144520.44348  20283826.489    20283830.987
  23128003.278   -16111068.72949 -12531537.45246  23128002.757    23128007.963
  20935393.487   -24244850.78049 -18863610.41647  20935392.949    20935398.743
  23227004.730   -13233510.17549 -10285542.23746  23227004.559    23227010.955
  21829205.355   -18250044.53749 -13503289.76847  21829204.766    21829210.670
  21046700.899   -23329085.33049 -18164080.59347  21046700.063    21046705.719
  21394546.476   -22728428.73149 -17262279.60447  21394546.254    21394551.631
 03 12 29  1  6 30.0000000  0  7G30G21G17G24G 5G10G 6
  20288225.945   -24901992.21749 -19126504.62348  20288226.163    20288230.630
  23113457.088   -16187509.82849 -12591101.88846  23113456.498    23113461.674
  20942392.444   -24208071.09049 -18834950.90147  20942391.904    20942397.686
  23242739.168   -13150825.21249 -10221112.39246  23242738.937    23242745.376
  21845765.806   -18163018.84649 -13435477.56447  21845765.191    21845771.067
  21049584.462   -23313932.22449 -18152272.95047  21049583.587    21049589.258
  21384432.107   -22781579.95349 -17303696.10747  21384431.896    21384437.270
 03 12 29  1  7  0.0000000  0  7G30G21G17G24G 5G10G 6
  20292736.620   -24878288.50349 -19108034.19548  20292736.811    20292741.269
  23098950.820   -16263740.28349 -12650502.19146  23098950.279    23098955.406
  20949442.788   -24171021.41849 -18806081.01147  20949442.233    20949448.002
  23258480.191   -13068105.51249 -10156655.46246  23258479.989    23258486.440
  21862389.115   -18075662.73149 -13367407.88147  21862388.513    21862394.358
  21052588.153   -23298147.37949 -18139973.04647  21052587.287    21052592.966
  21374347.298   -22834575.87749 -17344991.59647  21374347.068    21374352.463
 03 12 29  1  7 30.0000000  0  7G30G21G17G24G 5G10G 6
  20297358.140   -24854002.03349 -19089109.66848  20297358.351    20297362.812
  23084484.736   -16339759.90249 -12709738.19846  23084484.244    23084489.312
  20956544.212   -24133703.17449 -18777001.84247  20956543.637    20956549.384
  23274227.606   -12985352.43549 -10092172.53046  23274227.407    23274233.789
  21879074.789   -17987979.02649 -13299082.93047  21879074.192    21879080.042
  21055711.951   -23281731.64549 -18127181.53747  21055711.075    21055716.719
  21364292.202   -22887415.48549 -17386165.28547  21364291.969    21364297.368
 03 12 29  1  8  0.0000000  0  7G30G21G17G24G 5G10G 6
  20302090.578   -24829133.12149 -19069731.29448  20302090.785    20302095.222
  23070058.983   -16415567.86149 -12768809.28746  23070058.471    23070063.478
  20963696.506   -24096117.53049 -18747714.31247  20963695.925    20963701.678
  23289981.116   -12902567.27549 -10027664.60046  23289980.871    23289987.293
  21895822.417   -17899969.80349 -13230504.33147  21895821.808    21895827.665
  21058955.744   -23264685.48849 -18113898.79247  21058954.859    21058960.483
  21354267.215   -22940097.16149 -17427215.91247  21354267.008    21354272.346
 03 12 29  1  8 30.0000000  0  7G30G21G17G24G 5G10G 6
  20306933.597   -24803682.88949 -19049899.93848  20306933.792    20306938.269
  23055673.583   -16491163.71149 -12827715.08846  23055673.079    23055678.007
  20970899.382   -24058266.13249 -18718219.70047  20970898.799    20970904.568
  23305740.496   -12819751.19249  -9963132.55846  23305740.292    23305746.669
  21912631.470   -17811637.98549 -13161674.35747  21912630.851    21912636.728
  21062319.240   -23247009.92949 -18100125.60147  21062318.361    21062324.022
  21344272.477   -22992619.84549 -17468142.64547  21344272.248    21344277.566
 03 12 29  1  9  0.0000000  0  7G30G21G17G24G 5G10G 6
  20311887.108   -24777651.99249 -19029616.12248  20311887.303    20311891.802
  23041328.622   -16566547.00949 -12886455.27446  23041328.031    23041332.967
  20978152.553   -24020150.36749 -18688519.09147  20978151.988    20978157.712
  23321505.506   -12736905.63149  -9898577.56646  23321505.287    23321511.644
  21929501.427   -17722985.64549 -13092594.62947  21929500.823    21929506.717
  21065802.412   -23228705.77549 -18085862.59847  21065801.519    21065807.166
  21334308.223   -23044982.38649 -17508944.59647  21334307.996    21334313.256
 03 12 29  1  9 30.0000000  0  7G30G21G17G24G 5G10G 6
  20316950.957   -24751041.17949 -19008880.42348  20316951.167    20316955.641
  23027024.024   -16641717.37049 -12945029.53546  23027023.483    23027028.436
  20985455.745   -23981771.80149 -18658613.70247  20985455.162    20985460.894
  23337275.872   -12654031.74949  -9834000.47246  23337275.640    23337282.002
  21946431.942   -17634015.24149 -13023267.05547  21946431.342    21946437.224
  21069404.985   -23209773.72749 -18071110.32747  21069404.125    21069409.772
  21324374.610   -23097183.58249 -17549620.81547  21324374.383    21324379.664
 03 12 29  1 10  0.0000000  0  7G30G21G17G24G 5G10G 6
  20322125.138   -24723850.80449 -18987693.12148  20322125.335    20322129.809
  23012760.151   -16716674.45049 -13003437.60546  23012759.598    23012764.588
  20992808.714   -23943131.84949 -18628504.63547  20992808.121    20992813.838
  23353051.402   -12571130.87749  -9769402.37246  23353051.199    23353057.491
  21963422.548   -17544729.29349 -12953693.60647  21963421.939    21963427.779
  21073127.057   -23190214.08249 -18055869.01947  21073126.218    21073131.840
  21314471.967   -23149222.06549 -17590170.25347  21314471.758    21314476.990
 03 12 29  1 10 30.0000000  0  7G30G21G17G24G 5G10G 6
  20327409.298   -24696082.33149 -18966055.35048  20327409.497    20327413.984
  22998536.845   -16791417.89849 -13061679.21246  22998536.325    22998541.370
  21000211.135   -23904231.94849 -18598193.01047  21000210.547    21000216.226
  23368831.658   -12488204.68549  -9704784.52846  23368831.405    23368837.727
  21980472.702   -17455130.54249 -12883876.42247  21980472.026    21980477.899
  21076968.267   -23170028.18349 -18040139.72047  21076967.399    21076973.050
  21304600.524   -23201096.77349 -17630592.06747  21304600.292    21304605.575
 03 12 29  1 11  0.0000000  0  7G30G21G17G24G 5G10G 6
  20332803.539   -24667735.36349 -18943966.80448  20332803.743    20332808.247
  22984354.438   -16865946.67049 -13119753.53446  22984353.893    22984358.888
  21007662.850   -23865072.82449 -18567679.39447  21007662.258    21007667.957
  23384616.738   -12405253.46449  -9640147.19146  23384616.477    23384622.771
  21997582.029   -17365219.76749 -12813816.08947  21997581.461    21997587.355
  21080928.638   -23149216.14749 -18023922.52347  21080927.798    21080933.445
  21294760.619   -23252805.63949 -17670884.66247  21294760.374    21294765.646
 03 12 29  1 11 30.0000000  0  7G30G21G17G24G 5G10G 6
  20338307.391   -24638812.33249 -18921429.37848  20338307.583    20338312.095
  22970212.787   -16940261.65649 -13177661.27346  22970212.223    22970217.117
  21015163.370   -23825657.00849 -18536965.75747  21015162.796    21015168.504
  23400406.106   -12322279.80749  -9575492.34746  23400405.836    23400412.084
  22014750.030   -17275001.28949 -12743516.00047  22014749.426    22014755.417
  21085007.793   -23127780.12449 -18007219.09947  21085006.934    21085012.579
  21284952.180   -23304348.94849 -17711048.24447  21284951.954    21284957.278
 03 12 29  1 12  0.0000000  0  7G30G21G17G24G 5G10G 6
  20343920.892   -24609313.19649 -18898443.03448  20343921.087    20343925.612
  22956111.873   -17014361.59849 -13235401.45446  22956111.335    22956116.336
  21022712.562   -23785985.68649 -18506053.02747  21022711.999    21022717.709
  23416199.516   -12239284.34149  -9510820.52346  23416199.272    23416205.597
  22031976.387   -17184476.51349 -12672977.23247  22031975.741    22031981.754
  21089205.558   -23105720.58249 -17990029.81847  21089204.707    21089210.348
  21275175.633   -23355724.76549 -17751081.31247  21275175.403    21275180.757
 03 12 29  1 12 30.0000000  0  7G30G21G17G24G 5G10G 6
  20349643.919   -24579238.45849 -18875008.16848  20349644.134    20349648.636
  22942052.030   -17088246.00349 -13292973.68146  22942051.548    22942056.585
  21030310.258   -23746059.65549 -18474941.82147  21030309.690    21030315.366
  23431997.060   -12156267.80549  -9446132.30446  23431996.816    23432003.140
  22049260.488   -17093647.82149 -12602201.65147  22049259.845    22049265.903
  21093521.900   -23083037.66449 -17972354.79647  21093521.059    21093526.727
  21265431.396   -23406931.07849 -17790982.30347  21265431.178    21265436.524
 03 12 29  1 13  0.0000000  0  7G30G21G17G24G 5G10G 6
  20355476.155   -24548589.96549 -18851126.21748  20355476.347    20355480.853
  22928033.314   -17161915.25749 -13350378.25046  22928032.783    22928037.709
  21037955.949   -23705881.25649 -18443633.95947  21037955.386    21037961.034
  23447798.145   -12073232.48549  -9381429.42446  23447797.867    23447804.229
  22066601.719   -17002518.57449 -12531191.87047  22066601.130    22066607.188
  21097956.533   -23059733.50149 -17954195.68647  21097955.699    21097961.321
  21255719.424   -23457967.65549 -17830751.03347  21255719.212    21255724.547
 03 12 29  1 13 30.0000000  0  7G30G21G17G24G 5G10G 6
  20361417.426   -24517368.36049 -18826797.69048  20361417.614    20361422.144
  22914055.584   -17235368.30849 -13407614.36346  22914055.100    22914060.001
  21045649.483   -23665451.55649 -18412130.28447  21045648.901    21045654.533
  23463602.564   -11990179.22249  -9316712.56246  23463602.326    23463608.699
  22083999.893   -16911090.76549 -12459949.43847  22083999.266    22084005.313
  21102509.226   -23035808.87149 -17935553.09347  21102508.368    21102514.001
  21246040.081   -23508832.88149 -17870386.23847  21246039.853    21246045.182
 03 12 29  1 14  0.0000000  0  7G30G21G17G24G 5G10G 6
  20367467.636   -24485574.17249 -18802022.99248  20367467.815    20367472.347
  22900119.063   -17308604.96049 -13464681.84746  22900118.588    22900123.494
  21053390.614   -23624771.64149 -18380431.63247  21053390.011    21053395.643
  23479410.296   -11907108.64749  -9251982.21446  23479410.102    23479416.442
  22101454.448   -16819366.38549 -12388475.90947  22101453.852    22101459.900
  21107179.874   -23011264.27149 -17916427.40747  21107179.034    21107184.654
  21236393.682   -23559525.01949 -17909886.56847  21236393.451    21236398.729
 03 12 29  1 14 30.0000000  0  7G30G21G17G24G 5G10G 6
  20373626.517   -24453209.13249 -18776803.47748  20373626.702    20373631.226
  22886223.764   -17381625.56349 -13521580.98046  22886223.257    22886228.054
  21061178.944   -23583843.66549 -18348539.68547  21061178.360    21061183.992
  23495220.986   -11824022.91449  -9187240.05346  23495220.777    23495227.144
  22118964.828   -16727348.92549 -12316774.01347  22118964.220    22118970.313
  21111968.174   -22986101.56549 -17896820.07947  21111967.299    21111972.900
  21226780.279   -23610043.61849 -17949251.67347  21226780.036    21226785.315
 03 12 29  1 15  0.0000000  0  7G30G21G17G24G 5G10G 6
  20379893.848   -24420274.04449 -18751139.77248  20379894.023    20379898.572
  22872369.666   -17454429.53549 -13578311.31446  22872369.068    22872373.899
  21069014.228   -23542668.93149 -18316455.46347  21069013.625    21069019.273
  23511034.369   -11740922.97449  -9122486.80846  23511034.160    23511040.428
  22136530.511   -16635040.49849 -12244845.38647  22136529.879    22136536.037
  21116873.922   -22960321.49749 -17876731.68947  21116873.063    21116878.671
  21217200.135   -23660387.36349 -17988480.53547  21217199.918    21217205.195
 03 12 29  1 15 30.0000000  0  7G30G21G17G24G 5G10G 6
  20386269.607   -24386769.32149 -18725032.19348  20386269.769    20386274.316
  22858556.860   -17527015.85649 -13634872.05246  22858556.291    22858561.163
  21076896.240   -23501248.51749 -18284179.79947  21076895.639    21076901.260
  23526850.385   -11657809.39649  -9057722.94646  23526850.170    23526856.352
  22154151.151   -16542443.13049 -12172691.59947  22154150.581    22154156.734
  21121897.006   -22933924.75449 -17856162.77147  21121896.185    21121901.778
  21207653.647   -23710554.28849 -18027571.61347  21207653.417    21207658.692
 03 12 29  1 16  0.0000000  0  7G30G21G17G24G 5G10G 6
  20392753.307   -24352697.01849 -18698482.34448  20392753.500    20392758.050
  22844785.451   -17599385.01949 -13691263.56846  22844784.835    22844789.736
  21084824.672   -23459584.28049 -18251714.14247  21084824.060    21084829.707
  23542668.533   -11574684.42749  -8992950.21446  23542668.360    23542674.548
  22171826.317   -16449559.87549 -12100315.05347  22171825.694    22171831.860
  21127037.138   -22906913.14649 -17835114.74147  21127036.297    21127041.897
  21198140.942   -23760543.80649 -18066524.45247  21198140.723    21198145.967
 03 12 29  1 16 30.0000000  0  7G30G21G17G24G 5G10G 6
  20399344.888   -24318057.91749 -18671490.84348  20399345.077    20399349.623
  22831055.504   -17671536.40549 -13747485.39546  22831054.900    22831059.777
  21092799.222   -23417677.59949 -18219059.56747  21092798.599    21092804.256
  23558488.759   -11491548.78649  -8928169.16446  23558488.548    23558494.764
  22189555.492   -16356392.95349 -12027717.47147  22189554.851    22189560.990
  21132294.044   -22879287.77549 -17813588.45247  21132293.208    21132298.802
  21188662.293   -23810354.32949 -18105337.81447  21188662.065    21188667.292
 03 12 29  1 17  0.0000000  0  7G30G21G17G24G 5G10G 6
  20406044.189   -24282852.76749 -18644058.26248  20406044.369    20406048.943
  22817367.088   -17743469.70249 -13803537.27946  22817366.506    22817371.399
  21100819.667   -23375529.67249 -18186217.01247  21100819.057    21100824.695
  23574310.781   -11408403.50749  -8863380.62446  23574310.545    23574316.724
  22207338.081   -16262944.80649 -11954900.75547  22207337.420    22207343.574
  21137667.577   -22851049.57549 -17791584.63847  21137666.738    21137672.313
  21179217.993   -23859984.41149 -18144010.57847  21179217.763    21179222.957
 03 12 29  1 17 30.0000000  0  7G30G21G17G24G 5G10G 6
  20412851.057   -24247082.40949 -18616185.25248  20412851.257    20412855.816
  22803720.228   -17815184.09649 -13859418.57946  22803719.634    22803724.576
  21108885.786   -23333141.75449 -18153187.44347  21108885.183    21108890.837
  23590134.321   -11325249.64349  -8798585.35346  23590134.140    23590140.354
  22225173.702   -16169217.93849 -11881866.84247  22225173.073    22225179.284
  21143157.581   -22822199.56849 -17769104.08047  21143156.717    21143162.270
  21169808.292   -23909432.52049 -18182541.53847  21169808.077    21169813.263
 03 12 29  1 18  0.0000000  0  7G30G21G17G24G 5G10G 6
  20419765.285   -24210748.03449 -18587872.75848  20419765.451    20419769.998
  22790115.052   -17886679.38549 -13915129.15846  22790114.512    22790119.352
  21116997.354   -23290515.04549 -18119971.80747  21116996.767    21117002.405
  23605959.420   -11242088.18649  -8733784.19946  23605959.284    23605965.412
  22243061.984   -16075214.51249 -11808617.43147  22243061.369    22243067.530
  21148763.738   -22792738.77049 -17746147.58547  21148762.876    21148768.430
  21160433.512   -23958697.16049 -18220929.54147  21160433.297    21160438.481
 03 12 29  1 18 30.0000000  0  7G30G21G17G24G 5G10G 6
  20426786.508   -24173851.02449 -18559121.83748  20426786.700    20426791.296
  22776551.622   -17957955.54049 -13970668.97546  22776551.092    22776555.900
  21125154.051   -23247651.23349 -18086571.41247  21125153.461    21125159.101
  23621785.648   -11158920.38149  -8668978.09246  23621785.529    23621791.661
  22261002.257   -15980937.45749 -11735154.80347  22261001.699    22261007.849
  21154485.860   -22762668.86449 -17722716.46247  21154484.985    21154490.544
  21151093.827   -24007777.25149 -18259173.73547  21151093.643    21151098.807
 03 12 29  1 19  0.0000000  0  7G30G21G17G24G 5G10G 6
  20433914.580   -24136392.65549 -18529933.49748  20433914.765    20433919.371
  22763029.915   -18029012.41649 -14026037.93146  22763029.393    22763034.215
  21133355.588   -23204551.92849 -18052987.51447  21133354.983    21133360.632
  23637612.796   -11075747.52749  -8604168.04746  23637612.712    23637618.916
  22278994.382   -15886389.14849 -11661480.81147  22278993.704    22278999.804
  21160323.588   -22731991.09449 -17698811.68247  21160322.733    21160328.326
  21141789.585   -24056671.44649 -18297273.08047  21141789.364    21141794.526
 03 12 29  1 19 30.0000000  0  7G30G21G17G24G 5G10G 6
  20441149.274   -24098374.14549 -18500308.68448  20441149.457    20441154.065
  22749550.033   -18099849.60149 -14081235.69546  22749549.554    22749554.387
  21141601.644   -23161218.42849 -18019221.13347  21141601.034    21141606.692
  23653440.830   -10992570.84849  -8539355.02746  23653440.664    23653446.871
  22297037.350   -15791572.59149 -11587597.79447  22297036.713    22297042.791
  21166276.765   -22700706.98249 -17674434.43147  21166275.892    21166281.451
  21132520.918   -24105378.47349 -18335226.57547  21132520.710    21132525.880
 03 12 29  1 20  0.0000000  0  7G30G21G17G24G 5G10G 6
  20448490.191   -24059797.12249 -18470248.66848  20448490.395    20448495.008
  22736112.082   -18170467.23749 -14136262.37646  22736111.507    22736116.241
  21149891.908   -23117652.71549 -17985273.80047  21149891.295    21149896.950
  23669269.385   -10909391.64149  -8474540.00046  23669269.147    23669275.340
  22315130.893   -15696490.24049 -11513507.66447  22315130.297    22315136.366
  21172344.994   -22668818.02449 -17649585.86847  21172344.121    21172349.673
  21123288.064   -24153897.45249 -18373033.53447  21123287.842    21123292.964
 03 12 29  1 20 30.0000000  0  7G30G21G17G24G 5G10G 6
  20455937.360   -24020662.10749 -18439753.86048  20455937.569    20455942.158
  22722715.808   -18240864.34149 -14191117.21646  22722715.242    22722720.033
  21158226.260   -23073855.30649 -17951145.93247  21158225.635    21158231.312
  23685098.228   -10826210.48749  -8409723.50146  23685097.998    23685104.148
  22333274.658   -15601144.22949 -11439212.08746  22333274.056    22333280.053
  21178528.137   -22636325.00149 -17624266.60847  21178527.271    21178532.854
  21114091.375   -24202226.27949 -18410692.33047  21114091.149    21114096.265
 03 12 29  1 21  0.0000000  0  7G30G21G17G24G 5G10G 6
  20463490.413   -23980970.54449 -18408825.37148  20463490.620    20463495.206
  22709361.609   -18311040.89749 -14245800.20046  22709361.057    22709365.894
  21166604.373   -23029827.76049 -17916838.72847  21166603.785    21166609.452
  23700927.238   -10743028.58349  -8344906.40445  23700926.990    23700933.091
  22351468.182   -15505536.94849 -11364712.92446  22351467.481    22351473.508
  21184826.007   -22603229.38749 -17598477.78947  21184825.141    21184830.698
  21104931.058   -24250363.79549 -18448202.04647  21104930.850    21104935.956
 03 12 29  1 21 30.0000000  0  7G30G21G17G24G 5G10G 6
  20471149.036   -23940724.11049 -18377464.52048  20471149.248    20471153.826
  22696049.483   -18380996.81749 -14300311.26446  22696048.893    22696053.761
  21175025.944   -22985571.92549 -17882353.64347  21175025.375    21175031.047
  23716756.080   -10659847.26949  -8280089.76145  23716755.832    23716761.873
  22369710.773   -15409671.23349 -11290012.37746  22369710.172    22369716.178
  21191238.185   -22569532.98149 -17572220.82747  21191237.322    21191242.883
  21095807.431   -24298308.84249 -18485561.79147  21095807.227    21095812.308
 03 12 29  1 22  0.0000000  0  7G30G21G17G24G 5G10G 6
  20478913.174   -23899923.39349 -18345671.75448  20478913.383    20478917.948
  22682779.407   -18450731.30949 -14354649.77346  22682778.829    22682783.668
  21183490.826   -22941088.44149 -17847691.16747  21183490.255    21183495.936
  23732584.657   -10576667.10649  -8215273.99445  23732584.414    23732590.471
  22388002.191   -15313548.99249 -11215111.94346  22388001.579    22388007.651
  21197764.541   -22535236.63849 -17545496.37747  21197763.693    21197769.242
  21086720.758   -24346059.39849 -18522769.98247  21086720.547    21086725.609
 03 12 29  1 22 30.0000000  0  7G30G21G17G24G 5G10G 6
  20486782.453   -23858570.26349 -18313448.53248  20486782.646    20486787.224
  22669551.448   -18520244.45049 -14408815.80646  22669550.887    22669555.551
  21191998.708   -22896379.27549 -17812852.83447  21191998.135    21192003.823
  23748412.738   -10493489.48049  -8150460.22445  23748412.466    23748418.510
  22406341.881   -15217173.31749 -11140014.02246  22406341.263    22406347.393
  21204404.714   -22500342.17649 -17518305.86047  21204403.877    21204409.434
  21077671.263   -24393614.51349 -18559825.87447  21077671.052    21077676.165
 03 12 29  1 23  0.0000000  0  7G30G21G17G24G 5G10G 6
  20494756.585   -23816665.83749 -18280795.73848  20494756.785    20494761.316
  22656365.654   -18589535.62949 -14462808.88046  22656365.125    22656369.832
  21200549.299   -22851445.56249 -17777839.53147  21200548.716    21200554.399
  23764240.206   -10410315.16149  -8085649.02545  23764239.900    23764246.069
  22424729.256   -15120546.85549 -11064720.68846  22424728.634    22424734.836
  21211158.424   -22464850.91649 -17490650.30747  21211157.611    21211163.157
  21068659.275   -24440972.65649 -18596728.28947  21068659.061    21068664.155
 03 12 29  1 23 30.0000000  0  7G30G21G17G24G 5G10G 6
  20502835.314   -23774211.85149 -18247714.70648  20502835.502    20502840.039
  22643222.103   -18658605.14449 -14516629.22546  22643221.594    22643226.380
  21209142.266   -22806289.07449 -17742652.63547  21209141.687    21209147.366
  23780066.763   -10327145.54649  -8020841.50245  23780066.493    23780072.769
  22443163.918   -15023672.38049 -10989234.09246  22443163.301    22443169.488
  21218025.372   -22428764.77849 -17462531.21147  21218024.537    21218030.096
  21059684.952   -24488132.84349 -18633476.44647  21059684.754    21059689.883
 03 12 29  1 24  0.0000000  0  7G30G21G17G24G 5G10G 6
  20511018.295   -23731209.83149 -18214206.63548  20511018.497    20511023.052
  22630120.662   -18727453.19249 -14570276.99746  22630120.154    22630124.947
  21217777.357   -22760911.24649 -17707293.26747  21217776.779    21217782.457
  23795892.330   -10243981.68749  -7956038.44645  23795892.007    23795898.306
  22461645.287   -14926552.31249 -10913556.13646  22461644.657    22461650.878
  21225005.309   -22392085.02149 -17433949.55047  21225004.485    21225010.020
  21050748.605   -24535093.62249 -18670069.22347  21050748.390    21050753.493
 03 12 29  1 24 30.0000000  0  7G30G21G17G24G 5G10G 6
  20519305.363   -23687660.85849 -18180272.36748  20519305.560    20519310.137
  22617061.520   -18796078.92649 -14623751.54146  22617061.015    22617065.785
  21226454.367   -22715313.22449 -17671762.32247  21226453.762    21226459.443
  23811716.509   -10160824.64849  -7891240.70345  23811716.202    23811722.491
  22480172.863   -14829189.12249 -10837688.71846  22480172.241    22480178.479
  21232097.952   -22354812.99149 -17404906.38347  21232097.095    21232102.624
  21041850.466   -24581853.47649 -18706505.43547  21041850.250    21041855.373
 03 12 29  1 25  0.0000000  0  7G30G21G17G24G 5G10G 6
  20527696.203   -23643566.72249 -18145913.29248  20527696.411    20527700.962
  22604044.765   -18864482.33049 -14677052.83546  22604044.246    22604049.043
  21235173.027   -22669496.40249 -17636060.87847  21235172.436    21235178.080
  23827539.275   -10077675.48849  -7826449.10745  23827538.908    23827545.186
  22498746.106   -14731585.36849 -10761633.86246  22498745.543    22498751.821
  21239302.867   -22316950.74249 -17375403.30147  21239302.017    21239307.535
  21032990.812   -24628411.09849 -18742784.06547  21032990.594    21032995.697
 03 12 29  1 25 30.0000000  0  7G30G21G17G24G 5G10G 6
  20536190.515   -23598928.74449 -18111130.45148  20536190.711    20536195.274
  22591070.328   -18932663.37449 -14730180.86446  22591069.788    22591074.549
  21243933.040   -22623462.11249 -17600189.97947  21243932.422    21243938.044
  23843360.364    -9994535.05149  -7761664.30745  23843360.055    23843366.300
  22517364.724   -14633743.99349 -10685393.83746  22517364.163    22517370.410
  21246619.818   -22278499.95349 -17345441.61847  21246618.982    21246624.459
  21024169.944   -24674765.12149 -18778904.04747  21024169.730    21024174.781
 03 12 29  1 26  0.0000000  0  7G30G21G17G24G 5G10G 6
  20544788.103   -23553748.24749 -18075924.86448  20544788.279    20544792.862
  22578138.273   -19000621.41349 -14783135.12446  22578137.731    22578142.495
  21252734.144   -22577211.85449 -17564150.79147  21252733.549    21252739.121
  23859179.551    -9911404.15749  -7696886.94945  23859179.304    23859185.536
  22536028.175   -14535666.98049 -10608970.20846  22536027.613    22536033.849
  21254048.545   -22239461.81049 -17315022.24947  21254047.679    21254053.110
  21015388.079   -24720913.96049 -18814864.14047  21015387.860    21015392.901
 03 12 29  1 26 30.0000000  0  7G30G21G17G24G 5G10G 6
  20553488.564   -23508026.94649 -18040297.87648  20553488.766    20553493.319
  22565248.671   -19068356.23949 -14835915.45946  22565248.164    22565252.889
  21261576.087   -22530747.01249 -17527944.40147  21261575.498    21261581.051
  23874996.766    -9828284.31349  -7632118.19745  23874996.544    23875002.632
  22554736.084   -14437357.01449 -10532365.05646  22554735.462    22554741.680
  21261588.638   -22199838.14849 -17284146.64347  21261587.769    21261593.232
  21006645.546   -24766856.14349 -18850663.20648  21006645.332    21006650.359
 03 12 29  1 27  0.0000000  0  7G30G21G17G24G 5G10G 6
  20562291.523   -23461767.08449 -18004251.23148  20562291.712    20562296.301
  22552401.546   -19135868.42249 -14888522.29946  22552401.018    22552405.702
  21270458.501   -22484069.58849 -17491572.35647  21270457.918    21270463.447
  23890811.762    -9745176.74249  -7567358.99745  23890811.446    23890817.451
  22573487.488   -14338817.44449 -10455580.98946  22573486.880    22573493.193
  21269239.717   -22159631.34549 -17252816.63747  21269238.862    21269244.317
  20997942.448   -24812591.04049 -18886300.75048  20997942.247    20997947.250
 03 12 29  1 27 30.0000000  0  7G30G21G17G24G 5G10G 6
  20571196.740   -23414969.77549 -17967785.79748  20571196.957    20571201.553
  22539596.834   -19203157.69849 -14940955.45446  22539596.282    22539600.929
  21279381.159   -22437180.57749 -17455035.44047  21279380.591    21279386.098
  23906624.116    -9662082.18549  -7502609.93945  23906623.819    23906629.669
  22592282.218   -14240050.50749 -10378619.73546  22592281.629    22592287.905
  21277001.530   -22118842.65249 -17221033.20947  21277000.659    21277006.099
  20989279.189   -24858116.83449 -18921775.36148  20989278.984    20989283.943
 03 12 29  1 28  0.0000000  0  7G30G21G17G24G 5G10G 6
  20580204.020   -23367636.21949 -17930902.50748  20580204.231    20580208.799
  22526834.580   -19270223.41149 -14993214.40846  22526834.018    22526838.753
  21288343.873   -22390081.02649 -17418334.46547  21288343.317    21288348.841
  23922433.867    -9579001.23549  -7437871.51045  23922433.544    23922439.483
  22611119.786   -14141058.55849 -10301483.17146  22611119.158    22611125.431
  21284873.827   -22077473.26349 -17188797.29247  21284872.989    21284878.396
  20980656.032   -24903431.73149 -18957085.63248  20980655.784    20980660.754
 03 12 29  1 28 30.0000000  0  8G30G29G21G17G24G 5G10G 6
  20589312.893   -23319768.94449 -17893603.32848  20589313.075    20589317.661
  24591162.833    -3862827.38649  -2807889.44345  24591162.822    24591169.133
  22514114.776   -19337066.28849 -15045299.71346  22514114.233    22514118.946
  21297346.286   -22342773.07049 -17381471.10047  21297345.714    21297351.229
  23938240.656    -9495935.68949  -7373145.08145  23938240.361    23938246.321
  22629999.556   -14041845.33649 -10224174.18346  22629998.847    22630005.061
  21292856.102   -22035526.10649 -17156111.16647  21292855.243    21292860.636
  20972073.071   -24948535.24649 -18992231.19248  20972072.836    20972077.807
 03 12 29  1 29  0.0000000  0  8G30G29G21G17G24G 5G10G 6
  20598522.755   -23271370.61449 -17855890.34348  20598522.969    20598527.547
  24577835.286    -3932864.59649  -2862463.79845  24577835.179    24577841.278
  22501437.310   -19403687.03249 -15097211.93546  22501436.749    22501441.343
  21306387.897   -22295259.10449 -17344447.20847  21306387.315    21306392.803
  23954044.249    -9412887.36049  -7308432.05445  23954043.941    23954049.841
  22648920.525   -13942414.10449 -10146695.30946  22648919.939    22648926.200
  21300947.815   -21993004.01349 -17122977.04347  21300946.951    21300952.313
  20963530.392   -24993426.92849 -19027211.69148  20963530.190    20963535.159
 03 12 29  1 29 30.0000000  0  8G30G29G21G17G24G 5G10G 6
  20607833.986   -23222439.89649 -17817762.50348  20607834.183    20607838.779
  24564527.326    -4002798.37749  -2916957.55145  24564527.232    24564533.466
  22488802.575   -19470082.72649 -15148948.79846  22488802.026    22488806.573
  21315468.980   -22247537.65549 -17307261.64047  21315468.388    21315473.870
  23969844.932    -9329854.41749  -7243731.02445  23969844.532    23969850.476
  22667883.222   -13842764.44449 -10069046.23646  22667882.661    22667888.997
  21309149.131   -21949905.56149 -17089393.80447  21309148.274    21309153.606
  20955028.934   -25038102.19949 -19062023.55848  20955028.726    20955033.668
 03 12 29  1 30  0.0000000  0  8G30G29G21G17G24G 5G10G 6
  20617246.262   -23172978.06049 -17779220.80748  20617246.457    20617251.032
  24551239.463    -4072625.22249  -2971367.99345  24551239.471    24551245.912
  22476210.787   -19536252.77449 -15200509.82746  22476210.223    22476214.777
  21324589.380   -22199609.40549 -17269914.93047  21324588.795    21324594.290
  23985642.444    -9246837.47249  -7179042.46845  23985642.095    23985648.061
  22686887.053   -13742898.67149  -9991228.75846  22686886.485    22686892.842
  21317459.844   -21906232.24949 -17055362.62547  21317459.010    21317464.339
  20946569.028   -25082559.42349 -19096665.51948  20946568.812    20946573.704
 03 12 29  1 30 30.0000000  0  8G30G29G21G17G24G 5G10G 6
  20626759.016   -23122988.18649 -17740267.65148  20626759.212    20626763.797
  24537972.609    -4142343.62849  -3025693.91445  24537972.645    24537978.840
  22463661.855   -19602197.70349 -15251895.43746  22463661.301    22463665.876
  21333748.594   -22151477.21949 -17232409.30147  21333748.034    21333753.506
  24001436.498    -9163838.93149  -7114368.24245  24001436.142    24001442.189
  22705931.365   -13642820.68549  -9913245.93046  22705930.761    22705937.059
  21325879.426   -21861987.00649 -17020885.78847  21325878.591    21325883.900
  20938150.604   -25126798.56249 -19131137.54748  20938150.370    20938155.248
 03 12 29  1 31  0.0000000  0  8G30G29G21G17G24G 5G10G 6
  20636371.944   -23072471.87549 -17700904.28648  20636372.157    20636376.727
  24524726.804    -4211950.45649  -3079932.89845  24524726.855    24524732.873
  22451155.704   -19667917.87749 -15303105.90446  22451155.149    22451159.703
  21342946.378   -22103142.41349 -17194745.79247  21342945.816    21342951.310
  24017226.854    -9080859.42549  -7049708.85545  24017226.530    24017232.678
  22725015.502   -13542533.21349  -9835099.85246  22725014.850    22725021.125
  21334407.467   -21817171.80149 -16985964.82147  21334406.598    21334411.912
  20929773.977   -25170817.95449 -19165438.34248  20929773.759    20929778.608
 03 12 29  1 31 30.0000000  0  8G30G29G21G17G24G 5G10G 6
  20646084.738   -23021430.87149 -17661132.06648  20646084.933    20646089.511
  24511502.572    -4281442.77949  -3134082.70345  24511502.521    24511508.793
  22438692.191   -19733413.63249 -15354141.50546  22438691.657    22438696.263
  21352182.515   -22054606.29749 -17156925.41747  21352181.922    21352187.416
  24033013.440    -8997900.06349  -6985065.15545  24033013.191    24033019.276
  22744138.908   -13442038.72849  -9756792.46846  22744138.330    22744144.540
  21343043.507   -21771788.63349 -16950601.28947  21343042.679    21343047.979
  20921439.422   -25214616.21849 -19199566.82748  20921439.189    20921444.056
 03 12 29  1 32  0.0000000  0  8G30G29G21G17G24G 5G10G 6
  20655897.135   -22969866.35149 -17620951.92048  20655897.340    20655901.904
  24498301.035    -4350817.21849  -3188140.66745  24498300.909    24498307.001
  22426271.654   -19798683.84649 -15405001.35846  22426271.116    22426275.711
  21361456.750   -22005869.69249 -17118948.81947  21361456.152    21361461.664
  24048796.202    -8914960.62749  -6920436.97445  24048796.005    24048802.032
  22763301.378   -13341339.49349  -9678325.54446  22763300.735    22763306.924
  21351787.464   -21725838.81649 -16914796.21247  21351786.636    21351791.937
  20913147.357   -25258191.09449 -19233521.24448  20913147.120    20913151.992
 03 12 29  1 32 30.0000000  0  8G30G29G21G17G24G 5G10G 6
  20665808.644   -22917781.34049 -17580366.19248  20665808.838    20665813.362
  24485122.356    -4420071.66649  -3242105.06545  24485122.134    24485128.450
  22413893.877   -19863729.26649 -15455686.03946  22413893.335    22413897.943
  21370768.684   -21956935.01449 -17080817.87947  21370768.085    21370773.606
  24064574.650    -8832043.66349  -6855826.32745  24064574.453    24064580.483
  22782502.023   -13240439.19849  -9599701.94646  22782501.403    22782507.642
  21360638.680   -21679325.19149 -16878551.80847  21360637.878    21360643.182
  20904897.871   -25301542.40649 -19267301.45448  20904897.630    20904902.521
 03 12 29  1 33  0.0000000  0  8G30G29G21G17G24G 5G10G 6
  20675818.846   -22865177.26849 -17539376.00447  20675819.028    20675823.557
  24471966.984    -4489202.79249  -3295973.40845  24471966.801    24471972.949
  22401558.879   -19928549.56549 -15506195.30246  22401558.364    22401562.943
  21380118.089   -21907803.25149 -17042533.36747  21380117.523    21380123.067
  24080348.754    -8749149.74249  -6791233.61245  24080348.511    24080354.638
  22801740.549   -13139339.84949  -9520923.23046  22801739.964    22801746.215
  21369596.840   -21632249.62949 -16841869.52047  21369596.027    21369601.347
  20896691.201   -25344668.48149 -19300906.16148  20896690.952    20896695.849
 03 12 29  1 33 30.0000000  0  8G30G29G21G17G24G 5G10G 6
  20685927.547   -22812055.64149 -17497982.52847  20685927.730    20685932.288
  24458835.807    -4558207.69549  -3349743.38045  24458835.392    24458841.514
  22389266.787   -19993144.73249 -15556529.12546  22389266.283    22389270.785
  21389504.794   -21858475.61649 -17004096.22947  21389504.224    21389509.791
  24096118.411    -8666279.46249  -6726659.33045  24096118.184    24096124.233
  22821016.551   -13038044.00649  -9441991.41646  22821015.959    22821022.223
  21378661.691   -21584613.64349 -16804750.54047  21378660.861    21378666.162
  20888527.708   -25387567.60349 -19334334.02448  20888527.493    20888532.378
 03 12 29  1 34  0.0000000  0  8G30G29G21G17G24G 5G10G 6
  20696134.318   -22758418.61249 -17456187.43547  20696134.494    20696139.053
  24445728.926    -4627083.31749  -3403412.66145  24445728.494    24445734.731
  22377017.661   -20057514.87649 -15606687.60847  22377017.083    22377021.560
  21398928.539   -21808953.55649 -16965507.59047  21398927.941    21398933.471
  24111883.466    -8583433.55649  -6662104.03945  24111883.181    24111889.278
  22840329.305   -12936554.61349  -9362908.78846  22840328.720    22840335.000
  21387832.657   -21536419.66949 -16767196.76647  21387831.822    21387837.108
  20880407.689   -25430238.52549 -19367584.06848  20880407.495    20880412.357
 03 12 29  1 34 30.0000000  0  8G30G29G21G17G24G 5G10G 6
  20706438.862   -22704267.92649 -17413992.09447  20706439.060    20706443.590
  24432647.615    -4695826.88149  -3456979.02944  24432647.098    24432653.098
  22364811.170   -20121659.76549 -15656670.57947  22364810.594    22364815.169
  21408389.054   -21759238.30649 -16926768.40747  21408388.441    21408393.944
  24127643.665    -8500613.00849  -6597568.51945  24127643.450    24127649.500
  22859678.371   -12834874.41149  -9283677.47046  22859677.805    22859684.042
  21397109.447   -21487669.62049 -16729209.68647  21397108.630    21397113.904
  20872331.386   -25472679.70049 -19400655.08448  20872331.176    20872336.056
 03 12 29  1 35  0.0000000  0  8G30G29G21G17G24G 5G10G 6
  20716840.762   -22649605.45749 -17371397.95847  20716840.949    20716845.497
  24419592.056    -4764435.07949  -3510439.89545  24419591.439    24419597.199
  22352647.602   -20185578.86649 -15706477.60347  22352647.074    22352651.725
  21417885.987   -21709331.25949 -16887879.77747  21417885.396    21417890.913
  24143398.901    -8417818.80349  -6533053.51445  24143398.553    24143404.674
  22879063.249   -12733005.91649  -9204299.43246  22879062.724    22879068.981
  21406491.741   -21438365.16949 -16690790.60647  21406490.885    21406496.207
  20864299.120   -25514889.45749 -19433545.77348  20864298.926    20864303.765
 03 12 29  1 35 30.0000000  0  9G30G29G21G17G24G 5G10G 6G18
  20727339.630   -22594433.55749 -17328406.86547  20727339.821    20727344.313
  24406562.083    -4832905.73649  -3563793.61645  24406561.729    24406567.618
  22340527.009   -20249272.85249 -15756109.21847  22340526.495    22340531.065
  21427419.109   -21659234.19349 -16848843.08147  21427418.517    21427424.052
  24159148.767    -8335052.45949  -6468560.22845  24159148.460    24159154.563
  22898483.464   -12630952.13349  -9124777.02146  22898482.890    22898489.154
  21415979.002   -21388509.08849 -16651941.69147  21415978.157    21415983.481
  20856311.061   -25556866.88649 -19466255.43348  20856310.846    20856315.698
  24785075.881    -3979339.43949  -2788609.66945  24785074.680    24785081.475
 03 12 29  1 36  0.0000000  0  9G30G29G21G17G24G 5G10G 6G18
  20737933.876   -22538760.50449 -17285025.26047  20737934.047    20737938.560
  24393558.111    -4901241.85249  -3617042.50045  24393557.791    24393563.595
  22328448.161   -20312747.98949 -15805570.29047  22328447.608    22328452.046
  21436986.980   -21608954.70349 -16809664.23647  21436986.373    21436991.917
  24174892.026    -8252320.60549  -6404093.80445  24174891.810    24174897.920
  22917937.283   -12528721.97649  -9045117.16346  22917936.733    22917942.901
  21425569.708   -21338109.67349 -16612669.38947  21425568.847    21425574.144
  20848366.280   -25598616.82449 -19498787.81948  20848366.067    20848370.907
  24763929.853    -4090460.47649  -2875197.42045  24763928.920    24763935.646
 03 12 29  1 36 30.0000000  0  9G30G29G21G17G24G 5G10G 6G18
  20748625.036   -22482577.98249 -17241246.67547  20748625.236    20748629.718
  24380582.363    -4969430.32949  -3670176.33645  24380581.994    24380587.738
  22316412.808   -20375994.16549 -15854852.95747  22316412.199    22316416.639
  21446591.281   -21558483.80849 -16770336.24047  21446590.644    21446596.195
  24190630.557    -8169614.28249  -6339647.29245  24190630.255    24190636.391
  22937426.134   -12426307.92049  -8965314.01846  22937425.571    22937431.655
  21435265.256   -21287158.89849 -16572967.45947  21435264.425    21435269.755
  20840467.049   -25640127.66649 -19531133.90048  20840466.805    20840471.658
  24742788.406    -4201557.36249  -2961766.35845  24742787.665    24742794.710
 03 12 29  1 37  0.0000000  0  9G30G29G21G17G24G 5G10G 6G18
  20759412.629   -22425888.94749 -17197073.39947  20759412.818    20759417.279
  24367634.996    -5037469.22949  -3723193.59545  24367634.668    24367640.486
  22304420.756   -20439012.27349 -15903957.92247  22304420.161    22304424.631
  21456231.415   -21507824.17449 -16730861.18147  21456230.821    21456236.332
  24206363.842    -8086935.28649  -6275222.06645  24206363.603    24206369.601
  22956949.139   -12323713.96549  -8885370.68546  22956948.575    22956954.648
  21445065.236   -21235659.61049 -16532838.11747  21445064.391    21445069.717
  20832613.371   -25681398.90649 -19563293.28048  20832613.122    20832617.958
  24721651.834    -4312628.58649  -3048315.32245  24721651.308    24721658.687
 03 12 29  1 37 30.0000000  0  9G30G29G21G17G24G 5G10G 6G18
  20770296.050   -22368696.21649 -17152507.63647  20770296.233    20770300.720
  24354716.314    -5105356.33249  -3776092.57145  24354716.012    24354721.918
  22292472.027   -20501802.49249 -15952885.31047  22292471.493    22292475.986
  21465907.219   -21456977.32749 -16691240.23447  21465906.642    21465912.134
  24222091.695    -8004284.83149  -6210819.08745  24222091.425    24222097.439
  22976505.866   -12220942.92149  -8805289.36146  22976505.226    22976511.344
  21454968.998   -21183614.95249 -16492283.81347  21454968.145    21454973.479
  20824805.421   -25722429.78349 -19595265.36248  20824805.177    20824810.007
  24700520.633    -4423672.04949  -3134842.66545  24700520.365    24700527.770
 03 12 29  1 38  0.0000000  0  9G30G29G21G17G24G 5G10G 6G18
  20781274.613   -22311003.16449 -17107552.01047  20781274.823    20781279.349
  24341826.865    -5173089.93449  -3828871.90545  24341826.554    24341832.769
  22280566.453   -20564366.70049 -16001636.58647  22280565.915    22280570.353
  21475618.068   -21405946.33349 -16651475.79847  21475617.499    21475622.957
  24237813.722    -7921665.20749  -6146440.11445  24237813.382    24237819.325
  22996095.393   -12117999.17749  -8725073.46446  22996094.765    22996100.865
  21464975.890   -21131028.45249 -16451307.29147  21464975.027    21464980.324
  20817043.239   -25763220.16449 -19627050.04948  20817043.001    20817047.826
  24679395.024    -4534687.11649  -3221347.88545  24679394.891    24679402.429
 03 12 29  1 38 30.0000000  0  9G30G29G21G17G24G 5G10G 6G18
  20792348.033   -22252811.99149 -17062208.23547  20792348.227    20792352.734
  24328967.247    -5240667.34549  -3881529.53645  24328967.037    24328973.199
  22268703.944   -20626704.94149 -16050211.77847  22268703.327    22268707.647
  21485363.802   -21354732.46249 -16611568.86147  21485363.193    21485368.620
  24253529.468    -7839077.40249  -6082085.93945  24253529.181    24253535.196
  23015717.105   -12014885.44049  -8644725.11546  23015716.601    23015722.776
  21475085.442   -21077902.24549 -16409910.21747  21475084.569    21475089.876
  20809327.089   -25803768.80649 -19658646.36348  20809326.853    20809331.632
  24658275.632    -4645671.93849  -3307829.53845  24658275.311    24658282.610
 03 12 29  1 39  0.0000000  0  9G30G29G21G17G24G 5G10G 6G18
  20803515.854   -22194124.78849 -17016477.94247  20803516.016    20803520.541
  24316138.097    -5308085.73349  -3934063.23945  24316137.688    24316143.667
  22256884.261   -20688817.25549 -16098610.94247  22256883.690    22256887.979
  21495143.899   -21303337.35849 -16571520.70647  21495143.342    21495148.780
  24269239.002    -7756522.51149  -6017757.41345  24269238.715    24269244.727
  23035370.796   -11911604.72949  -8564246.64846  23035370.285    23035376.468
  21485297.217   -21024238.74549 -16368094.47347  21485296.349    21485301.666
  20801657.148   -25844074.50449 -19690053.36748  20801656.893    20801661.688
  24637162.564    -4756624.02649  -3394285.67245  24637161.997    24637169.031
 03 12 29  1 39 30.0000000  0  9G30G29G21G17G24G 5G10G 6G18
  20814777.608   -22134943.41149 -16970362.57947  20814777.819    20814782.346
  24303339.515    -5375341.81749  -3986470.48645  24303339.428    24303345.274
  22245107.605   -20750703.43149 -16146833.88847  22245107.083    22245111.367
  21504958.393   -21251761.89349 -16531332.01447  21504957.817    21504963.247
  24284942.289    -7674000.98249  -5953454.88245  24284941.965    24284948.035
  23055055.826   -11808159.52349  -8483640.00446  23055055.257    23055061.478
  21495610.901   -20970039.89949 -16325861.58047  21495610.029    21495615.363
  20794033.781   -25884135.43949 -19721269.64948  20794033.550    20794038.329
  24616056.157    -4867540.96149  -3480714.38345  24616055.210    24616062.171
 03 12 29  1 40  0.0000000  0  9G30G29G21G17G24G 5G10G 6G18
  20826133.087   -22075270.04049 -16923863.84347  20826133.278    20826137.800
  24290572.482    -5442432.75649  -4038749.03045  24290572.357    24290578.271
  22233374.046   -20812363.45749 -16194880.61547  22233373.526    22233377.833
  21514806.930   -21200007.51849 -16491003.90847  21514806.330    21514811.760
  24300639.090    -7591513.86849  -5889179.17645  24300638.818    24300644.769
  23074771.784   -11704552.08249  -8402906.95646  23074771.109    23074777.370
  21506026.011   -20915308.06449 -16283213.36247  21506025.159    21506030.459
  20786457.252   -25923950.16449 -19752294.07548  20786457.025    20786461.797
  24594956.720    -4978420.80149  -3567114.16545  24594955.577    24594962.292
 03 12 29  1 40 30.0000000  0  9G30G29G21G17G24G 5G10G 6G18
  20837581.801   -22015106.51649 -16876983.16947  20837581.992    20837586.544
  24277837.490    -5509355.28249  -4090896.35945  24277837.323    24277843.270
  22221683.517   -20873797.32549 -16242751.11647  22221682.979    22221687.336
  21524689.326   -21148075.20049 -16450537.14847  21524688.738    21524694.154
  24316329.255    -7509061.34949  -5824930.42745  24316328.916    24316334.937
  23094517.967   -11600784.93849  -8322049.45946  23094517.279    23094523.654
  21516542.178   -20860045.06649 -16240151.26547  21516541.309    21516546.622
  20778927.931   -25963516.74349 -19783125.14648  20778927.718    20778932.495
  24573864.562    -5089260.77349  -3653482.88645  24573863.149    24573870.131
 03 12 29  1 41  0.0000000  0  9G30G29G21G17G24G 5G10G 6G18
  20849123.450   -21954454.66649 -16829721.98147  20849123.642    20849128.201
  24265135.090    -5576106.35149  -4142910.08145  24265134.867    24265140.981
  22210036.106   -20935004.67549 -16290445.11047  22210035.572    22210039.930
  21534605.326   -21095966.15249 -16409932.67647  21534604.753    21534610.155
  24332012.762    -7426644.02949  -5760709.09345  24332012.478    24332018.553
  23114294.014   -11496860.90849  -8241069.71246  23114293.387    23114299.756
  21527158.989   -20804253.20949 -16196677.05747  21527158.129    21527163.430
  20771446.136   -26002833.62749 -19813761.64048  20771445.937    20771450.709
  24552780.383    -5200058.19649  -3739818.40845  24552779.045    24552785.927
 03 12 29  1 41 30.0000000  0  9G30G29G21G17G24G 5G10G 6G18
  20860757.557   -21893316.90949 -16782082.17147  20860757.758    20860762.330
  24252465.977    -5642683.19549  -4194788.04645  24252465.587    24252471.785
  22198431.966   -20995985.38749 -16337962.49647  22198431.346    22198435.668
  21544554.744   -21043681.64149 -16369191.48047  21544554.166    21544559.564
  24347689.344    -7344263.18249  -5696516.19745  24347689.125    24347695.112
  23134099.460   -11392782.51849  -8159969.70246  23134098.836    23134105.289
  21537875.993   -20747934.73049 -16152792.50447  21537875.139    21537880.421
  20764012.150   -26041899.58249 -19844202.61648  20764011.934    20764016.695
  24531704.730    -5310810.43649  -3826118.72545  24531703.605    24531710.418
 03 12 29  1 42  0.0000000  0  9G30G29G21G17G24G 5G10G 6G18
  20872483.822   -21831695.38949 -16734065.40147  20872483.970    20872488.550
  24239830.380    -5709082.87949  -4246527.96745  24239830.085    24239836.097
  22186870.644   -21056739.76449 -16385303.52047  22186870.050    22186874.441
  21554537.273   -20991223.00349 -16328314.60047  21554536.685    21554542.068
  24363358.883    -7261919.33249  -5632352.12345  24363358.618    24363364.579
  23153933.829   -11288552.77549  -8078751.75246  23153933.155    23153939.517
  21548692.849   -20691091.79449 -16108499.27947  21548691.991    21548697.232
  20756626.127   -26080713.26549 -19874447.01348  20756625.907    20756630.671
  24510638.023    -5421515.88049  -3912382.55545  24510637.029    24510643.859
 03 12 29  1 42 30.0000000  0  9G30G29G21G17G24G 5G10G 6G18
  20884301.725   -21769591.51049 -16685672.76847  20884301.919    20884306.516
  24227229.316    -5775301.68949  -4298126.94045  24227228.929    24227235.115
  22175352.553   -21117267.01349 -16432467.56647  22175352.023    22175356.449
  21564552.841   -20938590.83249 -16287302.49847  21564552.251    21564557.609
  24379021.321    -7179612.50249  -5568216.88645  24379020.995    24379026.937
  23173796.601   -11184173.31749  -7997417.11646  23173795.885    23173802.227
  21559609.108   -20633726.15449 -16063798.75847  21559608.284    21559613.471
  20749288.557   -26119272.30949 -19904492.98948  20749288.337    20749293.105
  24489580.761    -5532171.73749  -3998607.73945  24489579.897    24489586.591
 03 12 29  1 43  0.0000000  0  9G30G29G21G17G24G 5G10G 6G18
  20896210.875   -21707008.38949 -16636906.69947  20896211.074    20896215.667
  24214663.037    -5841337.48549  -4349583.32445  24214662.598    24214668.819
  22163877.691   -21177568.25749 -16479455.49247  22163877.137    22163881.487
  21574600.964   -20885787.31549 -16246156.88547  21574600.365    21574605.761
  24394676.431    -7097344.42349  -5504111.85845  24394676.037    24394682.080
  23193687.089   -11079648.12449  -7915968.93246  23193686.464    23193692.821
  21570624.298   -20575841.08449 -16018693.48547  21570623.428    21570628.601
  20741999.552   -26157575.99349 -19934339.98848  20741999.333    20742004.128
  24468533.346    -5642776.13549  -4084792.83745  24468532.547    24468539.068
 03 12 29  1 43 30.0000000  0  9G30G29G21G17G24G 5G10G 6G18
  20908210.791   -21643948.39649 -16587769.04447  20908210.977    20908215.590
  24202132.285    -5907187.52749  -4400894.93945  24202131.863    24202137.967
  22152445.821   -21237643.29049 -16526267.15147  22152445.222    22152449.567
  21584681.534   -20832813.63749 -16204878.67447  21584680.896    21584686.293
  24410323.880    -7015115.83749  -5440037.58345  24410323.555    24410329.495
  23213604.925   -10974979.63149  -7834409.10346  23213604.216    23213610.543
  21581737.784   -20517439.00449 -15973185.35247  21581736.934    21581742.096
  20734759.397   -26195623.05049 -19963987.02448  20734759.195    20734763.950
  24447496.117    -5753326.64249  -4170935.90945  24447495.371    24447502.059
 03 12 29  1 44  0.0000000  0  9G30G29G21G17G24G 5G10G 6G18
  20920301.204   -21580412.68749 -16538260.69047  20920301.407    20920306.062
  24189637.539    -5972847.82649  -4452058.73145  24189637.133    24189643.058
  22141057.060   -21297491.28349 -16572901.89947  22141056.476    22141060.806
  21594794.347   -20779670.42549 -16163468.35747  21594793.716    21594799.077
  24425963.729    -6932926.55749  -5375993.94245  24425963.557    24425969.458
  23233549.665   -10870169.76449  -7752739.07746  23233548.929    23233555.191
  21592949.487   -20458521.14149 -15927275.30747  21592948.643    21592953.803
  20727568.589   -26233410.97949 -19993432.13648  20727568.373    20727573.129
  24426469.650    -5863820.46649  -4257034.83445  24426469.057    24426475.668
 03 12 29  1 44 30.0000000  0  9G30G29G21G17G24G 5G10G 6G18
  20932481.707   -21516403.89749 -16488383.71047  20932481.894    20932486.503
  24177179.037    -6038315.86549  -4503072.72345  24177178.818    24177184.710
  22129711.506   -21357112.57149 -16619359.98747  22129710.900    22129715.175
  21604939.158   -20726358.99549 -16121926.95747  21604938.522    21604943.879
  24441596.257    -6850777.45949  -5311981.61545  24441595.995    24441601.687
  23253520.597   -10765221.27649  -7670961.03746  23253519.943    23253526.166
  21604258.758   -20399090.35349 -15880965.58447  21604257.914    21604263.085
  20720427.295   -26270938.68849 -20022674.47748  20720427.067    20720431.842
  24405454.378    -5974255.51649  -4343087.97045  24405453.856    24405460.498
 03 12 29  1 45  0.0000000  0  9G30G29G21G17G24G 5G10G 6G18
  20944751.647   -21451924.67249 -16438140.15547  20944751.820    20944756.464
  24164758.090    -6103589.02549  -4553934.83545  24164757.876    24164763.598
  22118408.869   -21416507.84349 -16665641.95547  22118408.295    22118412.535
  21615115.646   -20672880.89549 -16080255.69147  21615115.037    21615120.390
  24457220.889    -6768669.48049  -5248001.33345  24457220.688    24457226.297
  23273517.252   -10660137.61449  -7589077.67946  23273516.759    23273522.879
  21615665.140   -20339149.40149 -15834258.32947  21615664.307    21615669.431
  20713335.743   -26308204.94349 -20051713.08748  20713335.516    20713340.281
  24384450.702    -6084629.71149  -4429093.67745  24384450.247    24384456.775
 03 12 29  1 45 30.0000000  0  9G30G29G21G17G24G 5G10G 6G18
  20957110.751   -21386977.03749 -16387531.59947  20957110.954    20957115.639
  24152374.739    -6168664.24749  -4604642.71945  24152374.499    24152380.223
  22107149.384   -21475676.43649 -16711747.29747  22107148.819    22107153.032
  21625323.664   -20619237.46249 -16038455.58747  21625323.030    21625328.375
  24472837.569    -6686603.74549  -5184053.96445  24472837.248    24472842.910
  23293539.470   -10554921.03749  -7507090.75546  23293538.889    23293544.927
  21627168.201   -20278700.47549 -15787155.24847  21627167.344    21627172.474
  20706294.254   -26345208.07649 -20080546.67248  20706294.021    20706298.754
  24363459.061    -6194940.63649  -4515050.11145  24363458.749    24363464.921
 03 12 29  1 46  0.0000000  0  9G30G29G21G17G24G 5G10G 6G18
  20969558.619   -21321563.32749 -16336559.87347  20969558.777    20969563.447
  24140029.360    -6233538.55849  -4655194.06845  24140029.205    24140034.984
  22095932.967   -21534618.98149 -16757676.49547  22095932.404    22095936.594
  21635562.881   -20565429.67849 -15996527.41847  21635562.282    21635567.606
  24488446.150    -6604580.33649  -5120139.60245  24488445.862    24488451.431
  23313586.292   -10449574.22649  -7425002.34346  23313585.661    23313591.710
  21638767.421   -20217745.95649 -15739658.20647  21638766.574    21638771.718
  20699303.160   -26381946.44849 -20109173.94248  20699302.931    20699307.647
  24342479.853    -6305186.29849  -4600955.69145  24342479.571    24342485.599
 03 12 29  1 46 30.0000000  0  9G30G29G21G17G24G 5G10G 6G18
  20982094.802   -21255685.36049 -16285226.38447  20982094.988    20982099.603
  24127723.183    -6298208.42849  -4705586.07945  24127723.055    24127728.545
  22084759.620   -21593335.03249 -16803429.20247  22084759.060    22084763.213
  21645833.199   -20511458.39549 -15954471.84647  21645832.612    21645837.961
  24504046.631    -6522599.33849  -5056258.29345  24504046.322    24504051.930
  23333657.539   -10344099.25849  -7342814.06046  23333656.975    23333662.957
  21650462.545   -20156287.67549 -15691768.60747  21650461.687    21650466.805
  20692362.833   -26418417.99949 -20137593.30148  20692362.596    20692367.337
  24321513.759    -6415363.87349  -4686808.21745  24321513.566    24321519.139
 03 12 29  1 47  0.0000000  0  9G30G29G21G17G24G 5G10G 6G18
  20994718.783   -21189345.86149 -16233533.26647  20994718.969    20994723.566
  24115456.126    -6362671.69549  -4755817.13145  24115455.937    24115461.236
  22073629.452   -21651824.34949 -16849005.24447  22073628.875    22073633.055
  21656134.356   -20457325.43349 -15912290.29647  21656133.781    21656139.119
  24519638.742    -6440662.36149  -4992411.27345  24519638.487    24519644.025
  23353752.435   -10238499.29949  -7260528.42046  23353751.884    23353757.994
  21662253.006   -20094328.48349 -15643488.69447  21662252.135    21662257.205
  20685473.396   -26454621.91749 -20165804.12048  20685473.165    20685477.918
  24300561.288    -6525470.94149  -4772605.83045  24300560.920    24300566.111
 03 12 29  1 47 30.0000000  0  9G30G29G21G17G24G 5G10G 6G18
  21007430.184   -21122547.04349 -16181482.23447  21007430.369    21007434.958
  24103228.967    -6426925.12249  -4805884.64145  24103228.843    24103234.258
  22062542.224   -21710087.63549 -16894405.15947  22062541.680    22062545.895
  21666466.069   -20403031.58849 -15869983.37947  21666465.518    21666470.830
  24535222.381    -6358769.92849  -4928598.93045  24535222.099    24535227.598
  23373870.781   -10132776.84449  -7178147.28746  23373870.256    23373876.305
  21674138.261   -20031871.11649 -15594820.59047  21674137.387    21674142.480
  20678635.199   -26490556.77049 -20193805.27348  20678634.959    20678639.697
  24279622.610    -6635505.19749  -4858346.72645  24279622.156    24279627.257
 03 12 29  1 48  0.0000000  0 10G30G29G21G17G26G24G 5G10G 6G18
  21020228.694   -21055290.58149 -16129074.60347  21020228.868    21020233.440
  24091042.543    -6490965.07549  -4855785.81545  24091042.358    24091047.885
  22051498.319   -21768123.50449 -16939627.86947  22051497.806    22051501.980
  21676828.321   -20348577.78849 -15827551.82747  21676827.744    21676833.061
  24277100.591    -4051113.10849  -3136019.09245  24277100.564    24277106.389
  24550797.382    -6276922.11149  -4864821.34145  24550797.107    24550802.760
  23394012.095   -10026934.23549  -7095672.54546  23394011.443    23394017.542
  21686117.956   -19968917.03249 -15545765.43847  21686117.074    21686122.192
  20671848.672   -26526220.28049 -20221595.00048  20671848.427    20671853.143
  24258698.333    -6745463.56849  -4944028.48345  24258697.553    24258702.841
 03 12 29  1 48 30.0000000  0 10G30G29G21G17G26G24G 5G10G 6G18
  21033113.753   -20987579.17449 -16076312.45847  21033113.938    21033118.481
  24078897.164    -6554789.18349  -4905518.79845  24078897.046    24078902.415
  22040497.573   -21825932.75949 -16984673.98647  22040497.051    22040501.100
  21687220.721   -20293965.31549 -15784996.63447  21687220.120    21687225.431
  24260149.406    -4140192.35049  -3205431.38845  24260149.098    24260155.002
  24566363.789    -6195119.73649  -4801079.15945  24566363.581    24566369.228
  23414175.693    -9920974.10049  -7013106.24446  23414174.964    23414181.189
  21698191.626   -19905469.29949 -15496325.61947  21698190.765    21698195.863
  20665113.912   -26561611.26449 -20249172.36048  20665113.690    20665118.402
  24237788.564    -6855344.66449  -5029650.01445  24237787.559    24237792.932
 03 12 29  1 49  0.0000000  0 10G30G29G21G17G26G24G 5G10G 6G18
  21046084.911   -20919415.26149 -16023197.71647  21046085.089    21046089.621
  24066793.366    -6618394.27049  -4955081.13645  24066793.236    24066798.621
  22029539.963   -21883515.87349 -17029543.89147  22029539.407    22029543.303
  21697643.081   -20239195.30049 -15742318.67947  21697642.475    21697647.771
  24243207.485    -4229221.40149  -3274804.60945  24243207.507    24243213.193
  24581921.396    -6113363.43849  -4737372.91645  24581921.220    24581926.929
  23434360.987    -9814899.28149  -6930450.57346  23434360.330    23434366.646
  21710358.803   -19841530.22849 -15446502.94147  21710357.942    21710363.018
  20658431.441   -26596727.95649 -20276535.98948  20658431.196    20658435.903
  24216893.811    -6965145.73349  -5115209.21545  24216892.995    24216898.506
 03 12 29  1 49 30.0000000  0 10G30G29G21G17G26G24G 5G10G 6G18
  21059141.718   -20850801.07549 -15969732.11247  21059141.919    21059146.478
  24054731.694    -6681777.67949  -5004470.73745  24054731.725    24054736.891
  22018625.235   -21940872.91449 -17074237.64147  22018624.664    22018628.629
  21708095.175   -20184269.05549 -15699518.99247  21708094.589    21708099.915
  24226275.872    -4318197.17549  -3344136.31445  24226276.038    24226281.732
  24597470.164    -6031653.70849  -4673702.95145  24597470.105    24597475.776
  23454567.579    -9708712.63049  -6847707.74546  23454566.961    23454573.300
  21722618.997   -19777102.34949 -15396299.37847  21722618.124    21722623.216
  20651801.398   -26631569.08149 -20303684.89248  20651801.166    20651805.847
  24196014.566    -7074864.68949  -5200704.40845  24196013.988    24196019.698
 03 12 29  1 50  0.0000000  0 10G30G29G21G17G26G24G 5G10G 6G18
  21072283.866   -20781738.61649 -15915917.20047  21072284.061    21072288.635
  24042713.315    -6744935.75149  -5053684.73045  24042713.166    24042718.336
  22007753.647   -21998002.83249 -17118754.41947  22007753.120    22007757.217
  21718576.923   -20129187.21349 -15656598.05547  21718576.332    21718581.621
  24209355.109    -4407115.51549  -3413423.28045  24209355.222    24209360.950
  24613010.088    -5949990.64049  -4610069.37545  24613010.027    24613015.632
  23474795.283    -9602415.90349  -6764879.13446  23474794.538    23474800.924
  21734971.847   -19712187.57049 -15345716.40647  21734970.963    21734976.063
  20645224.183   -26666132.43949 -20330617.35248  20645223.959    20645228.638
  24175151.558    -7184498.60849  -5286133.33945  24175151.162    24175157.059
 03 12 29  1 50 30.0000000  0 10G30G29G21G17G26G24G 5G10G 6G18
  21085510.751   -20712231.00849 -15861755.42147  21085510.915    21085515.487
  24030737.852    -6807866.22449  -5102721.40145  24030737.728    24030743.108
  21996925.170   -22054906.66349 -17163095.02647  21996924.636    21996928.698
  21729087.883   -20073951.55649 -15613557.25847  21729087.286    21729092.566
  24192445.915    -4495973.87849  -3482663.46345  24192445.918    24192451.789
  24628540.900    -5868375.54349  -4546473.18545  24628540.836    24628546.435
  23495043.116    -9496012.85749  -6681967.70946  23495042.301    23495048.877
  21747416.758   -19646789.03849 -15294756.48947  21747415.887    21747420.991
  20638700.029   -26700417.10149 -20357332.64548  20638699.776    20638704.428
  24154305.342    -7294045.86549  -5371494.73045  24154304.943    24154310.813
 03 12 29  1 51  0.0000000  0 10G30G29G21G17G26G24G 5G10G 6G18
  21098821.820   -20642280.73349 -15807248.70647  21098822.029    21098826.613
  24018806.263    -6870566.52449  -5151578.70945  24018806.156    24018811.668
  21986139.753   -22111584.73049 -17207259.70047  21986139.183    21986143.101
  21739627.882   -20018563.38549 -15570397.62847  21739627.289    21739632.565
  24175548.756    -4584769.01149  -3551854.38545  24175548.697    24175554.718
  24644062.387    -5786809.15249  -4482914.94445  24644062.360    24644067.844
  23515310.827    -9389505.81549  -6598975.23146  23515309.990    23515316.482
  21759953.180   -19580909.54449 -15243421.79847  21759952.288    21759957.430
  20632229.163   -26734421.73949 -20383829.73548  20632228.915    20632233.538
  24133476.269    -7403504.03249  -5456786.69045  24133475.742    24133481.492
 03 12 29  1 51 30.0000000  0 10G30G29G21G17G26G24G 5G10G 6G18
  21112216.723   -20571890.25649 -15752398.98147  21112216.896    21112221.454
  24006919.284    -6933033.66949  -5200254.33645  24006919.096    24006924.341
  21975397.187   -22168036.95449 -17251248.39447  21975396.620    21975400.503
  21750196.679   -19963023.97549 -15527120.14547  21750196.083    21750201.380
  24158664.202    -4673497.61249  -3620993.46045  24158664.085    24158670.108
  24659574.403    -5705292.48249  -4419395.41645  24659574.203    24659579.901
  23535597.702    -9282897.72249  -6515903.99046  23535596.875    23535603.342
  21772580.680   -19514551.72049 -15191714.37447  21772579.767    21772584.893
  20625811.831   -26768144.91349 -20410107.50548  20625811.568    20625816.214
  24112664.645    -7512870.79449  -5542007.44045  24112664.041    24112669.588
 03 12 29  1 52  0.0000000  0 10G30G29G21G17G26G24G 5G10G 6G18
  21125694.995   -20501061.40449 -15697207.66947  21125695.186    21125699.754
  23995077.152    -6995264.17649  -5248745.58845  23995076.884    23995082.181
  21964697.630   -22224262.80849 -17295060.70347  21964697.087    21964701.101
  21760794.179   -19907333.91649 -15483725.27647  21760793.546    21760798.838
  24141792.984    -4762155.73749  -3690077.62645  24141792.925    24141798.838
  24675076.989    -5623824.89949  -4355914.10845  24675076.949    24675082.718
  23555903.458    -9176190.64949  -6432755.63646  23555902.588    23555909.102
  21785298.814   -19447717.44049 -15139635.70247  21785297.912    21785303.025
  20619448.489   -26801584.37449 -20436164.19948  20619448.223    20619452.837
  24091870.884    -7622143.40449  -5627154.80045  24091870.076    24091875.557
 03 12 29  1 52 30.0000000  0 10G30G29G21G17G26G24G 5G10G 6G18
  21139256.231   -20429796.55249 -15641676.61447  21139256.418    21139260.989
  23983280.516    -7057255.20249  -5297050.22445  23983280.271    23983285.652
  21954041.164   -22280262.45749 -17338696.74347  21954040.644    21954044.713
  21771420.091   -19851494.07049 -15440213.68847  21771419.480    21771424.766
  24124935.868    -4850739.84649  -3759104.10145  24124935.994    24124942.024
  24690570.372    -5542407.10349  -4292471.62545  24690570.293    24690576.016
  23576227.449    -9069387.32349  -6349532.28146  23576226.618    23576233.145
  21798107.128   -19380409.23849 -15087187.72747  21798106.215    21798111.311
  20613139.443   -26834738.64749 -20461998.66748  20613139.171    20613143.763
  24071095.288    -7731319.29949  -5712226.81145  24071094.468    24071099.973
 03 12 29  1 53  0.0000000  0 10G30G29G21G17G26G24G 5G10G 6G18
  21152899.843   -20358098.70349 -15585808.15747  21152900.052    21152904.590
  23971529.979    -7119003.96749  -5345166.07945  23971529.725    23971535.189
  21943427.841   -22336036.12549 -17382156.69147  21943427.301    21943431.249
  21782074.243   -19795506.13649 -15396586.70747  21782073.634    21782078.891
  24108093.561    -4939247.09549  -3828070.68945  24108093.565    24108099.511
  24706054.255    -5461040.05749  -4229068.69345  24706054.025    24706059.626
  23596569.209    -8962490.42149  -6266236.01146  23596568.446    23596574.910
  21811005.050   -19312630.18049 -15034372.85247  21811004.146    21811009.206
  20606884.820   -26867606.70249 -20487610.11348  20606884.561    20606889.121
  24050338.276    -7840397.00249  -5797222.31045  24050337.528    24050343.095
 03 12 29  1 53 30.0000000  0 10G30G29G21G17G26G24G 5G10G 6G18
  21166625.454   -20285970.31949 -15529604.22147  21166625.620    21166630.135
  23959826.079    -7180507.88549  -5393091.17045  23959825.918    23959831.140
  21932857.391   -22391584.30849 -17425440.93547  21932856.799    21932860.703
  21792756.285   -19739371.30949 -15352845.26947  21792755.669    21792760.961
  24091266.197    -5027674.11249  -3896974.75145  24091266.234    24091272.181
  24721528.301    -5379724.38449  -4165705.84345  24721527.962    24721533.452
  23616928.132    -8855503.05749  -6182869.24246  23616927.451    23616933.854
  21823992.013   -19244382.83749 -14981193.08947  21823991.165    21823996.252
  20600684.978   -26900186.94649 -20512997.29348  20600684.723    20600689.277
  24029600.638    -7949373.69849  -5882139.08745  24029599.934    24029605.436
 03 12 29  1 54  0.0000000  0 10G30G29G21G17G26G24G 5G10G 6G18
  21180432.496   -20213413.80649 -15473066.67647  21180432.672    21180437.207
  23948169.302    -7241763.95249  -5440823.08745  23948169.147    23948174.423
  21922329.752   -22446907.00349 -17468549.47847  21922329.138    21922333.135
  21803466.184   -19683090.61049 -15308990.15847  21803465.545    21803470.792
  24074455.046    -5116017.33549  -3965813.53945  24074455.152    24074460.891
  24736992.448    -5298460.59949  -4102383.42345  24736992.146    24736997.392
  23637303.924    -8748427.66649  -6099433.88646  23637303.236    23637309.488
  21837067.736   -19175669.64249 -14927650.31147  21837066.873    21837071.902
  20594540.237   -26932477.79649 -20538158.96848  20594539.977    20594544.509
  24008882.592    -8058247.67149  -5966975.80545  24008881.887    24008887.425
 03 12 29  1 54 30.0000000  0 10G30G29G21G17G26G24G 5G10G 6G18
  21194320.713   -20140430.77449 -15416196.77747  21194320.897    21194325.401
  23936560.427    -7302768.34749  -5488358.94645  23936560.295    23936565.691
  21911845.104   -22502003.20749 -17511481.53847  21911844.566    21911848.666
  21814203.781   -19626664.19649 -15265021.50247  21814203.141    21814208.381
  24057660.466    -5204272.54249  -4034583.72345  24057660.439    24057666.513
  24752446.741    -5217248.29549  -4039101.09345  24752446.439    24752451.449
  23657696.280    -8641265.46349  -6015930.88146  23657695.558    23657701.750
  21850231.718   -19106492.27249 -14873745.84947  21850230.850    21850235.909
  20588451.007   -26964476.71149 -20563093.16248  20588450.732    20588455.275
  23988184.700    -8167015.08849  -6051729.48445  23988184.076    23988189.618
 03 12 29  1 55  0.0000000  0 10G30G29G21G17G26G24G 5G10G 6G18
  21208289.502   -20067024.18149 -15358996.83047  21208289.687    21208294.188
  23924999.922    -7363518.63049  -5535696.76345  23924999.737    23925005.345
  21901403.625   -22556873.42049 -17554237.48947  21901403.104    21901407.099
  21824968.695   -19570093.79649 -15220940.65947  21824968.069    21824973.326
  24040883.015    -5292436.56649  -4103282.87345  24040883.033    24040889.290
  24767890.936    -5136088.33349  -3975859.56745  24767890.456    24767895.342
  23678104.371    -8534020.01849  -5932363.02545  23678103.690    23678109.835
  21863483.518   -19036853.57649 -14819481.90047  21863482.666    21863487.685
  20582417.576   -26996182.50749 -20587798.95248  20582417.309    20582421.853
  23967507.640    -8275674.05049  -6136398.65645  23967506.940    23967512.328
 03 12 29  1 55 30.0000000  0 10G30G29G21G17G26G24G 5G10G 6G18
  21222338.340   -19993196.98649 -15301469.14447  21222338.531    21222343.042
  23913488.436    -7424012.49549  -5582834.80845  23913488.286    23913493.469
  21891005.169   -22611518.17849 -17596817.75847  21891004.593    21891008.492
  21835760.830   -19513380.76249 -15176748.65747  21835760.228    21835765.476
  24024123.969    -5380506.60549  -4171908.76545  24024123.846    24024130.015
  24783324.674    -5054981.65149  -3912659.50845  24783324.312    24783329.411
  23698527.687    -8426694.35549  -5848732.61945  23698527.150    23698533.216
  21876822.409   -18966757.05349 -14764861.21647  21876821.572    21876826.629
  20576440.118   -27027594.29049 -20612275.64248  20576439.837    20576444.382
  23946851.538    -8384222.45549  -6220981.68645  23946850.681    23946856.144
 03 12 29  1 56  0.0000000  0 10G30G29G21G17G26G24G 5G10G 6G18
  21236466.915   -19918951.22349 -15243615.30347  21236467.050    21236471.573
  23902026.378    -7484246.44549  -5629770.29945  23902026.082    23902031.224
  21880649.486   -22665937.13949 -17639222.08647  21880648.892    21880652.891
  21846579.952   -19456525.83049 -15132446.09147  21846579.348    21846584.576
  24007383.622    -5468478.89149  -4240458.48345  24007383.333    24007389.457
  24798748.202    -4973928.37349  -3849501.04944  24798747.955    24798753.490
  23718966.007    -8319290.65849  -5765041.42645  23718965.352    23718971.469
  21890248.067   -18896204.85949 -14709885.45147  21890247.198    21890252.220
  20570518.975   -27058710.02349 -20636521.64348  20570518.676    20570523.234
  23926216.736    -8492657.77449  -6305476.60345  23926215.936    23926221.345
 03 12 29  1 56 30.0000000  0 10G30G29G21G17G26G24G 5G10G 6G18
  21250674.670   -19844288.82549 -15185436.81147  21250674.844    21250679.345
  23890614.185    -7544217.00949  -5676500.55945  23890613.902    23890619.304
  21870336.793   -22720129.87549 -17681450.14447  21870336.271    21870340.354
  21857426.039   -19399529.23549 -15088033.14447  21857425.429    21857430.638
  23990662.453    -5556349.10549  -4308928.69145  23990662.220    23990668.258
  24814162.008    -4892928.34349  -3786384.09945  24814161.793    24814167.434
  23739418.948    -8211810.61849  -5681290.77745  23739418.193    23739424.283
  21903759.967   -18825198.98349 -14654556.17647  21903759.123    21903764.162
  20564654.540   -27089527.59949 -20660535.31548  20564654.256    20564658.808
  23905604.003    -8600976.87549  -6389880.98445  23905603.325    23905608.751
 03 12 29  1 57  0.0000000  0 10G30G29G21G17G26G24G 5G10G 6G18
  21264960.915   -19769213.85249 -15126936.83147  21264961.114    21264965.663
  23879252.589    -7603922.84749  -5723024.54545  23879252.368    23879257.644
  21860066.970   -22774097.99349 -17723503.17347  21860066.431    21860070.440
  21868298.565   -19342393.63349 -15043511.87347  21868297.972    21868303.167
  23973960.708    -5644115.45749  -4377317.95845  23973960.742    23973966.849
  24829565.524    -4811983.38349  -3723310.05645  24829565.359    24829570.830
  23759885.572    -8104258.56149  -5597484.00445  23759884.654    23759890.781
  21917357.479   -18753743.31749 -14598876.41747  21917356.640    21917361.669
  20558846.904   -27120046.75649 -20684316.44848  20558846.647    20558851.173
  23885013.513    -8709179.15649  -6474194.33645  23885012.980    23885018.321
 03 12 29  1 57 30.0000000  0 10G30G29G21G17G26G24G 5G10G 6G18
  21279325.347   -19693728.14049 -15068116.79847  21279325.509    21279330.066
  23867942.000    -7663360.21249  -5769339.31745  23867941.778    23867947.105
  21849840.069   -22827840.75349 -17765380.58947  21849839.511    21849843.397
  21879197.490   -19285119.34149 -14998882.53347  21879196.887    21879202.086
  23957279.538    -5731773.63649  -4445622.96645  23957279.750    23957285.954
  24844958.567    -4731093.45149  -3660278.90945  24844958.353    24844963.767
  23780365.270    -7996636.72849  -5513622.84045  23780364.387    23780370.562
  21931040.220   -18681839.85149 -14542847.71847  21931039.378    21931044.377
  20553096.516   -27150265.28949 -20707863.33348  20553096.238    20553100.764
  23864445.878    -8817262.11449  -6558414.70445  23864445.329    23864450.670
 03 12 29  1 58  0.0000000  0 10G30G29G21G17G26G24G 5G10G 6G18
  21293767.381   -19617834.79149 -15008979.12747  21293767.561    21293772.096
  23856682.941    -7722526.91249  -5815443.18845  23856682.702    23856688.136
  21839655.887   -22881358.84949 -17807082.95247  21839655.321    21839659.220
  21890122.485   -19227708.07249 -14954146.45947  21890121.894    21890127.069
  23940620.071    -5819320.71049  -4513841.36045  23940620.073    23940626.328
  24860340.865    -4650259.65649  -3597291.48145  24860340.664    24860345.734
  23800857.563    -7888948.27449  -5429709.74345  23800856.819    23800863.067
  21944807.608   -18609491.56649 -14486472.40847  21944806.786    21944811.770
  20547403.518   -27180182.17949 -20731175.16848  20547403.239    20547407.737
  23843901.620    -8925223.26249  -6642540.16945  23843900.921    23843906.195
 03 12 29  1 58 30.0000000  0 10G30G29G21G17G26G24G 5G10G 6G18
  21308286.624   -19541535.64949 -14949525.24747  21308286.770    21308291.303
  23845476.147    -7781419.29149  -5861333.29145  23845475.871    23845481.249
  21829514.477   -22934651.74949 -17848609.84347  21829513.922    21829517.932
  21901073.481   -19170160.06449 -14909303.83547  21901072.893    21901078.071
  23923982.591    -5906752.53149  -4581969.96545  23923982.432    23923988.461
  24875712.321    -4569481.40649  -3534347.34645  24875712.223    24875717.248
  23821362.341    -7781194.43349  -5345745.73945  23821361.635    23821367.973
  21958659.253   -18536700.48549 -14429752.06247  21958658.437    21958663.443
  20541768.341   -27209795.01949 -20754250.08248  20541768.070    20541772.576
  23823381.073    -9033059.44749  -6726568.28845  23823380.237    23823385.584
 03 12 29  1 59  0.0000000  0  9G30G29G21G17G26G 5G10G 6G18
  21322882.679   -19464832.85849 -14889756.83247  21322882.825    21322887.374
  23834321.992    -7840034.18949  -5907007.17845  23834321.803    23834327.058
  21819416.027   -22987718.99549 -17889960.89847  21819415.513    21819419.520
  21912050.426   -19112475.84749 -14864355.08247  21912049.824    21912055.002
  23907367.335    -5994065.18449  -4650005.72445  23907367.354    23907373.187
  23841879.065    -7673377.52349  -5261732.58945  23841878.411    23841884.960
  21972594.682   -18463469.14849 -14372688.66847  21972593.880    21972598.871
  20536191.423   -27239101.90649 -20777086.59748  20536191.151    20536195.658
  23802884.654    -9140768.06549  -6810496.98345  23802883.877    23802889.315
 03 12 29  1 59 30.0000000  0  9G30G29G21G17G26G 5G10G 6G18
  21337554.970   -19387729.60749 -14829676.36347  21337555.108    21337559.645
  23823221.125    -7898369.29149  -5952463.03945  23823220.997    23823226.193
  21809360.503   -23040561.43949 -17931136.76947  21809359.974    21809363.824
  21923052.917   -19054657.07449 -14819301.47047  21923052.327    21923057.473
  23890775.313    -6081255.73549  -4717946.34245  23890775.480    23890781.202
  23862407.115    -7565500.81349  -5177672.81745  23862406.660    23862413.222
  21986613.348   -18389800.46749 -14315284.47847  21986612.515    21986617.520
  20530672.861   -27268101.97749 -20799684.02948  20530672.591    20530677.098
  23782412.825    -9248347.25649  -6894324.87245  23782412.139    23782417.500
 03 12 29  2  0  0.0000000  0  9G30G29G21G17G26G 5G10G 6G18
  21352302.987   -19310228.19549 -14769285.64747  21352303.118    21352307.686
  23812174.104    -7956421.34749  -5997698.35245  23812173.885    23812179.155
  21799347.837   -23093178.79649 -17972137.25447  21799347.226    21799350.982
  21934080.894   -18996704.59249 -14774143.67947  21934080.292    21934085.417
  23874207.514    -6168320.45149  -4785788.88345  23874207.540    23874213.277
  23882946.256    -7457566.44149  -5093568.12645  23882945.851    23882952.481
  22000714.779   -18315696.85949 -14257541.39247  22000713.933    22000718.969
  20525213.034   -27296793.32249 -20822040.89648  20525212.771    20525217.285
  23761966.020    -9355794.61749  -6978050.00545  23761965.563    23761970.792
 03 12 29  2  0 30.0000000  0  9G30G29G21G17G26G 5G10G 6G18
  21367126.136   -19232331.91249 -14708587.23847  21367126.276    21367130.813
  23801181.438    -8014188.29849  -6042711.49945  23801181.275    23801186.478
  21789377.701   -23145571.67949 -18012962.83547  21789377.108    21789380.946
  21945134.022   -18938619.92049 -14728882.88047  21945133.400    21945138.540
  23857664.174    -6255256.36149  -4853531.04945  23857664.163    23857669.909
  23903495.850    -7349577.87149  -5009421.21345  23903495.354    23903502.047
  22014898.326   -18241161.63249 -14199461.98147  22014897.523    22014902.538
  20519812.147   -27325174.98149 -20844156.45148  20519811.890    20519816.409
  23741544.875    -9463108.33849  -7061671.01845  23741544.311    23741549.652
 03 12 29  2  1  0.0000000  0  9G30G29G21G17G26G 5G10G 6G18
  21382024.067   -19154042.89849 -14647582.80747  21382024.183    21382028.720
  23790243.686    -8071666.98649  -6087500.02845  23790243.477    23790248.583
  21779450.291   -23197739.82149 -18053613.29347  21779449.761    21779453.632
  21956212.175   -18880403.58349 -14683519.48347  21956211.581    21956216.694
  23841145.895    -6342059.64149  -4921169.88345  23841145.908    23841151.632
  23924055.536    -7241537.10049  -4925233.60745  23924054.941    23924061.636
  22029163.612   -18166197.41149 -14141048.28047  22029162.768    22029167.729
  20514470.582   -27353244.98449 -20866029.15548  20514470.338    20514474.855
  23721149.755    -9570285.61249  -7145185.70045  23721149.120    23721154.358
 03 12 29  2  1 30.0000000  0  9G30G29G21G17G26G 5G10G 6G18
  21396996.021   -19075364.37049 -14586274.86347  21396996.198    21397000.763
  23779361.109    -8128855.02749  -6132062.08345  23779360.911    23779366.087
  21769565.692   -23249683.88749 -18094089.14147  21769565.144    21769569.004
  21967315.155   -18822057.19449 -14638054.74547  21967314.545    21967319.673
  23824653.578    -6428727.29049  -4988703.02545  23824653.506    23824659.350
  23944624.443    -7133447.39749  -4841007.88245  23944623.861    23944630.386
  22043509.883   -18090807.18349 -14082302.63147  22043509.036    22043513.992
  20509188.529   -27381002.28949 -20887658.20148  20509188.285    20509192.796
  23700780.987    -9677324.55349  -7228592.58545  23700780.282    23700785.489
 03 12 29  2  2  0.0000000  0  9G30G29G21G17G26G 5G10G 6G18
  21412041.750   -18996298.79049 -14524665.32347  21412041.892    21412046.454
  23768534.488    -8185749.32849  -6176395.23745  23768534.326    23768539.293
  21759723.788   -23301403.69349 -18134390.24847  21759723.177    21759727.025
  21978442.705   -18763581.42649 -14592489.19747  21978442.101    21978447.226
  23808187.697    -6515255.63649  -5056127.64445  23808187.665    23808193.452
  23965202.251    -7025310.97949  -4756745.77345  23965201.586    23965208.043
  22057936.751   -18014993.43349 -14023226.96347  22057935.909    22057940.865
  20503966.273   -27408445.23449 -20909042.29148  20503966.030    20503970.527
  23680438.940    -9784222.42449  -7311889.52445  23680438.184    23680443.349
 03 12 29  2  2 30.0000000  0  9G30G29G21G17G26G 5G10G 6G18
  21427160.556   -18916848.72849 -14462756.18347  21427160.695    21427165.279
  23757764.370    -8242346.99649  -6220497.25645  23757764.143    23757768.961
  21749924.458   -23352899.14249 -18174516.53347  21749923.871    21749927.698
  21989594.739   -18704977.19649 -14546823.54247  21989594.101    21989599.239
  23791749.014    -6601640.99449  -5123440.83545  23791748.985    23791754.751
  23985788.520    -6917130.25049  -4672449.11145  23985787.864    23985794.127
  22072443.771   -17938758.65649 -13963823.22147  22072442.916    22072447.826
  20498804.181   -27435572.29349 -20930180.23448  20498803.934    20498808.428
  23660124.239    -9890976.74049  -7395074.60745  23660123.507    23660128.539
 03 12 29  2  3  0.0000000  0  9G30G29G21G17G26G 5G10G 6G18
  21442352.047   -18837016.97349 -14400549.62047  21442352.218    21442356.761
  23747050.965    -8298645.46149  -6264366.12145  23747050.769    23747055.688
  21740167.746   -23404170.79149 -18214468.42647  21740167.185    21740170.966
  22000770.898   -18646245.88549 -14501058.86747  22000770.294    22000775.426
  23775338.221    -6687880.10549  -5190640.06845  23775338.166    23775343.889
  24006382.615    -6808908.14049  -4588120.19645  24006381.997    24006388.184
  22087030.263   -17862105.91349 -13904093.79346  22087029.388    22087034.310
  20493702.452   -27462381.85449 -20951070.77448  20493702.195    20493706.692
  23639837.289    -9997585.53649  -7478146.28045  23639836.532    23639841.562
 03 12 29  2  3 30.0000000  0  9G30G29G21G17G26G 5G10G 6G18
  21457615.709   -18756805.86149 -14338047.46047  21457615.852    21457620.444
  23736395.126    -8354641.60149  -6307999.38645  23736395.035    23736400.137
  21730453.668   -23455218.57249 -18254245.87447  21730453.110    21730456.863
  22011971.164   -18587387.96949 -14455195.54447  22011970.550    22011975.728
  23758956.122    -6773969.10249  -5257722.34645  23758956.077    23758961.716
  24026984.094    -6700646.69749  -4503760.64645  24026983.435    24026989.794
  22101695.932   -17785037.49749 -13844040.46046  22101695.005    22101699.969
  20488661.488   -27488872.19549 -20971712.57048  20488661.225    20488665.715
  23619578.288   -10104046.71349  -7561102.92445  23619577.507    23619582.667
 03 12 29  2  4  0.0000000  0  9G30G29G21G17G26G 5G10G 6G18
  21472951.059   -18676217.98549 -14275251.71547  21472951.185    21472955.793
  23725797.503    -8410332.58049  -6351394.88445  23725797.342    23725802.373
  21720782.160   -23506042.71949 -18293849.06747  21720781.566    21720785.345
  22023195.385   -18528404.28549 -14409234.21847  22023194.750    22023199.927
  23742603.033    -6859904.38849  -5324684.86945  23742603.058    23742608.554
  24047592.487    -6592348.47549  -4419372.43945  24047591.789    24047598.302
  22116440.089   -17707556.13949 -13783665.35946  22116439.207    22116444.196
  20483681.573   -27515041.65349 -20992104.33248  20483681.332    20483685.801
  23599347.944   -10210357.19149  -7643942.13845  23599347.272    23599352.358
 03 12 29  2  4 30.0000000  0  9G30G29G21G17G26G 5G10G 6G18
  21488357.559   -18595256.23749 -14212164.63947  21488357.719    21488362.326
  23715258.416    -8465715.79149  -6394550.55445  23715258.169    23715263.210
  21711153.319   -23556642.76749 -18333277.62947  21711152.712    21711156.481
  22034443.309   -18469295.99349 -14363175.78447  22034442.693    22034447.846
  23726279.924    -6945682.66849  -5391525.03945  23726279.839    23726285.209
  24068207.280    -6484016.08449  -4334957.59645  24068206.668    24068213.276
  22131262.270   -17629665.03649 -13722970.96846  22131261.367    22131266.347
  20478763.006   -27540888.85449 -21012244.98548  20478762.758    20478767.237
  23579146.705   -10316514.91449  -7726662.31645  23579146.087    23579151.111
 03 12 29  2  5  0.0000000  0  9G30G29G21G17G26G 5G10G 6G18
  21503834.663   -18513923.63649 -14148788.59147  21503834.825    21503839.377
  23704778.296    -8520788.61649  -6437464.36945  23704778.034    23704783.231
  21701566.953   -23607019.52349 -18372532.20647  21701566.318    21701570.027
  22045714.671   -18410064.38049 -14317021.26847  22045714.060    22045719.250
  23709987.284    -7031300.60349  -5458240.27645  23709987.347    23709992.550
  24088828.106    -6375652.51049  -4250518.45245  24088827.602    24088834.200
  22146161.808   -17551367.06849 -13661959.54746  22146160.942    22146165.920
  20473906.039   -27566412.35449 -21032133.40448  20473905.780    20473910.261
  23558974.996   -10422517.72049  -7809261.78845  23558974.361    23558979.351
 03 12 29  2  5 30.0000000  0  9G30G29G21G17G26G 5G10G 6G18
  21519381.906   -18432222.24049 -14085125.16747  21519382.052    21519386.647
  23694357.819    -8575547.91649  -6480133.88645  23694357.628    23694362.794
  21692023.095   -23657172.63549 -18411612.50747  21692022.456    21692026.076
  22057009.441   -18350709.78249 -14270770.91447  22057008.821    22057014.021
  23693725.995    -7116754.12449  -5524827.38445  23693726.105    23693731.411
  24109454.738    -6267259.91649  -4166056.67045  24109454.142    24109460.569
  22161138.481   -17472664.15149 -13600632.57246  22161137.614    22161142.532
  20469111.032   -27591610.18349 -21051768.05348  20469110.760    20469115.254
  23538833.327   -10528363.11449  -7891738.60145  23538832.625    23538837.545
 03 12 29  2  6  0.0000000  0  9G30G29G21G17G26G 5G10G 6G18
  21534998.745   -18350155.35349 -14021176.93947  21534998.880    21535003.440
  23683997.608    -8629991.23649  -6522557.17845  23683997.390    23684002.605
  21682521.625   -23707102.83649 -18450519.11647  21682521.023    21682524.625
  22068327.366   -18291233.51349 -14224425.75347  22068326.776    22068331.996
  23677496.538    -7202040.05049  -5591283.90645  23677496.630    23677502.059
  24130086.246    -6158840.79949  -4081574.27245  24130085.550    24130091.997
  22176191.559   -17393559.69749 -13538992.71446  22176190.683    22176195.636
  20464378.209   -27616481.10849 -21071147.97448  20464377.946    20464382.438
  23518721.909   -10634048.83849  -7974091.00145  23518721.229    23518726.097
 03 12 29  2  6 30.0000000  0  9G30G29G21G17G26G 5G10G 6G18
  21550684.672   -18267725.09549 -13956945.56647  21550684.821    21550689.401
  23673697.948    -8684115.42149  -6564731.80245  23673697.721    23673703.042
  21673062.659   -23756809.66549 -18489251.66947  21673062.101    21673065.710
  22079668.356   -18231635.97449 -14177986.10547  22079667.734    22079673.001
  23661299.905    -7287154.47249  -5657606.78345  23661299.883    23661305.333
  24150722.228    -6050397.74649  -3997073.21945  24150721.573    24150727.955
  22191320.584   -17314055.87749 -13477041.67346  22191319.709    22191324.698
  20459707.995   -27641023.22249 -21090271.68248  20459707.729    20459712.209
  23498641.200   -10739572.56949  -8056317.16945  23498640.591    23498645.516
 03 12 29  2  7  0.0000000  0  9G30G29G21G17G26G 5G10G 6G18
  21566439.262   -18184933.95849 -13892432.98847  21566439.445    21566444.002
  23663459.808    -8737917.51649  -6606655.44345  23663459.578    23663464.758
  21663646.331   -23806292.66049 -18527809.81147  21663645.760    21663649.386
  22091032.305   -18171917.97149 -14131452.57847  22091031.677    22091036.942
  23645136.326    -7372093.60849  -5723793.08145  23645136.513    23645141.902
  24171362.503    -5941933.17149  -3912555.38245  24171361.864    24171367.973
  22206525.177   -17234155.21349 -13414781.39946  22206524.293    22206529.247
  20455100.711   -27665234.75449 -21109137.79348  20455100.439    20455104.883
  23478591.788   -10844931.27249  -8138414.75945  23478591.290    23478596.311
 03 12 29  2  7 30.0000000  0 10G30G29G21G17G26G 5G10G 6G18G16
  21582261.485   -18101787.89849 -13827643.84747  21582261.601    21582266.131
  23653282.855    -8791397.85549  -6648328.37445  23653282.494    23653287.696
  21654272.003   -23855555.18549 -18566196.14947  21654271.390    21654275.038
  22102418.429   -18112083.41049 -14084828.23647  22102417.765    22102423.041
  23629006.370    -7456856.88849  -5789842.36145  23629006.580    23629011.859
  24192005.890    -5833452.25349  -3828024.78545  24192005.213    24192011.176
  22221804.119   -17153863.71749 -13352216.58246  22221803.216    22221808.219
  20450555.994   -27689117.26249 -21127747.51748  20450555.705    20450560.172
  23458573.690   -10950125.57749  -8220384.22145  23458573.308    23458578.401
  24749549.677    -3414433.68449  -2649655.16145  24749549.154    24749554.166
 03 12 29  2  8  0.0000000  0 10G30G29G21G17G26G 5G10G 6G18G16
  21598150.100   -18018292.33149 -13762582.36247  21598150.292    21598154.786
  23643166.892    -8844556.48249  -6689750.62845  23643166.676    23643171.821
  21644938.965   -23904600.38049 -18604413.14647  21644938.361    21644941.998
  22113826.021   -18052135.96349 -14038115.92247  22113825.427    22113830.678
  23612910.174    -7541443.70149  -5855754.11545  23612910.172    23612915.378
  24212651.407    -5724960.05049  -3743485.40145  24212650.641    24212656.367
  22237156.382   -17073186.83049 -13289351.46646  22237155.488    22237160.501
  20446073.651   -27712672.04849 -21146101.88048  20446073.368    20446077.829
  23438586.996   -11055156.35249  -8302226.27545  23438586.564    23438591.589
  24732551.575    -3503758.74749  -2719258.99245  24732551.151    24732556.099
 03 12 29  2  8 30.0000000  0 10G30G29G21G17G26G 5G10G 6G18G16
  21614106.406   -17934441.68749 -13697244.19747  21614106.545    21614111.052
  23633114.369    -8897382.65349  -6730913.81945  23633114.095    23633119.209
  21635648.832   -23953419.96549 -18642454.34247  21635648.232    21635651.874
  22125256.568   -17992068.26849 -13991309.91047  22125255.934    22125261.168
  23596849.567    -7625842.04649  -5921519.02645  23596849.640    23596854.921
  24233300.018    -5616451.08649  -3658932.97345  24233299.197    24233305.007
  22252583.028   -16992119.01249 -13226181.72846  22252582.168    22252587.177
  20441655.608   -27735889.16149 -21164193.11548  20441655.307    20441659.737
  23418633.473   -11160012.95149  -8383932.60845  23418632.978    23418637.946
  24715609.150    -3592791.83149  -2788635.33045  24715608.740    24715613.554
 03 12 29  2  9  0.0000000  0 10G30G29G21G17G26G 5G10G 6G18G16
  21630129.432   -17850240.12249 -13631632.58147  21630129.563    21630134.064
  23623125.402    -8949874.61749  -6771816.59445  23623125.201    23623130.263
  21626401.429   -24002015.26249 -18680320.76747  21626400.814    21626404.471
  22136709.499   -17931882.55949 -13944411.94547  22136708.876    22136714.056
  23580825.255    -7710049.73249  -5987135.35745  23580825.345    23580830.610
  24253951.011    -5507929.10349  -3574370.41245  24253950.150    24253956.146
  22268083.320   -16910664.35549 -13162710.55546  22268082.477    22268087.436
  20437301.785   -27758768.50149 -21182021.15248  20437301.491    20437305.913
  23398713.242   -11264694.17549  -8465502.28445  23398712.768    23398717.721
  24698722.379    -3681531.63249  -2857783.11245  24698721.941    24698726.656
 03 12 29  2  9 30.0000000  0 10G30G29G21G17G26G 5G10G 6G18G16
  21646218.649   -17765690.96749 -13565750.12247  21646218.784    21646223.225
  23613200.383    -9002030.38849  -6812457.40245  23613200.311    23613205.142
  21617196.542   -24050387.02849 -18718013.01047  21617195.927    21617199.588
  22148184.713   -17871580.24249 -13897423.11746  22148184.061    22148189.148
  23564837.892    -7794063.76349  -6052600.78245  23564837.932    23564843.298
  24274603.713    -5399397.54349  -3489800.36045  24274603.002    24274609.041
  22283656.664   -16828826.16549 -13098940.53146  22283655.786    22283660.719
  20433012.420   -27781309.14449 -21199585.26548  20433012.140    20433016.567
  23378826.696   -11369198.36149  -8546934.03746  23378826.206    23378831.080
  24681891.861    -3769976.28049  -2926700.90245  24681891.333    24681896.027
 03 12 29  2 10  0.0000000  0 10G30G29G21G17G26G 5G10G 6G18G16
  21662373.295   -17680797.72549 -13499599.54147  21662373.441    21662377.883
  23603339.713    -9053848.14349  -6852834.81145  23603339.588    23603344.535
  21608033.943   -24098536.43749 -18755531.98647  21608033.350    21608037.027
  22159681.740   -17811163.06549 -13850344.78546  22159681.112    22159686.152
  23548888.001    -7877881.40849  -6117913.18745  23548887.954    23548893.316
  24295257.867    -5290859.68749  -3405225.41045  24295257.044    24295263.280
  22299302.204   -16746608.04649 -13034874.45946  22299301.385    22299306.269
  20428787.688   -27803510.23349 -21216884.79848  20428787.395    20428791.791
  23358974.046   -11473524.07349  -8628226.71746  23358973.579    23358978.367
  24665117.717    -3858123.98149  -2995387.33844  24665116.885    24665121.879
 03 12 29  2 10 30.0000000  0 10G30G29G21G17G26G 5G10G 6G18G16
  21678592.840   -17595563.45749 -13433183.22547  21678592.992    21678597.405
  23593543.892    -9105325.35649  -6892946.86345  23593543.809    23593548.651
  21598913.593   -24146464.05149 -18792878.13847  21598913.004    21598916.660
  22171200.453   -17750631.92049 -13803177.65446  22171199.798    22171204.848
  23532975.965    -7961499.38949  -6183070.00845  23532976.011    23532981.386
  24315912.829    -5182317.65549  -3320647.19545  24315911.865    24315918.207
  22315019.525   -16664013.21549 -12970514.83046  22315018.654    22315023.510
  20424627.805   -27825370.42649 -21233918.69848  20424627.525    20424631.905
  23339155.606   -11577669.35349  -8709378.78546  23339155.279    23339160.032
  24648400.713    -3945972.30949  -3063840.53244  24648400.027    24648404.554
 03 12 29  2 11  0.0000000  0 10G30G29G21G17G26G 5G10G 6G18G16
  21694876.744   -17509991.09749 -13366503.45747  21694876.909    21694881.306
  23583813.445    -9156459.66349  -6932791.70445  23583813.346    23583818.065
  21589835.476   -24194169.51349 -18830051.18647  21589834.888    21589838.554
  22182740.626   -17689987.89549 -13755922.56246  22182739.969    22182744.987
  23517102.633    -8044914.15849  -6248068.47645  23517102.698    23517108.012
  24336567.997    -5073774.50249  -3236068.11845  24336566.925    24336573.178
  22330807.907   -16581044.65249 -12905863.98946  22330807.054    22330811.860
  20420533.021   -27846888.43649 -21250685.96248  20420532.749    20420537.159
  23319372.325   -11681631.19649  -8790387.92346  23319371.945    23319376.652
  24631741.050    -4033518.84049  -3132058.53945  24631740.501    24631744.844
 03 12 29  2 11 30.0000000  0 10G30G29G21G17G26G 5G10G 6G18G16
  21711224.346   -17424083.76949 -13299562.68247  21711224.512    21711228.928
  23574148.550    -9207248.48149  -6972367.34045  23574148.397    23574153.186
  21580799.493   -24241653.65049 -18867051.77447  21580798.904    21580802.565
  22194302.045   -17629232.21549 -13708580.46046  22194301.375    22194306.403
  23501268.609    -8128122.49049  -6312906.07945  23501268.690    23501273.884
  24357222.794    -4965233.07849  -3151490.37645  24357221.686    24357227.981
  22346666.861   -16497705.15549 -12840924.11546  22346666.025    22346670.841
  20416503.623   -27868063.00349 -21267185.60848  20416503.349    20416507.754
  23299624.193   -11785408.42849  -8871253.20846  23299623.776    23299628.426
  24615139.311    -4120761.50549  -3200039.72745  24615138.704    24615143.160
 03 12 29  2 12  0.0000000  0 10G30G29G21G17G26G 5G10G 6G18G16
  21727635.145   -17337844.35949 -13232363.13747  21727635.301    21727639.751
  23564549.881    -9257689.27349  -7011671.80445  23564549.742    23564554.635
  21571805.656   -24288916.55349 -18903879.96647  21571805.080    21571808.690
  22205884.542   -17568365.74349 -13661152.02546  22205883.886    22205888.912
  23485474.657    -8211120.92849  -6377580.12145  23485474.704    23485479.805
  24377876.825    -4856695.43249  -3066915.57245  24377875.788    24377882.014
  22362595.927   -16413997.63349 -12775697.46446  22362595.058    22362599.869
  20412539.861   -27888892.61149 -21283416.45548  20412539.603    20412543.999
  23279911.677   -11888998.66849  -8951972.78846  23279911.153    23279915.775
  24598595.927    -4207697.68449  -3267782.09045  24598595.357    24598599.860
 03 12 29  2 12 30.0000000  0 10G30G29G21G17G26G 5G10G 6G18G16
  21744108.664   -17251275.29749 -13164906.72647  21744108.876    21744113.332
  23555018.121    -9307779.04449  -7050702.73445  23555017.971    23555022.794
  21562853.933   -24335958.18849 -18940535.74147  21562853.347    21562856.907
  22217488.009   -17507389.08249 -13613637.73046  22217487.374    22217492.369
  23469721.019    -8293905.63849  -6442087.64345  23469721.181    23469726.377
  24398529.536    -4748164.04149  -2982345.66245  24398528.481    24398534.872
  22378594.421   -16329924.61049 -12710186.00846  22378593.592    22378598.427
  20408642.081   -27909375.60349 -21299377.21048  20408641.801    20408646.203
  23260235.143   -11992399.37649  -9032544.68346  23260234.585    23260239.194
  24582111.247    -4294324.65149  -3335283.52945  24582110.659    24582115.210
 03 12 29  2 13  0.0000000  0 10G30G29G21G17G26G 5G10G 6G18G16
  21760644.469   -17164379.11649 -13097195.41547  21760644.659    21760649.112
  23545553.483    -9357515.23949  -7089458.13645  23545553.333    23545558.128
  21553944.249   -24382778.40349 -18977018.98447  21553943.685    21553947.275
  22229112.341   -17446302.58649 -13566037.85546  22229111.696    22229116.751
  23454008.948    -8376472.67949  -6506425.52745  23454009.008    23454014.321
  24419180.629    -4639641.23349  -2897782.43645  24419179.654    24419186.251
  22394662.057   -16245488.65549 -12644391.74646  22394661.189    22394666.077
  20404810.598   -27929510.04849 -21315066.37048  20404810.334    20404814.723
  23240595.116   -12095607.71849  -9112966.69446  23240594.672    23240599.219
  24565686.055    -4380639.50849  -3402541.78245  24565685.439    24565689.870
 03 12 29  2 13 30.0000000  0 10G30G29G21G17G26G 5G10G 6G18G16
  21777241.928   -17077158.76349 -13029231.50247  21777242.149    21777246.572
  23536156.763    -9406895.05649  -7127935.84445  23536156.638    23536161.338
  21545076.658   -24429377.45649 -19013329.89147  21545076.114    21545079.730
  22240757.377   -17385107.25849 -13518353.17446  22240756.735    22240761.814
  23438339.115    -8458818.75649  -6570591.24445  23438339.086    23438344.219
  24439829.362    -4531129.66249  -2813227.96445  24439828.619    24439835.282
  22410798.177   -16160692.87249 -12578317.09846  22410797.298    22410802.185
  20401045.676   -27949294.80049 -21330483.04448  20401045.420    20401049.779
  23220992.126   -12198621.95249  -9193237.44446  23220991.662    23220996.126
  24549320.588    -4466639.74549  -3469554.86245  24549319.970    24549324.426
 03 12 29  2 14  0.0000000  0 10G30G29G21G17G26G 5G10G 6G18G16
  21793900.474   -16989617.51249 -12961017.53647  21793900.647    21793905.107
  23526828.263    -9455916.40349  -7166134.24345  23526828.086    23526832.821
  21536251.147   -24475755.85049 -19049468.85547  21536250.574    21536254.136
  22252422.939   -17323804.44849 -13470584.73246  22252422.279    22252427.309
  23422711.744    -8540940.40849  -6634582.06445  23422711.774    23422717.019
  24460475.441    -4422632.18949  -2728684.45945  24460474.966    24460481.677
  22427002.113   -16075540.38549 -12511964.49346  22427001.260    22427006.131
  20397347.499   -27968728.73249 -21345626.34748  20397347.250    20397351.581
  23201426.484   -12301439.88049  -9273355.21746  23201425.957    23201430.483
  24533015.381    -4552323.44749  -3536321.30845  24533014.847    24533019.506
 03 12 29  2 14 30.0000000  0 10G30G29G21G17G26G 5G10G 6G18G16
  21810619.569   -16901758.25149 -12892555.77047  21810619.712    21810624.220
  23517568.515    -9504576.80949  -7204051.38445  23517568.316    23517573.063
  21527467.524   -24521914.10849 -19085436.28847  21527466.955    21527470.470
  22264108.766   -17262394.91249 -13422733.13146  22264108.109    22264113.165
  23407127.686    -8622834.47149  -6698395.55145  23407127.703    23407133.109
  24481118.721    -4314151.59849  -2644154.11345  24481118.204    24481124.833
  22443273.444   -15990034.01649 -12445336.13446  22443272.576    22443277.451
  20393716.384   -27987810.39749 -21360495.16248  20393716.124    20393720.462
  23181898.537   -12404059.54349  -9353318.52946  23181898.046    23181902.572
  24516770.946    -4637688.25949  -3602839.26145  24516770.433    24516775.023
 03 12 29  2 15  0.0000000  0 10G30G29G21G17G26G 5G10G 6G18G16
  21827398.699   -16813583.57149 -12823848.22347  21827398.856    21827403.342
  23508377.945    -9552873.56049  -7241685.16245  23508377.779    23508382.472
  21518725.882   -24567851.68149 -19121231.75447  21518725.286    21518728.835
  22275814.751   -17200879.41749 -13374798.96646  22275814.104    22275819.132
  23391587.705    -8704497.08749  -6762028.68045  23391587.721    23391593.208
  24501758.523    -4205689.44549  -2559638.13945  24501757.946    24501764.572
  22459611.593   -15904176.37549 -12378434.06446  22459610.695    22459615.651
  20390152.628   -28006537.97949 -21375088.06648  20390152.371    20390156.700
  23162408.861   -12506477.92949  -9433124.98046  23162408.389    23162412.986
  24500587.693    -4722731.15149  -3669106.37545  24500587.246    24500591.834
 03 12 29  2 15 30.0000000  0 10G30G29G21G17G26G 5G10G 6G18G16
  21844237.135   -16725096.61849 -12754897.35147  21844237.299    21844241.839
  23499256.975    -9600804.31849  -7279033.74045  23499256.743    23499261.465
  21510026.021   -24613569.60549 -19156856.07347  21510025.429    21510028.999
  22287540.718   -17139258.93949 -13326783.00146  22287540.047    22287545.113
  23376092.544    -8785924.99449  -6825478.89745  23376092.558    23376097.933
  24522394.183    -4097248.75549  -2475138.92245  24522393.480    24522400.120
  22476015.942   -15817970.72849 -12311260.82146  22476015.039    22476020.010
  20386656.510   -28024910.37149 -21389404.20348  20386656.232    20386660.544
  23142957.824   -12608693.30349  -9512773.24246  23142957.334    23142961.943
  24484466.122    -4807450.05749  -3735121.04345  24484465.747    24484470.193
 03 12 29  2 16  0.0000000  0 10G30G29G21G17G26G 5G10G 6G18G16
  21861134.568   -16636299.89649 -12685705.08647  21861134.752    21861139.283
  23490206.164    -9648366.06949  -7316094.78845  23490205.979    23490210.643
  21501368.113   -24659067.12949 -19192308.65447  21501367.513    21501371.081
  22299286.602   -17077533.83549 -13278685.49846  22299285.955    22299291.038
  23360642.556    -8867114.02849  -6888743.01645  23360642.614    23360648.090
  24543025.178    -3988831.58749  -2390658.02445  24543024.648    24543031.228
  22492486.170   -15731419.31949 -12243818.13946  22492485.267    22492490.137
  20383228.308   -28042925.76849 -21403442.16348  20383228.015    20383232.316
  23123546.034   -12710702.89849  -9592261.16446  23123545.503    23123550.079
  24468406.788    -4891842.00549  -3800880.92445  24468406.395    24468411.008
 03 12 29  2 16 30.0000000  0 10G30G29G21G17G26G 5G10G 6G18G16
  21878090.366   -16547196.57249 -12616273.91947  21878090.553    21878095.043
  23481226.031    -9695556.72849  -7352866.66345  23481225.906    23481230.535
  21492751.920   -24704345.05649 -19227590.11947  21492751.338    21492754.853
  22311052.286   -17015705.08749 -13230507.24346  22311051.580    22311056.656
  23345238.658    -8948061.27649  -6951818.73745  23345238.797    23345244.281
  24563651.007    -3880440.78049  -2306197.65045  24563650.798    24563657.261
  22509021.488   -15644525.39249 -12176108.58946  22509020.580    22509025.526
  20379868.233   -28060583.01449 -21417201.04248  20379867.951    20379872.239
  23104173.490   -12812505.03649  -9671587.43046  23104173.054    23104177.735
  24452410.063    -4975904.87449  -3866384.37845  24452409.679    24452414.269
 03 12 29  2 17  0.0000000  0 10G30G29G21G17G26G 5G10G 6G18G16
  21895103.982   -16457789.63749 -12546606.17347  21895104.125    21895108.593
  23472317.136    -9742373.63449  -7389347.32445  23472316.953    23472321.566
  21484177.556   -24749403.60649 -19262700.63347  21484176.974    21484180.456
  22322837.376   -16953773.64149 -13182248.95946  22322836.751    22322841.809
  23329881.890    -9028762.94149  -7014703.08145  23329881.869    23329887.244
  24584271.542    -3772078.67349  -2221759.65145  24584271.413    24584277.750
  22525621.511   -15557291.61649 -12108134.19846  22525620.627    22525625.511
  20376576.587   -28077880.59449 -21430679.65548  20376576.290    20376580.584
  23084841.004   -12914097.63049  -9750750.42346  23084840.607    23084845.246
  24436476.437    -5059636.20949  -3931629.49945  24436476.020    24436480.581
 03 12 29  2 17 30.0000000  0 10G30G29G21G17G26G 5G10G 6G18G16
  21912174.742   -16368082.03549 -12476704.14947  21912174.907    21912179.348
  23463479.693    -9788814.68949  -7425535.08645  23463479.501    23463484.105
  21475644.893   -24794243.00549 -19297640.38947  21475644.301    21475647.763
  22334641.900   -16891740.43049 -13133911.38246  22334641.240    22334646.342
  23314572.007    -9109215.79749  -7077393.55945  23314572.038    23314577.461
  24604886.122    -3663748.02749  -2137346.13445  24604885.961    24604892.249
  22542285.630   -15469721.27449 -12039897.55146  22542284.731    22542289.595
  20373353.596   -28094817.36349 -21443877.12548  20373353.311    20373357.616
  23065548.903   -13015478.46849  -9829748.41346  23065548.433    23065553.003
  24420606.417    -5143033.80749  -3996614.55845  24420605.956    24420610.488
 03 12 29  2 18  0.0000000  0 10G30G29G21G17G26G 5G10G 6G18G16
  21929302.251   -16278076.41649 -12406569.89847  21929302.410    21929306.849
  23454714.333    -9834876.98849  -7461427.72145  23454714.159    23454718.609
  21467153.891   -24838863.25449 -19332409.38247  21467153.309    21467156.836
  22346465.616   -16829606.10849 -13085495.01346  22346464.974    22346470.101
  23299310.436    -9189416.03649  -7139887.18045  23299310.373    23299315.825
  24625494.351    -3555451.37649  -2052959.13545  24625494.125    24625500.501
  22559013.330   -15381816.73449 -11971400.49346  22559012.411    22559017.275
  20370199.626   -28111391.56449 -21456792.06448  20370199.344    20370203.647
  23046297.616   -13116644.81149  -9908579.25246  23046297.120    23046301.661
  24404800.429    -5226094.88749  -4061337.38445  24404799.978    24404804.560
 03 12 29  2 18 30.0000000  0 10G30G29G21G17G26G 5G10G 6G18G16
  21946485.882   -16187775.66849 -12336205.67947  21946486.044    21946490.537
  23446021.450    -9880558.09249  -7497023.33345  23446021.287    23446025.690
  21458704.579   -24883264.47049 -19367007.69647  21458704.008    21458707.524
  22358308.477   -16767371.24949 -13037000.30846  22358307.865    22358313.004
  23284097.561    -9269360.05449  -7202181.15645  23284097.545    23284102.853
  24646095.573    -3447190.45549  -1968599.97245  24646095.324    24646101.697
  22575804.032   -15293580.98949 -11902645.35346  22575803.147    22575807.947
  20367114.951   -28127601.61949 -21469423.26348  20367114.670    20367118.958
  23027087.384   -13217594.47249  -9987241.25146  23027086.910    23027091.513
  24389058.927    -5308816.88249  -4125795.99945  24389058.616    24389063.073
 03 12 29  2 19  0.0000000  0 10G30G29G21G17G26G 5G10G 6G18G16
  21963725.159   -16097182.64549 -12265613.71847  21963725.270    21963729.804
  23437401.636    -9925855.62649  -7532320.05445  23437401.455    23437405.794
  21450296.965   -24927446.91749 -19401435.53947  21450296.399    21450299.799
  22370170.345   -16705036.74649 -12988427.96046  22370169.694    22370174.843
  23268934.090    -9349044.43449  -7264272.83645  23268934.092    23268939.308
  24666689.339    -3338968.12749  -1884270.89245  24666689.346    24666695.801
  22592657.200   -15205016.81749 -11833634.28246  22592656.300    22592661.050
  20364099.771   -28143446.30049 -21481769.75148  20364099.497    20364103.783
  23007918.723   -13318325.09149 -10065732.57346  23007918.369    23007923.000
  24373382.459    -5391197.29049  -4189988.45345  24373382.149    24373386.605
 03 12 29  2 19 30.0000000  0 10G30G29G21G17G26G 5G10G 6G18G16
  21981019.532   -16006300.30649 -12194796.30847  21981019.607    21981024.151
  23428855.136    -9970767.05449  -7567315.92645  23428854.902    23428859.293
  21441931.018   -24971410.45249 -19435692.79747  21441930.410    21441933.781
  22382051.040   -16642603.30549 -12939778.50846  22382050.439    22382055.544
  23253820.777    -9428465.51949  -7326159.32845  23253820.715    23253825.952
  24687275.580    -3230786.63249  -1799973.62045  24687275.635    24687281.990
  22609572.297   -15116126.98549 -11764369.47346  22609571.390    22609576.187
  20361154.448   -28158924.03549 -21493830.30648  20361154.166    20361158.453
  22988792.391   -13418834.84049 -10144051.78946  22988791.990    22988796.520
  24357771.487    -5473233.72449  -4253912.88045  24357771.016    24357775.565
 03 12 29  2 20  0.0000000  0 10G30G29G21G17G26G 5G10G 6G18G16
  21998368.542   -15915130.34049 -12123754.77647  21998368.686    21998373.225
  23420382.870   -10015288.78949  -7602008.11345  23420382.656    23420387.142
  21433606.729   -25015154.45549 -19469778.99947  21433606.143    21433609.590
  22393950.608   -16580070.49949 -12891051.63546  22393949.991    22393955.120
  23238758.276    -9507618.55949  -7387836.97145  23238758.303    23238763.503
  24707854.034    -3122647.50149  -1715709.31945  24707853.858    24707860.056
  22626549.127   -15026913.21849 -11694852.24046  22626548.206    22626553.013
  20358279.414   -28174032.34949 -21505603.00148  20358279.137    20358283.439
  22969708.869   -13519120.34749 -10222196.26346  22969708.282    22969712.748
  24342226.515    -5554922.65249  -4317566.50345  24342226.048    24342230.597
 03 12 29  2 20 30.0000000  0 10G30G29G21G17G26G 5G10G 6G18G16
  22015771.432   -15823677.48649 -12052492.81147  22015771.588    22015776.133
  23411984.895   -10059420.10049  -7636396.07545  23411984.711    23411989.209
  21425323.879   -25058680.84949 -19503695.63747  21425323.288    21425326.774
  22405868.733   -16517440.67649 -12842249.16546  22405868.090    22405873.150
  23223747.279    -9586501.91049  -7449304.44245  23223747.225    23223752.477
  24728423.705    -3014554.56349  -1631481.01945  24728423.269    24728429.331
  22643586.702   -14937380.18149 -11625086.20946  22643585.782    22643590.499
  20355474.552   -28188771.65849 -21517088.15848  20355474.288    20355478.619
  22950667.962   -13619180.85349 -10300165.42646  22950667.394    22950671.727
  24326747.728    -5636263.37449  -4380948.78745  24326747.203    24326751.827
 03 12 29  2 21  0.0000000  0 10G30G29G21G17G26G 5G10G 6G18G16
  22033227.702   -15731944.41249 -11981012.48947  22033227.844    22033232.334
  23403661.812   -10103158.55049  -7670477.92346  23403661.612    23403666.030
  21417082.535   -25101989.44149 -19537442.55747  21417081.943    21417085.374
  22417805.086   -16454714.56549 -12793371.67146  22417804.427    22417809.584
  23208788.327    -9665111.80849  -7510558.84645  23208788.221    23208793.436
  24748983.942    -2906510.39149  -1547290.72845  24748983.505    24748989.434
  22660684.562   -14847530.44949 -11555073.42446  22660683.635    22660688.342
  20352740.306   -28203140.28849 -21528284.47848  20352740.041    20352744.338
  22931670.109   -13719014.45949 -10377957.77846  22931669.566    22931673.954
  24311335.820    -5717253.30849  -4444057.73545  24311335.303    24311339.835
 03 12 29  2 21 30.0000000  0 10G30G29G21G17G26G 5G10G 6G18G16
  22050736.666   -15639934.02649 -11909316.07647  22050736.822    22050741.335
  23395413.793   -10146501.72349  -7704251.75246  23395413.633    23395418.094
  21408882.559   -25145080.61149 -19571020.05247  21408881.960    21408885.314
  22429759.623   -16391892.85749 -12744419.68246  22429758.981    22429764.176
  23193881.933    -9743444.65249  -7571597.36145  23193881.840    23193887.038
  24769534.431    -2798517.13449  -1463140.10445  24769533.959    24769539.929
  22677842.105   -14757366.91249 -11484816.10446  22677841.227    22677845.918
  20350076.865   -28217136.89849 -21539190.90848  20350076.585    20350080.878
  22912716.003   -13818618.61249 -10455571.33146  22912715.497    22912719.873
  24295991.199    -5797889.88249  -4506891.35745  24295990.686    24295995.059
 03 12 29  2 22  0.0000000  0 10G30G29G21G17G26G 5G10G 6G18G16
  22068298.093   -15547648.53549 -11837405.30547  22068298.185    22068302.650
  23387241.514   -10189446.67549  -7737715.30346  23387241.330    23387245.886
  21400724.012   -25187953.82549 -19604427.71747  21400723.417    21400726.735
  22441732.330   -16328975.58249 -12695393.22046  22441731.682    22441736.897
  23179029.093    -9821496.40249  -7632416.84845  23179029.082    23179034.349
  24790074.860    -2690576.50649  -1379030.50245  24790074.319    24790080.443
  22695058.906   -14666892.00949 -11414316.16346  22695058.028    22695062.774
  20347484.574   -28230759.40249 -21549805.83648  20347484.290    20347488.573
  22893806.077   -13917990.47749 -10533003.89046  22893805.568    22893809.890
  24280714.262    -5878170.24149  -4569447.40745  24280713.732    24280718.072
 03 12 29  2 22 30.0000000  0 10G30G29G21G17G26G 5G10G 6G18G16
  22085911.143   -15455091.54549 -11765282.96947  22085911.252    22085915.672
  23379145.458   -10231991.31349  -7770866.88146  23379145.325    23379149.834
  21392606.847   -25230609.79049 -19637666.09647  21392606.237    21392609.582
  22453723.035   -16265963.97849 -12646293.24846  22453722.371    22453727.586
  23164230.455    -9899263.94949  -7693014.85945  23164230.397    23164235.669
  24810604.768    -2582691.17049  -1294963.96845  24810604.236    24810610.316
  22712334.349   -14576108.94149 -11343576.10046  22712333.469    22712338.261
  20344963.658   -28244006.84949 -21560128.50648  20344963.365    20344967.643
  22874940.730   -14017128.05549 -10610253.89446  22874940.268    22874944.546
  24265505.521    -5958092.32649  -4631724.30545  24265505.011    24265509.340
 03 12 29  2 23  0.0000000  0 10G30G29G21G17G26G 5G10G 6G18G16
  22103575.194   -15362265.68749 -11692951.12747  22103575.363    22103579.809
  23371126.141   -10274133.27249  -7803704.71646  23371125.947    23371130.383
  21384530.943   -25273048.64549 -19670735.30347  21384530.328    21384533.703
  22465731.557   -16202858.89449 -12597120.45446  22465730.878    22465736.013
  23149486.542    -9976743.71949  -7753388.64645  23149486.414    23149491.637
  24831123.526    -2474864.17749  -1210942.90245  24831122.992    24831129.245
  22729667.819   -14485020.52749 -11272598.09746  22729666.959    22729671.726
  20342514.353   -28256877.78449 -21570157.79548  20342514.071    20342518.344
  22856120.476   -14116029.20449 -10687319.66146  22856119.917    22856124.172
  24250365.369    -6037653.76649  -4693720.16645  24250364.922    24250369.237
 03 12 29  2 23 30.0000000  0  9G30G29G21G17G26G10G 6G18G16
  22121290.511   -15269171.17449 -11620409.95147  22121290.659    22121295.092
  23363184.319   -10315867.38949  -7836224.76446  23363184.194    23363188.549
  21376496.884   -25315267.68649 -19703633.22347  21376496.270    21376499.632
  22477758.271   -16139657.68549 -12547872.74046  22477757.642    22477762.738
  23134798.532   -10053929.17249  -7813533.09145  23134798.512    23134803.636
  22747059.516   -14393626.51949 -11201381.97646  22747058.609    22747063.402
  20340137.565   -28269367.99449 -21579890.41148  20340137.286    20340141.520
  22837346.008   -14214689.28149 -10764197.58746  22837345.495    22837349.745
  24235294.941    -6116849.01549  -4755430.67845  24235294.495    24235298.775
 03 12 29  2 24  0.0000000  0  9G30G29G21G17G26G10G 6G18G16
  22139055.689   -15175814.38849 -11547664.40147  22139055.861    22139060.321
  23355319.975   -10357194.88749  -7868427.96645  23355319.839    23355324.135
  21368503.983   -25357270.52349 -19736362.66847  21368503.393    21368506.707
  22489802.658   -16076364.68249 -12498553.49646  22489801.934    22489807.015
  23120166.709   -10130820.43349  -7873448.29445  23120166.552    23120171.739
  22764508.142   -14301933.11949 -11129932.56746  22764507.220    22764512.061
  20337832.799   -28281479.70049 -21589328.09148  20337832.512    20337836.723
  22818617.253   -14313109.19749 -10840888.36746  22818616.780    22818621.012
  24220293.958    -6195679.35149  -4816856.84545  24220293.559    24220297.814
 03 12 29  2 24 30.0000000  0  9G30G29G21G17G26G10G 6G18G16
  22156870.236   -15082198.28449 -11474716.78347  22156870.398    22156874.841
  23347533.374   -10398113.28749  -7900312.39245  23347533.279    23347537.477
  21360552.084   -25399057.75949 -19768924.11347  21360551.498    21360554.813
  22501864.157   -16012980.61449 -12449163.30946  22501863.494    22501868.524
  23105591.194   -10207413.97549  -7933131.52045  23105591.203    23105596.390
  22782013.185   -14209943.46149 -11058252.28846  22782012.281    22782017.067
  20335600.262   -28293211.56549 -21598469.78548  20335599.977    20335604.196
  22799934.476   -14411287.28849 -10917390.71946  22799934.014    22799938.261
  24205362.981    -6274142.37349  -4877996.81145  24205362.596    24205366.722
 03 12 29  2 25  0.0000000  0  9G30G29G21G17G26G10G 6G18G16
  22174733.627   -14988325.51549 -11401569.16847  22174733.791    22174738.262
  23339825.060   -10438620.38749  -7931876.31145  23339824.996    23339829.173
  21352641.284   -25440629.01849 -19801317.27647  21352640.705    21352644.075
  22513942.991   -15949506.01749 -12399702.57146  22513942.312    22513947.353
  23091073.340   -10283706.14749  -7992579.90745  23091073.253    23091078.369
  22799574.077   -14117660.25549 -10986343.29846  22799573.184    22799577.922
  20333440.367   -28304561.98749 -21607314.25948  20333440.092    20333444.303
  22781298.308   -14509220.93849 -10993702.60146  22781297.816    22781302.077
  24190502.362    -6352235.57249  -4938848.63045  24190501.954    24190506.001
 03 12 29  2 25 30.0000000  0  9G30G29G21G17G26G10G 6G18G16
  22192645.262   -14894199.16149 -11328223.95746  22192645.411    22192649.907
  23332195.476   -10478713.72649  -7963117.82946  23332195.308    23332199.720
  21344771.524   -25481984.60049 -19833542.37447  21344770.943    21344774.365
  22526038.821   -15885941.72749 -12350171.93846  22526038.208    22526043.176
  23076613.377   -10359693.32149  -8051790.62845  23076613.443    23076618.372
  22817190.284   -14025086.25549 -10914207.69346  22817189.389    22817194.161
  20331353.272   -28315529.66549 -21615860.48848  20331352.997    20331357.194
  22762709.069   -14606907.79649 -11069822.16746  22762708.634    22762712.878
  24175712.531    -6429956.54549  -4999410.40045  24175712.113    24175716.078
 03 12 29  2 26  0.0000000  0  9G30G29G21G17G26G10G 6G18G16
  22210604.724   -14799821.78049 -11254683.13846  22210604.828    22210609.346
  23324645.130   -10518390.79249  -7994034.96846  23324644.925    23324649.448
  21336942.837   -25523124.23349 -19865599.19547  21336942.292    21336945.693
  22538151.839   -15822287.78049 -12300571.43546  22538151.203    22538156.062
  23062212.344   -10435371.78149  -8110760.80545  23062212.253    23062217.156
  22834861.397   -13932223.91849 -10841847.41346  22834860.495    22834865.315
  20329339.394   -28326112.65849 -21624106.96548  20329339.101    20329343.299
  22744167.451   -14704344.99149 -11145747.19946  22744166.901    22744171.106
  24160993.917    -6507302.53849  -5059679.95345  24160993.513    24160997.461
 03 12 29  2 26 30.0000000  0  9G30G29G21G17G26G10G 6G18G16
  22228611.352   -14705196.25849 -11180948.97346  22228611.453    22228615.974
  23317174.504   -10557649.37349  -8024626.01346  23317174.276    23317178.732
  21329155.335   -25564047.76849 -19897487.63647  21329154.753    21329158.116
  22550281.694   -15758544.82849 -12250901.59746  22550281.105    22550285.926
  23047870.445   -10510738.03649  -8169487.71245  23047870.391    23047875.296
  22852586.886   -13839075.87049 -10769264.50846  22852585.974    22852590.791
  20327398.942   -28336309.77449 -21632052.75748  20327398.655    20327402.858
  22725673.585   -14801530.72649 -11221476.28546  22725673.034    22725677.161
  24146347.157    -6584271.26849  -5119655.55745  24146346.662    24146350.768
 03 12 29  2 27  0.0000000  0  9G30G29G21G17G26G10G 6G18G16
  22246664.648   -14610325.30549 -11107023.55346  22246664.834    22246669.327
  23309783.948   -10596486.87449  -8054888.94746  23309783.692    23309788.168
  21321408.871   -25604755.78649 -19929208.13747  21321408.266    21321411.621
  22562428.429   -15694713.35749 -12201162.77346  22562427.846    22562432.630
  23033588.723   -10585788.26949  -8227968.36945  23033588.799    23033593.497
  22870366.164   -13745644.88749 -10696461.14146  22870365.255    22870370.093
  20325532.201   -28346119.44249 -21639696.63448  20325531.917    20325536.122
  22707227.937   -14898462.85349 -11297007.74846  22707227.404    22707231.520
  24131772.803    -6660859.94149  -5179335.01945  24131772.262    24131776.367
 03 12 29  2 27 30.0000000  0  9G30G29G21G17G26G10G 6G18G16
  22264764.190   -14515212.14349 -11032909.41046  22264764.284    22264768.753
  23302473.839   -10634901.31449  -8084822.23646  23302473.603    23302478.183
  21313703.370   -25645248.29949 -19960760.71247  21313702.771    21313706.102
  22574591.915   -15630794.02949 -12151355.48346  22574591.306    22574596.063
  23019368.002   -10660519.24349  -8286200.23945  23019367.923    23019372.718
  22888198.678   -13651934.12249 -10623439.75846  22888197.770    22888202.652
  20323739.361   -28355540.65549 -21647037.82448  20323739.088    20323743.303
  22688830.864   -14995139.64149 -11372340.25746  22688830.360    22688834.494
  24117271.186    -6737066.74149  -5238716.90045  24117270.681    24117274.695
 03 12 29  2 28  0.0000000  0  9G30G29G21G17G26G10G 6G18G16
  22282909.265   -14419859.66549 -10958608.77446  22282909.273    22282913.697
  23295244.711   -10672890.63749  -8114424.26046  23295244.468    23295248.972
  21306038.814   -25685525.79649 -19992145.74547  21306038.207    21306041.536
  22586771.826   -15566787.94749 -12101480.61746  22586771.184    22586776.008
  23005208.545   -10734927.45349  -8344180.62245  23005208.476    23005213.268
  22906083.913   -13557946.63849 -10550202.75546  22906083.069    22906087.924
  20322020.733   -28364572.13749 -21654075.33448  20322020.458    20322024.669
  22670482.977   -15091558.29449 -11447471.61946  22670482.452    22670486.619
  24102842.598    -6812889.31549  -5297799.41845  24102842.050    24102846.176
 03 12 29  2 28 30.0000000  0 10G30G29G15G21G17G26G10G 6G18G16
  22301098.635   -14324273.67649 -10884126.18946  22301098.691    22301103.164
  23288096.356   -10710455.21149  -8143695.30046  23288096.126    23288100.553
  24737572.645    -4494872.57749  -3491236.30345  24737572.034    24737579.027
  21298414.679   -25725591.00149 -20023365.35247  21298414.065    21298417.376
  22598967.734   -15502698.02849 -12051540.40246  22598967.101    22598971.929
  22991110.623   -10809012.22749  -8401908.98945  22991110.576    22991115.276
  22924020.805   -13463687.59149 -10476754.13746  22924019.911    22924024.771
  20320375.978   -28373215.24249 -21660810.20848  20320375.727    20320379.936
  22652183.970   -15187719.77249 -11522402.58846  22652183.450    22652187.674
  24088487.056    -6888327.95149  -5356582.72645  24088486.538    24088490.652
 03 12 29  2 29  0.0000000  0 10G30G29G15G21G17G26G10G 6G18G16
  22319331.772   -14228457.23949 -10809464.02646  22319331.918    22319336.444
  23281029.216   -10747593.03749  -8172633.81746  23281028.989    23281033.469
  24722049.605    -4576450.37049  -3554803.21245  24722048.732    24722054.784
  21290830.824   -25765444.31249 -20054419.84347  21290830.215    21290833.509
  22611179.398   -15438525.31449 -12001535.68446  22611178.767    22611183.650
  22977074.865   -10882770.19949  -8459382.67445  22977074.892    22977079.628
  22942008.791   -13369160.08749 -10403096.33046  22942007.879    22942012.726
  20318805.364   -28381468.84849 -21667241.57548  20318805.104    20318809.304
  22633934.309   -15283622.30949 -11597131.77746  22633933.754    22633937.987
  24074204.892    -6963380.36449  -5415065.06345  24074204.495    24074208.637
 03 12 29  2 29 30.0000000  0 10G30G29G15G21G17G26G10G 6G18G16
  22337609.372   -14132407.64049 -10734620.19146  22337609.514    22337614.049
  23274044.752   -10784296.55249  -8201233.92546  23274044.485    23274048.975
  24706542.277    -4657939.64449  -3618301.23945  24706541.378    24706547.896
  21283288.288   -25805080.70649 -20085305.31747  21283287.657    21283290.912
  22623407.767   -15374264.77949 -11951462.54146  22623407.121    22623412.067
  22963103.111   -10956192.46949  -8516594.79345  22963103.045    22963107.838
  22960048.346   -13274361.22749 -10329227.06546  22960047.509    22960052.320
  20317310.138   -28389326.16549 -21673364.14648  20317309.869    20317314.089
  22615735.317   -15379258.39849 -11671653.35646  22615734.773    22615738.973
  24059997.719    -7038038.93649  -5473240.55245  24059997.410    24060001.533
 03 12 29  2 30  0.0000000  0 10G30G29G15G21G17G26G10G 6G18G16
  22355930.769   -14036128.52049 -10659597.50246  22355930.821    22355935.352
  23267143.243   -10820564.09449  -8229494.29346  23267142.962    23267147.401
  24691051.671    -4739341.02149  -3681730.73445  24691051.051    24691057.731
  21275786.898   -25844500.75549 -20116022.20447  21275786.280    21275789.515
  22635652.646   -15309917.49449 -11901321.78646  22635652.004    22635656.921
  22949195.609   -11029276.08049  -8573543.02045  22949195.663    22949200.434
  22978138.954   -13179294.39949 -10255149.00746  22978138.166    22978142.922
  20315890.496   -28396786.51549 -21679177.39548  20315890.222    20315894.433
  22597587.407   -15474625.87449 -11745965.61646  22597586.896    22597591.094
  24045865.948    -7112301.84449  -5531107.73445  24045865.534    24045869.667
 03 12 29  2 30 30.0000000  0 10G30G29G15G21G17G26G10G 6G18G16
  22374294.857   -13939624.48249 -10584399.54446  22374294.948    22374299.458
  23260324.714   -10856395.37449  -8257414.73346  23260324.512    23260328.907
  24675578.476    -4820656.00849  -3745092.89645  24675577.653    24675584.016
  21268326.344   -25883706.16049 -20146571.83947  21268325.705    21268328.937
  22647913.535   -15245486.03549 -11851115.44646  22647912.896    22647917.792
  22935353.078   -11102019.24949  -8630225.95145  22935353.075    22935357.844
  22996279.731   -13083964.39049 -10180865.86346  22996278.867    22996283.629
  20314546.316   -28403850.22949 -21684681.58048  20314546.042    20314550.226
  22579490.609   -15569724.70049 -11820068.54546  22579490.154    22579494.364
  24031809.621    -7186168.56349  -5588666.19545  24031809.065    24031813.200
 03 12 29  2 31  0.0000000  0 10G30G29G15G21G17G26G10G 6G18G16
  22392701.148   -13842898.53949 -10509028.68746  22392701.225    22392705.777
  23253589.674   -10891788.21549  -8284993.53946  23253589.435    23253593.819
  24660120.972    -4901884.60049  -3808387.75845  24660120.065    24660126.445
  21260906.479   -25922697.41449 -20176954.60447  21260905.841    21260909.105
  22660190.345   -15180970.74949 -11800843.79146  22660189.747    22660194.630
  22921575.871   -11174418.52649  -8686640.92245  22921575.863    22921580.774
  23014470.018   -12988374.03449 -10106379.85446  23014469.124    23014473.831
  20313277.799   -28410516.11249 -21689875.76648  20313277.541    20313281.733
  22561445.449   -15664552.60449 -11893960.37246  22561444.957    22561449.146
  24017829.096    -7259636.87649  -5645914.19645  24017828.583    24017832.734
 03 12 29  2 31 30.0000000  0 10G30G29G15G21G17G26G10G 6G18G16
  22411149.241   -13745953.47149 -10433487.07046  22411149.344    22411153.798
  23246938.464   -10926740.31049  -8312228.90346  23246938.279    23246942.662
  24644679.269    -4983026.50849  -3871615.09545  24644678.655    24644685.606
  21253527.479   -25961473.99449 -20207170.08847  21253526.860    21253530.138
  22672483.022   -15116371.98149 -11750507.07946  22672482.437    22672487.340
  22907864.821   -11246470.30849  -8742785.11445  22907864.815    22907869.754
  23032709.292   -12892525.95749 -10031693.02446  23032708.378    23032713.074
  20312085.310   -28416782.63849 -21694758.76348  20312085.056    20312089.230
  22543452.181   -15759107.51149 -11967639.47446  22543451.723    22543455.866
  24003924.902    -7332704.14449  -5702849.68245  24003924.429    24003928.534
 03 12 29  2 32  0.0000000  0 10G30G29G15G21G17G26G10G 6G18G16
  22429638.398   -13648792.31449 -10357777.08646  22429638.484    22429642.948
  23240371.509   -10961249.55149  -8339119.18546  23240371.326    23240375.713
  24629254.929    -5064081.72149  -3934774.85445  24629254.392    24629261.505
  21246189.277   -26000036.60649 -20237218.84547  21246188.670    21246191.929
  22684791.474   -15051690.59549 -11700105.98946  22684790.866    22684795.834
  22894220.535   -11318171.27249  -8798655.94645  22894220.561    22894225.417
  23050997.017   -12796422.91249  -9956807.52946  23050996.157    23051000.887
  20310969.002   -28422648.86049 -21699329.83448  20310968.739    20310972.911
  22525511.260   -15853387.40649 -12041104.28046  22525510.803    22525514.948
  23990097.253    -7405368.32549  -5759471.05745  23990096.812    23990100.927
 03 12 29  2 32 30.0000000  0 10G30G29G15G21G17G26G10G 6G18G16
  22448167.889   -13551418.54149 -10281901.41746  22448168.067    22448172.555
  23233889.153   -10995314.57949  -8365663.31346  23233888.983    23233893.304
  24613847.253    -5145050.64349  -3997867.33845  24613846.470    24613853.422
  21238891.617   -26038386.04449 -20267101.49747  21238891.002    21238894.227
  22697115.522   -14986927.40449 -11649641.14846  22697114.855    22697119.852
  22880643.526   -11389518.59949  -8854251.22546  22880643.580    22880648.461
  23069332.687   -12700068.27849  -9881725.97646  23069331.805    23069336.497
  20309929.046   -28428113.98049 -21703588.36048  20309928.789    20309932.937
  22507622.986   -15947390.78849 -12114353.62546  22507622.537    22507626.671
  23976346.680    -7477627.70049  -5815777.01845  23976346.221    23976350.375
 03 12 29  2 33  0.0000000  0 10G30G29G15G21G17G26G10G 6G18G16
  22466737.390   -13453834.96849 -10205862.26946  22466737.621    22466742.074
  23227491.677   -11028933.32749  -8391859.69946  23227491.503    23227495.845
  24598455.137    -5225932.91249  -4060892.34645  24598454.526    24598461.759
  21231634.544   -26076522.16349 -20296817.92147  21231633.906    21231637.136
  22709454.908   -14922083.19349 -11599113.18046  22709454.242    22709459.267
  22867134.615   -11460508.70449  -8909568.13846  22867134.662    22867139.428
  23087715.711   -12603464.71449  -9806450.46146  23087714.828    23087719.578
  20308965.667   -28433176.64149 -21707533.27848  20308965.386    20308969.545
  22489787.815   -16041115.43249 -12187385.76746  22489787.314    22489791.416
  23962673.592    -7549479.99049  -5871765.77245  23962673.137    23962677.335
 03 12 29  2 33 30.0000000  0 10G30G29G15G21G17G26G10G 6G18G16
  22485346.406   -13356044.18949 -10129661.66446  22485346.638    22485351.038
  23221179.540   -11062103.32349  -8417706.40646  23221179.422    23221183.721
  24583080.125    -5306727.90749  -4123849.39345  24583079.658    24583086.936
  21224418.078   -26114444.75049 -20326367.96047  21224417.471    21224420.659
  22721809.715   -14857157.98749 -11548522.10546  22721809.049    22721814.123
  22853694.355   -11531137.68649  -8964603.66046  22853694.357    22853699.078
  23106145.530   -12506614.83349  -9730983.01646  23106144.709    23106149.466
  20308079.155   -28437835.09049 -21711163.23148  20308078.890    20308083.035
  22472006.106   -16134558.88949 -12260198.80646  22472005.584    22472009.655
  23949078.501    -7620922.39649  -5927435.14345  23949078.058    23949082.288
 03 12 29  2 34  0.0000000  0 10G30G29G15G21G17G26G10G 6G18G16
  22503994.151   -13258050.20849 -10053302.72246  22503994.259    22503998.648
  23214953.046   -11094823.60049  -8443202.68546  23214952.923    23214957.160
  24567722.377    -5387436.79949  -4186739.28145  24567721.678    24567728.599
  21217242.003   -26152155.07649 -20355752.60147  21217241.370    21217244.551
  22734179.572   -14792153.33149 -11497869.10946  22734178.965    22734184.135
  22840323.154   -11601403.21449  -9019355.97146  22840323.203    22840328.009
  23124621.675   -12409522.30949  -9655326.48346  23124620.848    23124625.529
  20307269.623   -28442089.25149 -21714478.15048  20307269.340    20307273.492
  22454278.040   -16227720.21549 -12332792.00046  22454277.527    22454281.603
  23935561.747    -7691953.73449  -5982784.19445  23935561.286    23935565.359
 03 12 29  2 34 30.0000000  0 10G30G29G15G21G17G26G10G 6G18G16
  22522679.982   -13159855.71749  -9976787.53146  22522680.093    22522684.439
  23208812.672   -11127091.74749  -8468346.65346  23208812.494    23208816.730
  24552380.722    -5468059.05749  -4249561.64945  24552379.863    24552386.387
  21210106.366   -26189653.13549 -20384971.83747  21210105.749    21210108.943
  22746564.553   -14727069.48149 -11447154.40946  22746563.961    22746569.127
  22827021.978   -11671301.60549  -9073822.20446  22827022.021    22827026.742
  23143143.601   -12312189.34049  -9579482.60046  23143142.676    23143147.380
  20306537.304   -28445937.60949 -21717476.85948  20306537.017    20306541.158
  22436604.142   -16320596.87349 -12405163.37646  22436603.652    22436607.706
  23922123.621    -7762571.71049  -6037811.14045  23922123.129    23922127.217
 03 12 29  2 35  0.0000000  0 10G30G29G15G21G17G26G10G 6G18G16
  22541403.414   -13061463.08449  -9900117.95646  22541403.541    22541407.904
  23202758.716   -11158905.38349  -8493136.47246  23202758.514    23202762.791
  24537054.102    -5548594.17549  -4312316.17245  24537053.643    24537060.948
  21203011.079   -26226938.94249 -20414025.69147  21203010.461    21203013.667
  22758964.653   -14661906.55049 -11396378.07946  22758964.027    22758969.149
  22813791.345   -11740829.13949  -9127999.44946  22813791.381    22813796.015
  23161710.686   -12214618.37749  -9503453.27646  23161709.802    23161714.553
  20305882.469   -28449378.62849 -21720158.16548  20305882.190    20305886.342
  22418984.906   -16413186.33149 -12477310.95846  22418984.430    22418988.447
  23908764.619    -7832773.55949  -6092513.82345  23908764.058    23908768.209
 03 12 29  2 35 30.0000000  0 10G30G29G15G21G17G26G10G 6G18G16
  22560164.150   -12962875.09149  -9823296.14346  22560164.254    22560168.572
  23196791.653   -11190262.41449  -8517570.48546  23196791.516    23196795.658
  24521745.029    -5629041.37049  -4375002.20545  24521744.718    24521752.386
  21195956.372   -26264011.65349 -20442913.49347  21195955.745    21195958.923
  22771379.805   -14596664.54749 -11345540.15546  22771379.172    22771384.177
  22800632.018   -11809981.85349  -9181884.63146  22800631.961    22800636.628
  23180322.618   -12116812.02649  -9427240.52946  23180321.747    23180326.430
  20305305.507   -28452410.67749 -21722520.79548  20305305.220    20305309.366
  22401420.832   -16505486.28449 -12549232.95146  22401420.330    22401424.304
  23895485.305    -7902556.64449  -6146890.19545  23895484.690    23895488.950
 03 12 29  2 36  0.0000000  0 10G30G29G15G21G17G26G10G 6G18G16
  22578961.194   -12864095.84849  -9746325.31646  22578961.291    22578965.622
  23190911.584   -11221161.78949  -8541647.88946  23190911.417    23190915.671
  24506453.986    -5709402.03849  -4437620.77945  24506453.354    24506460.312
  21188941.866   -26300872.82049 -20471636.45247  21188941.241    21188944.406
  22783809.677   -14531345.32949 -11294642.05446  22783809.047    22783814.005
  22787544.353   -11878757.74049  -9235476.17246  22787544.262    22787548.975
  23198978.576   -12018774.27949  -9350847.46146  23198977.702    23198982.442
  20304806.359   -28455033.81449 -21724564.78848  20304806.075    20304810.226
  22383911.886   -16597496.05549 -12620928.83146  22383911.371    22383915.379
  23882285.892    -7971920.14749  -6200939.62845  23882285.248    23882289.451
 03 12 29  2 36 30.0000000  0 10G30G29G15G21G17G26G10G 6G18G16
  22597794.187   -12765127.91549  -9669207.44346  22597794.243    22597798.604
  23185119.008   -11251601.43849  -8565367.06446  23185118.846    23185123.152
  24491178.697    -5789675.60149  -4500171.48845  24491177.882    24491184.478
  21181967.655   -26337522.36649 -20500194.51847  21181967.049    21181970.187
  22796254.282   -14465948.99149 -11243683.86646  22796253.652    22796258.457
  22774529.092   -11947153.01449  -9288771.14446  22774529.052    22774533.791
  23217678.047   -11920507.68149  -9274276.09246  23217677.207    23217681.988
  20304385.264   -28457246.49949 -21726288.95248  20304384.987    20304389.122
  22366458.560   -16689213.28949 -12692396.76046  22366458.083    22366462.151
  23869166.659    -8040861.60349  -6254660.17945  23869166.070    23869170.275
 03 12 29  2 37  0.0000000  0 10G30G29G15G21G17G26G10G 6G18G16
  22616662.520   -12665973.75049  -9591944.46746  22616662.620    22616667.054
  23179414.574   -11281578.94949  -8588726.13646  23179414.375    23179418.566
  24475918.996    -5869861.30249  -4562653.80745  24475918.356    24475925.334
  21175033.765   -26373960.07349 -20528587.51547  21175033.140    21175036.290
  22808713.497   -14400475.71849 -11192665.72546  22808712.867    22808717.605
  22761586.992   -12015163.86149  -9341766.55946  22761586.952    22761591.651
  23236420.751   -11822014.24549  -9197527.95546  23236419.851    23236424.633
  20304042.608   -28459046.97849 -21727691.91448  20304042.344    20304046.502
  22349061.418   -16780635.57949 -12763634.86646  22349060.957    22349064.997
  23856128.364    -8109378.20649  -6308049.70245  23856127.817    23856131.989
 03 12 29  2 37 30.0000000  0 10G30G29G15G21G17G26G10G 6G18G16
  22635565.706   -12566636.32749  -9514538.69046  22635565.874    22635570.349
  23173798.341   -11311092.39249  -8611723.58746  23173798.114    23173802.306
  24460676.770    -5949959.35649  -4625067.79545  24460676.285    24460683.166
  21168140.179   -26410186.19249 -20556815.63647  21168139.582    21168142.728
  22821187.159   -14334925.81749 -11141587.87346  22821186.591    22821191.364
  22748718.713   -12082786.99549  -9394459.87246  22748718.630    22748723.257
  23255206.007   -11723296.51349  -9120605.05446  23255205.146    23255209.966
  20303778.661   -28460434.12249 -21728772.79448  20303778.397    20303782.527
  22331720.942   -16871760.56449 -12834641.30046  22331720.432    22331724.488
  23843171.344    -8177467.89949  -6361106.57145  23843170.736    23843174.862
 03 12 29  2 38  0.0000000  0 10G30G29G15G21G17G26G10G 6G18G16
  22654503.255   -12467119.05949  -9436992.76146  22654503.344    22654507.849
  23168270.610   -11340140.52349  -8634358.46146  23168270.410    23168274.580
  24445451.926    -6029970.12149  -4687413.74445  24445451.147    24445457.750
  21161286.728   -26446201.30549 -20584879.34047  21161286.126    21161289.275
  22833675.254   -14269300.28949 -11090451.09346  22833674.686    22833679.420
  22735924.655   -12150019.60749  -9446848.87746  22735924.687    22735929.294
  23274033.424   -11624357.99349  -9043510.08846  23274032.553    23274037.349
  20303593.409   -28461407.51049 -21729531.27248  20303593.135    20303597.250
  22314437.246   -16962587.03349 -12905415.12546  22314436.687    22314440.763
  23830295.843    -8245129.06049  -6413829.51045  23830295.280    23830299.310
 03 12 29  2 38 30.0000000  0 10G30G29G15G21G17G26G10G 6G18G16
  22673474.347   -12367425.02249  -9359309.09046  22673474.500    22673478.990
  23162831.860   -11368721.44949  -8656629.28846  23162831.606    23162835.799
  24430242.722    -6109893.48849  -4749691.62745  24430241.847    24430248.618
  21154473.336   -26482005.70149 -20612778.84247  21154472.743    21154475.890
  22846177.691   -14203599.70349 -11039255.81846  22846177.041    22846181.856
  22723205.774   -12216858.30849  -9498930.94646  22723205.812    22723210.327
  23292902.314   -11525201.43649  -8966245.24046  23292901.460    23292906.275
  20303487.146   -28461965.90149 -21729966.37248  20303486.879    20303490.975
  22297210.648   -17053112.64549 -12975954.51746  22297210.153    22297214.236
  23817502.256    -8312359.63949  -6466216.93545  23817501.717    23817505.727
 03 12 29  2 39  0.0000000  0 10G30G29G15G21G17G26G10G 6G18G16
  22692478.760   -12267556.48449  -9281489.45446  22692478.844    22692483.347
  23157482.351   -11396832.60949  -8678534.04646  23157482.199    23157486.297
  24415050.172    -6189728.69149  -4811900.82245  24415049.483    24415055.999
  21147700.161   -26517598.85049 -20640513.74647  21147699.572    21147702.694
  22858694.348   -14137823.90349 -10988001.95046  22858693.656    22858698.610
  22710562.459   -12283299.06649  -9550702.92846  22710562.485    22710567.068
  23311812.260   -11425828.93549  -8888812.13446  23311811.369    23311816.248
  20303460.182   -28462107.65349 -21730076.82448  20303459.917    20303464.011
  22280041.830   -17143335.36949 -13046257.89446  22280041.308    22280045.414
  23804791.160    -8379156.67749  -6518266.55145  23804790.656    23804794.624
 03 12 29  2 39 30.0000000  0 10G30G29G15G21G17G26G10G 6G18G16
  22711515.616   -12167516.98149  -9203536.58246  22711515.795    22711520.257
  23152222.610   -11424472.90349  -8700071.90646  23152222.490    23152226.475
  24399874.916    -6269476.27449  -4874041.69645  24399874.108    24399880.383
  21140967.102   -26552981.26449 -20668084.43447  21140966.523    21140969.586
  22871225.122   -14071973.77849 -10936690.15746  22871224.471    22871229.461
  22697995.312   -12349339.09649  -9602162.64446  22697995.355    22697999.979
  23330762.671   -11326244.05349  -8811213.50346  23330761.710    23330766.612
  20303512.595   -28461832.17449 -21729862.15948  20303512.341    20303516.396
  22262930.926   -17233253.36349 -13116323.81846  22262930.434    22262934.545
  23792162.793    -8445518.83449  -6569977.28945  23792162.359    23792166.301
 03 12 29  2 40  0.0000000  0 10G30G29G15G21G17G26G10G 6G18G16
  22730584.523   -12067309.44649  -9125452.78746  22730584.674    22730589.145
  23147052.787   -11451640.47049  -8721241.40446  23147052.619    23147056.597
  24384716.192    -6349135.90049  -4936114.06445  24384715.304    24384722.001
  21134274.066   -26588153.37649 -20695491.24947  21134273.467    21134276.503
  22883769.976   -14006049.92849 -10885320.91346  22883769.336    22883774.383
  22685505.169   -12414975.27849  -9653307.67546  22685505.192    22685509.762
  23349752.899   -11226449.48249  -8733451.49346  23349751.953    23349756.864
  20303644.648   -28461138.24549 -21729321.42248  20303644.390    20303648.489
  22245878.410   -17322864.81449 -13186150.87747  22245877.899    22245882.010
  23779617.573    -8511443.89749  -6621347.43245  23779617.104    23779621.190
 03 12 29  2 40 30.0000000  0 10G30G29G15G21G17G26G10G 6G18G16
  22749684.842   -11966936.80849  -9047240.33646  22749684.981    22749689.392
  23141973.289   -11478333.68949  -8742041.28946  23141973.086    23141977.026
  24369573.973    -6428707.71849  -4998117.99545  24369573.156    24369580.113
  21127621.012   -26623115.20549 -20722734.20847  21127620.413    21127623.467
  22896328.801   -13940052.80249 -10833894.56946  22896328.211    22896333.232
  22673092.524   -12480204.33049  -9704135.47046  22673092.445    22673097.078
  23368782.620   -11126447.93849  -8655528.20346  23368781.679    23368786.483
  20303856.442   -28460025.03849 -21728453.97648  20303856.183    20303860.297
  22228884.582   -17412167.78149 -13255737.55247  22228884.064    22228888.194
  23767155.886    -8576930.03449  -6672375.56045  23767155.500    23767159.495
 03 12 29  2 41  0.0000000  0 10G30G29G15G21G17G26G10G 6G18G16
  22768816.096   -11866401.99749  -8968901.53946  22768816.157    22768820.550
  23136984.348   -11504550.66449  -8762470.06846  23136984.130    23136988.132
  24354448.652    -6508191.32149  -5060053.16545  24354447.886    24354454.709
  21121007.967   -26657866.79449 -20749813.35247  21121007.381    21121010.462
  22908901.621   -13873982.57849 -10782411.26446  22908901.008    22908905.954
  22660757.881   -12545022.88549  -9754643.39846  22660757.844    22660762.492
  23387851.257   -11026241.80149  -8577445.49846  23387850.348    23387855.066
  20304148.308   -28458491.27749 -21727258.83448  20304148.061    20304152.156
  22211949.729   -17501160.26749 -13325082.29747  22211949.287    22211953.457
  23754778.245    -8641975.00049  -6723059.94845  23754777.820    23754781.758
 03 12 29  2 41 30.0000000  0 10G30G29G15G21G17G26G10G 6G18G16
  22787977.496   -11765707.84049  -8890438.55746  22787977.592    22787982.011
  23132086.408   -11530289.45949  -8782526.25246  23132086.170    23132090.209
  24339340.323    -6587586.47749  -5121919.39445  24339339.526    24339345.971
  21114434.883   -26692408.46249 -20776728.91647  21114434.311    21114437.382
  22921488.176   -13807839.92449 -10730871.52746  22921487.594    22921492.500
  22648501.954   -12609427.56849  -9804828.83246  22648501.958    22648506.606
  23406958.271   -10925833.83649  -8499205.52346  23406957.361    23406962.036
  20304520.411   -28456535.86249 -21725735.13048  20304520.143    20304524.241
  22195074.502   -17589840.20149 -13394183.49547  22195074.020    22195078.174
  23742484.944    -8706576.77849  -6773398.98845  23742484.520    23742488.391
 03 12 29  2 42  0.0000000  0 10G30G29G15G21G17G26G10G 6G18G16
  22807168.598   -11664857.63449  -8811853.97646  22807168.746    22807173.153
  23127279.736   -11555548.80149  -8802208.82346  23127279.498    23127283.504
  24324248.471    -6666893.61449  -5183717.06745  24324247.664    24324254.331
  21107901.681   -26726740.60249 -20803481.21347  21107901.094    21107904.141
  22934088.434   -13741625.32049 -10679275.72746  22934087.822    22934092.717
  22636325.549   -12673415.39749  -9854689.43146  22636325.518    22636330.078
  23426103.128   -10825227.12949  -8420810.67946  23426102.197    23426106.860
  20304972.904   -28454157.90849 -21723882.17348  20304972.650    20304976.730
  22178259.104   -17678205.85249 -13463039.79547  22178258.581    22178262.663
  23730276.308    -8770733.42849  -6823391.14945  23730275.911    23730279.756
 03 12 29  2 42 30.0000000  0 10G30G29G15G21G17G26G10G 6G18G16
  22826388.855   -11563854.29349  -8733150.08546  22826389.020    22826393.460
  23122564.597   -11580326.99149  -8821516.47546  23122564.332    23122568.337
  24309173.491    -6746112.69849  -5245446.12345  24309172.779    24309179.639
  21101408.353   -26760863.31049 -20830070.31347  21101407.769    21101410.792
  22946702.168   -13675339.42849 -10627624.38946  22946701.549    22946706.461
  22624229.024   -12736983.12649  -9904222.69246  22624228.983    22624233.501
  23445285.245   -10724424.13849  -8342262.90045  23445284.347    23445289.006
  20305506.024   -28451356.43549 -21721699.19848  20305505.771    20305509.844
  22161503.823   -17766255.64249 -13531649.96247  22161503.241    22161507.314
  23718152.738    -8834443.09149  -6873035.01145  23718152.295    23718156.239
 03 12 29  2 43  0.0000000  0 10G30G29G15G21G17G26G10G 6G18G16
  22845637.815   -11462700.49249  -8654328.92146  22845637.984    22845642.367
  23117941.236   -11604622.12449  -8840447.73146  23117941.053    23117945.039
  24294115.599    -6825243.35449  -5307106.24345  24294114.815    24294121.420
  21094954.876   -26794776.42449 -20856496.09547  21094954.287    21094957.328
  22959329.610   -13608982.18149 -10575917.43546  22959328.977    22959333.795
  22612213.011   -12800127.36049  -9953425.98146  22612213.011    22612217.549
  23464504.299   -10623427.32749  -8263564.09045  23464503.423    23464508.045
  20306119.961   -28448130.12049 -21719185.17648  20306119.706    20306123.766
  22144808.966   -17853987.08249 -13600012.07547  22144808.438    22144812.563
  23706114.637    -8897703.30249  -6922328.63645  23706114.189    23706118.216
 03 12 29  2 43 30.0000000  0 10G30G29G15G21G17G26G10G 6G18G16
  22864914.840   -11361399.20049  -8575392.86746  22864914.979    22864919.422
  23113410.359   -11628432.56449  -8859001.29746  23113410.089    23113414.012
  24279074.223    -6904285.61549  -5368697.49045  24279073.368    24279079.860
  21088541.227   -26828480.35949 -20882758.88747  21088540.627    21088543.693
  22971970.431   -13542554.24549 -10524155.40246  22971969.746    22971974.470
  22600278.214   -12862844.94249 -10002296.79446  22600278.273    22600282.688
  23483759.749   -10522239.70049  -8184716.57445  23483758.781    23483763.383
  20306814.879   -28444478.26549 -21716339.56748  20306814.605    20306818.665
  22128175.029   -17941398.56849 -13668124.87447  22128174.544    22128178.690
  23694162.452    -8960512.29849  -6971270.67145  23694162.013    23694165.981
 03 12 29  2 44  0.0000000  0 10G30G29G15G21G17G26G10G 6G18G16
  22884219.280   -11259953.74349  -8496344.45846  22884219.385    22884223.848
  23108971.898   -11651756.97649  -8877176.13546  23108971.592    23108975.536
  24264049.294    -6983239.38649  -5430219.78645  24264048.679    24264055.033
  21082167.279   -26861975.50749 -20908858.98447  21082166.680    21082169.769
  22984624.563   -13476056.13349 -10472338.69246  22984623.896    22984628.606
  22588425.361   -12925132.70649 -10050832.66446  22588425.299    22588429.556
  23503050.887   -10420864.12949  -8105722.62645  23503049.907    23503054.545
  20307590.911   -28440400.04349 -21713161.72548  20307590.648    20307594.710
  22111602.344   -18028488.40149 -13735987.02847  22111601.837    22111606.008
  23682296.507    -9022868.35149  -7019859.78545  23682296.037    23682299.965
 03 12 29  2 44 30.0000000  0 10G30G29G15G21G17G26G10G 6G18G16
  22903550.476   -11158366.72949  -8417185.74346  22903550.722    22903555.212
  23104626.230   -11674593.47949  -8894970.79446  23104625.941    23104629.811
  24249041.993    -7062104.67449  -5491673.13345  24249041.238    24249047.740
  21075833.115   -26895261.81549 -20934796.34847  21075832.525    21075835.584
  22997292.029   -13409488.23249 -10420467.58946  22997291.346    22997296.040
  22576654.623   -12986987.54549 -10099031.21546  22576654.578    22576658.943
  23522377.262   -10319303.13049  -8026584.18445  23522376.298    23522380.937
  20308448.369   -28435894.19749 -21709650.67548  20308448.094    20308452.184
  22095091.248   -18115254.52749 -13803596.95447  22095090.767    22095094.876
  23670517.118    -9084769.34849  -7068094.30245  23670516.633    23670520.535
 03 12 29  2 45  0.0000000  0 10G30G29G15G21G17G26G10G 6G18G16
  22922908.226   -11056641.29949  -8337919.17346  22922908.411    22922912.913
  23100373.634   -11696940.91549  -8912384.35946  23100373.374    23100377.174
  24234051.371    -7140881.66549  -5553057.69245  24234050.477    24234057.116
  21069538.612   -26928339.62149 -20960571.24347  21069537.992    21069541.068
  23009972.712   -13342851.03349 -10368542.49646  23009971.958    23009976.744
  22564966.916   -13048406.43549 -10146890.06646  22564966.909    22564971.374
  23541738.372   -10217559.69749  -7947303.55345  23541737.454    23541742.014
  20309387.335   -28430959.87849 -21705805.74948  20309387.054    20309391.129
  22078642.157   -18201695.13249 -13870953.22047  22078641.685    22078645.719
  23658824.624    -9146213.45249  -7115972.76845  23658824.128    23658828.055
 03 12 29  2 45 30.0000000  0 10G30G29G15G21G17G26G10G 6G18G16
  22942291.815   -10954780.24549  -8258546.92146  22942291.922    22942296.402
  23096214.533   -11718797.10149  -8929415.12746  23096214.253    23096217.951
  24219076.915    -7219569.86349  -5614373.10345  24219076.173    24219082.841
  21063283.746   -26961208.98249 -20986183.70847  21063283.143    21063286.228
  23022666.568   -13276144.56149 -10316563.41746  23022665.820    23022670.579
  22553362.970   -13109385.86749 -10194406.46946  22553362.961    22553367.339
  23561133.806   -10115635.96549  -7867882.45845  23561132.917    23561137.503
  20310408.028   -28425595.92849 -21701626.04048  20310407.747    20310411.840
  22062255.395   -18287808.10549 -13938054.19247  22062254.899    22062258.872
  23647219.485    -9207198.40649  -7163493.45645  23647218.962    23647223.064
 03 12 29  2 46  0.0000000  0 10G30G29G15G21G17G26G10G 6G18G16
  22961700.525   -10852786.64949  -8179071.39846  22961700.615    22961705.076
  23092149.084   -11740160.89649  -8946062.20746  23092148.848    23092152.541
  24204119.891    -7298169.41249  -5675619.38445  24204119.296    24204125.295
  21057068.531   -26993869.83049 -21011633.69747  21057067.945    21057071.042
  23035373.464   -13209369.65049 -10264531.02446  23035372.724    23035377.437
  22541843.204   -13169922.87049 -10241578.12446  22541843.147    22541847.465
  23580562.926   -10013534.94949  -7788323.21145  23580562.117    23580566.757
  20311510.640   -28419801.58549 -21697110.96248  20311510.384    20311514.460
  22045931.192   -18373592.10249 -14004898.82447  22045930.730    22045934.671
  23635702.053    -9267722.69049  -7210655.18945  23635701.634    23635705.611
 03 12 29  2 46 30.0000000  0 10G30G29G15G21G17G26G10G 6G18G16
  22981133.842   -10750663.42349  -8099494.85946  22981134.022    22981138.493
  23088177.560   -11761030.89149  -8962324.52146  23088177.347    23088181.159
  24189179.838    -7376680.31749  -5736796.62345  24189179.110    24189185.410
  21050892.920   -27026322.91349 -21036921.79547  21050892.331    21050895.398
  23048093.310   -13142526.44049 -10212445.40546  23048092.577    23048097.240
  22530408.160   -13230014.37249 -10288402.64446  22530408.163    22530412.420
  23600025.270    -9911259.28549  -7708627.89445  23600024.472    23600029.083
  20312695.318   -28413576.05049 -21692259.88748  20312695.054    20312699.110
  22029669.925   -18459045.45649 -14071485.81447  22029669.457    22029673.369
  23624272.727    -9327784.41849  -7257456.49545  23624272.317    23624276.228
 03 12 29  2 47  0.0000000  0 10G30G29G15G21G17G26G10G 6G18G16
  23000591.193   -10648413.30149  -8019819.43346  23000591.502    23000596.064
  23084300.498   -11781405.32749  -8978200.67746  23084300.261    23084303.933
  24174256.422    -7455102.10649  -5797904.46145  24174255.761    24174262.420
  21044756.903   -27058567.90549 -21062047.74347  21044756.298    21044759.332
  23060826.097   -13075615.34449 -10160306.87946  23060825.383    23060830.032
  22519058.459   -13289657.15249 -10334877.49446  22519058.510    22519062.818
  23619520.351    -9808811.46749  -7628798.42045  23619519.617    23619524.276
  20313962.294   -28406917.99349 -21687071.78148  20313962.037    20313966.087
  22013472.107   -18544165.68649 -14137813.22647  22013471.641    22013475.525
  23612931.733    -9387381.48949  -7303895.72945  23612931.288    23612935.257
 03 12 29  2 47 30.0000000  0 10G30G29G15G21G17G26G10G 6G18G16
  23020072.311   -10546039.76749  -7940047.84746  23020072.535    23020077.083
  23080517.859   -11801283.19849  -8993689.90546  23080517.600    23080521.232
  24159350.069    -7533435.30449  -5858943.23345  24159349.510    24159355.903
  21038660.392   -27090605.16949 -21087011.82647  21038659.809    21038662.802
  23073571.588   -13008637.05149 -10108115.99146  23073570.920    23073575.533
  22507794.760   -13348848.42349 -10381000.51846  22507794.758    22507798.986
  23639047.802    -9706194.50249  -7548837.13545  23639046.979    23639051.571
  20315311.685   -28399826.94249 -21681546.28348  20315311.432    20315315.476
  21997337.946   -18628951.17849 -14203879.80747  21997337.490    21997341.328
  23601679.433    -9446512.29149  -7349971.62045  23601679.008    23601683.010
 03 12 29  2 48  0.0000000  0 10G30G29G15G21G17G26G10G 6G18G16
  23039576.494   -10443545.41749  -7860182.11746  23039576.633    23039581.136
  23076829.958   -11820662.72549  -9008790.81946  23076829.793    23076833.512
  24144460.694    -7611679.55149  -5919912.69345  24144459.939    24144466.125
  21032603.443   -27122434.65949 -21111814.00447  21032602.852    21032605.860
  23086329.835   -12941591.65949 -10055872.82946  23086329.157    23086333.869
  22496617.545   -13407584.88249 -10426769.16446  22496617.526    22496621.757
  23658606.882    -9603410.84249  -7468746.00045  23658605.928    23658610.672
  20316743.682   -28392301.89549 -21675682.60648  20316743.401    20316747.459
  21981267.781   -18713400.22649 -14269684.22047  21981267.315    21981271.165
  23590516.307    -9505175.16149  -7395682.90445  23590515.876    23590519.792
 03 12 29  2 48 30.0000000  0 10G30G29G15G21G17G26G10G 6G18G16
  23059102.960   -10340933.40149  -7780224.69546  23059103.134    23059107.524
  23073237.252   -11839542.72349  -9023502.48446  23073237.061    23073240.718
  24129587.902    -7689834.94049  -5980812.91745  24129587.244    24129593.560
  21026585.860   -27154057.15449 -21136454.89147  21026585.258    21026588.322
  23099100.657   -12874479.80749 -10003577.86846  23099100.046    23099104.807
  22485527.448   -13465863.66249 -10472181.16946  22485527.393    22485531.687
  23678197.199    -9500463.27749  -7388527.11545  23678196.216    23678200.928
  20318258.292   -28384342.28249 -21669480.30548  20318258.043    20318262.096
  21965261.860   -18797511.46349 -14335225.40647  21965261.456    21965265.271
  23579442.618    -9563368.12649  -7441028.03345  23579442.162    23579446.014
 03 12 29  2 49  0.0000000  0 10G30G29G15G21G17G26G10G 6G18G16
  23078651.308   -10238206.20249  -7700177.53146  23078651.472    23078655.771
  23069739.812   -11857921.44649  -9037823.54346  23069739.662    23069743.310
  24114732.581    -7767901.02449  -6041643.56445  24114731.799    24114738.089
  21020607.653   -27185472.62849 -21160934.45947  21020607.076    21020610.129
  23111884.244   -12807301.45349  -9951231.09146  23111883.566    23111888.417
  22474525.036   -13523681.54149 -10517234.02146  22474525.000    22474529.296
  23697818.287    -9397354.05349  -7308182.27545  23697817.202    23697821.867
  20319855.896   -28375946.88749 -21662938.43748  20319855.627    20319859.701
  21949320.700   -18881282.84449 -14400501.77047  21949320.262    21949324.085
  23568458.617    -9621089.25649  -7486005.49545  23568458.235    23568461.921
 03 12 29  2 49 30.0000000  0 10G30G29G15G21G17G26G10G 6G18G16
  23098220.887   -10135367.45249  -7620043.42946  23098220.994    23098225.273
  23066337.981   -11875797.93549  -9051753.25246  23066337.787    23066341.471
  24099894.035    -7845878.32049  -6102404.98845  24099893.271    24099899.442
  21014668.938   -27216680.80149 -21185252.49447  21014668.358    21014671.361
  23124680.425   -12740057.61249  -9898833.29446  23124679.747    23124684.493
  22463610.797   -13581035.81249 -10561925.62146  22463610.756    22463615.115
  23717469.562    -9294086.44749  -7227714.01545  23717468.468    23717473.106
  20321536.506   -28367115.19149 -21656056.59148  20321536.233    20321540.304
  21933444.509   -18964712.93749 -14465512.19547  21933444.023    21933447.804
  23557564.723    -9678337.08249  -7530614.16945  23557564.328    23557568.026
 03 12 29  2 50  0.0000000  0 10G30G29G15G21G17G26G10G 6G18G16
  23117811.232   -10032419.68949  -7539824.38346  23117811.303    23117815.546
  23063032.072   -11893170.61649  -9065290.38346  23063031.875    23063035.612
  24085072.289    -7923766.45749  -6163096.97145  24085071.513    24085077.718
  21008769.605   -27247682.05749 -21209409.29147  21008769.002    21008771.977
  23137489.059   -12672748.08849  -9846384.32145  23137488.380    23137493.039
  22452785.448   -13637923.07749 -10606253.32646  22452785.421    22452789.776
  23737150.468    -9190662.85149  -7147124.19245  23737149.333    23737154.002
  20323300.357   -28357846.05549 -21648833.88548  20323300.082    20323304.139
  21917633.628   -19047799.55449 -14530254.97747  21917633.138    21917636.882
  23546761.327    -9735109.63549  -7574852.48745  23546760.836    23546764.545
 03 12 29  2 50 30.0000000  0 10G30G29G15G21G17G26G10G 6G18G16
  23137421.682    -9929365.63949  -7459522.52946  23137421.756    23137426.049
  23059822.241   -11910038.05549  -9078433.81446  23059822.078    23059825.865
  24070267.579    -8001565.27549  -6223719.33045  24070266.801    24070272.898
  21002909.566   -27278476.57149 -21233404.99347  21002908.969    21002911.953
  23150310.049   -12605373.27249  -9793884.46946  23150309.434    23150313.975
  22442049.544   -13694340.36449 -10650214.80846  22442049.552    22442053.953
  23756860.396    -9087085.88649  -7066414.88045  23756859.439    23756864.144
  20325147.612   -28348138.55849 -21641269.59548  20325147.353    20325151.413
  21901888.405   -19130540.92249 -14594728.73047  21901887.948    21901891.671
  23536048.665    -9791404.81849  -7618718.82245  23536048.183    23536051.897
 03 12 29  2 51  0.0000000  0 10G30G29G15G21G17G26G10G 6G18G16
  23157051.757    -9826208.36949  -7379140.22246  23157051.917    23157056.274
  23056708.861   -11926398.92849  -9091182.52446  23056708.673    23056712.483
  24055479.992    -8079274.86749  -6284272.15345  24055479.258    24055485.121
  20997088.835   -27309064.53549 -21257239.75147  20997088.238    20997091.238
  23163143.519   -12537933.48649  -9741333.98046  23163142.870    23163147.325
  22431403.677   -13750284.61049 -10693807.68446  22431403.682    22431408.103
  23776599.133    -8983357.82049  -6985587.82845  23776598.203    23776602.856
  20327078.430   -28337991.99649 -21633363.18148  20327078.157    20327082.222
  21886209.258   -19212935.43049 -14658932.20747  21886208.773    21886212.496
  23525427.071    -9847221.16149  -7662212.05345  23525426.627    23525430.340
 03 12 29  2 51 30.0000000  0 10G30G29G15G21G17G26G10G 6G18G16
  23176700.968    -9722950.89149  -7298679.84146  23176701.164    23176705.613
  23053692.160   -11942252.09049  -9103535.62746  23053691.931    23053695.702
  24040709.173    -8156895.14649  -6344755.41245  24040708.405    24040714.468
  20991307.401   -27339446.08449 -21280913.66247  20991306.801    20991309.821
  23175989.290   -12470429.01349  -9688733.09446  23175988.607    23175993.155
  22420848.328   -13805753.03449 -10737029.78446  22420848.330    22420852.742
  23796366.153    -8879481.29949  -6904645.07145  23796365.279    23796369.792
  20329092.984   -28327405.46649 -21625113.92648  20329092.712    20329096.797
  21870596.346   -19294981.29949 -14722864.01247  21870595.882    21870599.644
  23514897.023    -9902556.97349  -7705330.84446  23514896.545    23514900.204
 03 12 29  2 52  0.0000000  0 10G30G29G15G21G17G26G10G 6G18G16
  23196368.815    -9619596.01449  -7218143.58146  23196368.918    23196373.347
  23050772.204   -11957595.99349  -9115491.89646  23050772.052    23050775.831
  24025955.259    -8234426.02949  -6405169.00345  24025954.618    24025960.672
  20985565.271   -27369621.25649 -21304426.76447  20985564.656    20985567.645
  23188847.083   -12402860.22349  -9636082.08346  23188846.357    23188851.129
  22410384.140   -13860742.54049 -10779878.70646  22410384.144    22410388.513
  23816160.912    -8775459.04449  -6823588.74045  23816160.045    23816164.445
  20331191.395   -28316378.21649 -21616521.25048  20331191.119    20331195.224
  21855050.170   -19376676.82749 -14786522.82947  21855049.674    21855053.447
  23504458.809    -9957410.48349  -7748073.80646  23504458.272    23504461.865
 03 12 29  2 52 30.0000000  0 10G30G29G15G21G17G26G10G 6G18G16
  23216054.700    -9516146.80049  -7137533.81546  23216054.660    23216059.099
  23047949.415   -11972429.85249  -9127050.73046  23047949.287    23047952.959
  24011218.729    -8311867.81149  -6465513.15245  24011218.070    24011223.832
  20979862.365   -27399590.13349 -21327779.11747  20979861.744    20979864.699
  23201716.887   -12335227.76449  -9583381.46545  23201716.197    23201721.152
  22400011.635   -13915250.41349 -10822352.33946  22400011.585    22400015.999
  23835982.851    -8671294.02049  -6742421.19245  23835981.964    23835986.450
  20333373.767   -28304909.71049 -21607584.74348  20333373.508    20333377.603
  21839570.957   -19458020.66849 -14849907.60947  21839570.490    21839574.222
  23494112.567   -10011780.16049  -7790439.77146  23494112.025    23494115.554
 03 12 29  2 53  0.0000000  0 10G30G29G15G21G17G26G10G 6G18G16
  23235757.883    -9412606.05549  -7056852.70946  23235757.839    23235762.242
  23045223.995   -11986752.11549  -9138210.91846  23045223.883    23045227.544
  23996499.070    -8389220.30749  -6525787.76145  23996498.261    23996504.191
  20974198.637   -27429353.22849 -21350971.11747  20974198.025    20974200.937
  23214598.953   -12267531.76149  -9530631.31945  23214598.258    23214603.197
  22389731.204   -13969273.75549 -10864448.40846  22389731.242    22389735.754
  23855831.581    -8566988.38149  -6661144.07645  23855830.683    23855835.231
  20335640.321   -28292998.99249 -21598303.66148  20335640.039    20335644.115
  21824159.026   -19539010.72049 -14913016.70247  21824158.549    21824162.334
  23483858.728   -10065664.27649  -7832427.37846  23483858.223    23483861.710
 03 12 29  2 53 30.0000000  0 10G30G29G15G21G17G26G10G 6G18G16
  23255477.865    -9308976.55349  -6976102.43946  23255477.858    23255482.245
  23042596.055   -12000561.66349  -9148971.59746  23042595.923    23042599.671
  23981795.988    -8466483.26549  -6585992.58445  23981795.379    23981801.462
  20968574.047   -27458910.69249 -21374002.88547  20968573.429    20968576.315
  23227493.211   -12199772.33649  -9477831.75945  23227492.561    23227497.342
  22379543.731   -14022809.16549 -10906164.27046  22379543.754    22379548.236
  23875706.551    -8462544.64249  -6579759.31945  23875705.703    23875710.146
  20337991.166   -28280645.15649 -21588677.29348  20337990.872    20337994.965
  21808814.781   -19619645.09949 -14975848.65247  21808814.292    21808818.111
  23473697.726   -10119060.80549  -7874035.03846  23473697.227    23473700.766
 03 12 29  2 54  0.0000000  0 10G30G29G15G21G17G26G10G 6G18G16
  23275214.030    -9205261.33249  -6895285.37346  23275214.154    23275218.582
  23040066.112   -12013857.23449  -9159331.75546  23040065.964    23040069.516
  23967110.377    -8543656.82449  -6646127.73345  23967109.765    23967115.712
  20962988.642   -27488262.10749 -21396874.09847  20962988.025    20962990.901
  23240399.470   -12131949.97849  -9424983.16646  23240398.787    23240403.439
  22369449.540   -14075854.24549 -10947498.05146  22369449.552    22369454.006
  23895607.270    -8357965.57749  -6498269.15445  23895606.446    23895610.833
  20340426.426   -28267847.76249 -21578705.29448  20340426.136    20340430.240
  21793538.479   -19699922.95049 -15038402.78647  21793537.968    21793541.715
  23463629.688   -10171968.36249  -7915261.67646  23463629.218    23463632.822
 03 12 29  2 54 30.0000000  0 10G30G29G15G21G17G26G10G 6G18G16
  23294965.996    -9101463.25249  -6814403.75446  23294966.250    23294970.624
  23037634.114   -12026637.52649  -9169290.40746  23037633.928    23037637.495
  23952442.008    -8620740.78249  -6706193.04545  23952441.290    23952447.008
  20957442.411   -27517407.57749 -21419584.84047  20957441.805    20957444.656
  23253317.663   -12064064.71249  -9372085.58345  23253316.993    23253321.500
  22359449.321   -14128405.87049 -10988447.32346  22359449.346    22359453.762
  23915533.330    -8253253.64649  -6416675.42645  23915532.471    23915536.885
  20342946.254   -28254605.86949 -21568386.93548  20342945.972    20342950.062
  21778330.276   -19779842.20549 -15100677.49547  21778329.776    21778333.523
  23453655.013   -10224385.30049  -7956106.02946  23453654.583    23453658.083
 03 12 29  2 55  0.0000000  0 10G30G29G15G21G17G26G10G 6G18G16
  23314733.352    -8997585.51749  -6733460.07046  23314733.526    23314737.918
  23035300.230   -12038902.04649  -9178847.15846  23035300.044    23035303.683
  23937790.103    -8697735.59649  -6766188.93945  23937789.424    23937795.422
  20951935.175   -27546348.15849 -21442135.92447  20951934.568    20951937.430
  23266247.663   -11996117.42549  -9319139.64945  23266246.952    23266251.427
  22349543.450   -14180461.70149 -11029010.27746  22349543.393    22349547.840
  23935484.122    -8148411.91749  -6334980.56945  23935483.160    23935487.592
  20345550.722   -28240919.27749 -21557722.05248  20345550.458    20345554.509
  21763190.589   -19859401.71449 -15162671.88647  21763190.097    21763193.812
  23443774.064   -10276310.38449  -7996567.12246  23443773.583    23443777.063
 03 12 29  2 55 30.0000000  0 10G30G29G15G21G17G26G10G 6G18G16
  23334515.334    -8893630.71149  -6652456.33746  23334515.521    23334519.845
  23033064.857   -12050649.15249  -9188000.73746  23033064.621    23033068.281
  23923155.425    -8774640.88649  -6826115.07845  23923154.844    23923160.837
  20946467.015   -27575083.30949 -21464526.93547  20946466.423    20946469.311
  23279189.328   -11928107.97949  -9266145.27245  23279188.663    23279193.140
  22339732.416   -14232018.29449 -11069184.21246  22339732.425    22339736.859
  23955459.192    -8043442.60249  -6253186.30945  23955458.132    23955462.632
  20348240.043   -28226786.90949 -21546709.81148  20348239.777    20348243.826
  21748119.780   -19938599.17749 -15224384.15847  21748119.340    21748123.026
  23433987.036   -10327741.56949  -8036643.34546  23433986.529    23433990.080
 03 12 29  2 56  0.0000000  0 10G30G29G15G21G17G26G10G 6G18G16
  23354311.444    -8789601.74649  -6571394.80846  23354311.656    23354315.957
  23030928.074   -12061877.90749  -9196750.39946  23030927.830    23030931.519
  23908538.061    -8851456.61549  -6885971.38345  23908537.314    23908543.133
  20941037.933   -27603613.36349 -21486758.12747  20941037.332    20941040.223
  23292142.771   -11860036.60049  -9213102.63545  23292142.076    23292146.762
  22330016.992   -14283073.14949 -11108967.16546  22330017.041    22330021.370
  23975458.001    -7938348.03749  -6171294.46145  23975456.866    23975461.599
  20351014.256   -28212208.07849 -21535349.67648  20351013.996    20351018.081
  21733118.234   -20017432.95149 -15285813.03847  21733117.736    21733121.394
  23424294.139   -10378677.57349  -8076333.70546  23424293.679    23424297.289
 03 12 29  2 56 30.0000000  0 10G30G29G15G21G17G26G10G 6G18G16
  23374121.152    -8685501.25149  -6490277.53246  23374121.292    23374125.688
  23028890.092   -12072587.02949  -9205095.15946  23028889.851    23028893.660
  23893937.414    -8928182.54149  -6945757.75845  23893936.752    23893942.458
  20935647.900   -27631938.17249 -21508829.39647  20935647.303    20935650.139
  23305107.867   -11791903.73449  -9160012.08845  23305107.270    23305112.117
  22320397.611   -14333623.05649 -11148356.66646  22320397.640    22320401.997
  23995480.070    -7833130.59749  -6089306.86145  23995479.096    23995483.840
  20353873.611   -28197182.10149 -21523641.12048  20353873.337    20353877.423
  21718186.183   -20095901.28449 -15346957.16547  21718185.673    21718189.320
  23414695.990   -10429116.49849  -8115636.75446  23414695.514    23414699.022
 03 12 29  2 57  0.0000000  0 10G30G29G15G21G17G26G10G 6G18G16
  23393943.914    -8581332.38149  -6409106.97246  23393943.960    23393948.484
  23026951.347   -12082775.43849  -9213034.16046  23026951.074    23026954.867
  23879354.063    -9004818.55849  -7005474.05445  23879353.358    23879359.121
  20930296.859   -27660057.99449 -21530740.92747  20930296.257    20930299.060
  23318084.752   -11723709.51749  -9106873.71645  23318084.216    23318089.154
  22310874.833   -14383665.55449 -11187350.78446  22310874.893    22310879.261
  24015525.152    -7727792.89249  -6007225.52745  24015524.099    24015528.932
  20356818.157   -28181708.42549 -21511583.71348  20356817.878    20356821.984
  21703323.767   -20174003.17449 -15407815.75047  21703323.322    21703326.984
  23405192.612   -10479057.06149  -8154551.46346  23405192.133    23405195.616
 03 12 29  2 57 30.0000000  0 10G30G29G15G21G17G26G10G 6G18G16
  23413779.018    -8477098.61549  -6327885.84246  23413778.998    23413783.510
  23025111.800   -12092443.04249  -9220567.33646  23025111.427    23025115.169
  23864787.717    -9081365.32249  -7065120.80945  23864786.932    23864792.826
  20924984.721   -27687973.40749 -21552493.18248  20924984.125    20924986.913
  23331073.325   -11655454.76649  -9053688.19645  23331072.714    23331077.581
  22301449.110   -14433198.45449 -11225947.81346  22301449.119    22301453.438
  24035592.522    -7622338.21749  -5925053.05045  24035591.606    24035596.224
  20359847.891   -28165786.92449 -21499177.35248  20359847.611    20359851.727
  21688531.368   -20251737.58949 -15468387.99147  21688530.932    21688534.523
  23395784.138   -10528498.23249  -8193077.02646  23395783.716    23395787.287
 03 12 29  2 58  0.0000000  0 10G30G29G15G21G17G26G10G 6G18G16
  23433625.929    -8372801.95849  -6246615.71546  23433625.959    23433630.480
  23023371.603   -12101587.63949  -9227692.99046  23023371.202    23023374.954
  23850238.292    -9157821.90049  -7124697.30645  23850237.594    23850243.431
  20919711.457   -27715684.31349 -21574086.07948  20919710.876    20919713.705
  23344073.446   -11587138.89349  -9000455.04345  23344072.785    23344077.721
  22292120.931   -14482218.15949 -11264144.94046  22292120.956    22292125.221
  24055681.833    -7516767.98649  -5842790.54145  24055680.918    24055685.527
  20362963.157   -28149416.05249 -21486420.82948  20362962.874    20362967.009
  21673809.441   -20329102.05349 -15528671.95447  21673808.964    21673812.538
  23386471.316   -10577437.53849  -8231211.54946  23386470.883    23386474.472
 03 12 29  2 58 30.0000000  0 10G30G29G15G21G17G26G10G 6G18G16
  23453484.077    -8268445.42249  -6165298.94346  23453484.161    23453488.803
  23021730.918   -12110208.73649  -9234410.72446  23021730.608    23021734.373
  23835706.137    -9234188.71149  -7184203.82945  23835705.485    23835711.044
  20914477.231   -27743190.42149 -21595519.39948  20914476.639    20914479.470
  23357085.032   -11518762.69649  -8947174.89745  23357084.438    23357089.289
  22282890.878   -14530722.23049 -11301940.28446  22282890.886    22282895.193
  24075792.599    -7411085.13149  -5760440.25545  24075791.737    24075796.313
  20366163.993   -28132595.59449 -21473313.97748  20366163.718    20366167.830
  21659158.106   -20406095.12849 -15588666.52647  21659157.627    21659161.214
  23377254.121   -10625874.05949  -8268954.27946  23377253.655    23377257.261
 03 12 29  2 59  0.0000000  0 10G30G29G15G21G17G26G10G 6G18G16
  23473353.145    -8164031.91649  -6083937.77046  23473353.316    23473358.029
  23020190.259   -12118305.25649  -9240719.67646  23020189.984    23020193.616
  23821191.181    -9310465.60649  -7243640.30545  23821190.374    23821195.898
  20909281.990   -27770491.69249 -21616793.10248  20909281.376    20909284.196
  23370107.968   -11450326.19049  -8893847.74245  23370107.431    23370112.282
  22273759.488   -14578707.78049 -11339331.58546  22273759.507    22273763.883
  24095924.311    -7305292.02449  -5678004.07645  24095923.469    24095928.089
  20369450.579   -28115324.69849 -21459856.12648  20369450.283    20369454.371
  21644577.717   -20482715.26449 -15648370.50047  21644577.241    21644580.846
  23368132.950   -10673806.03449  -8306303.84146  23368132.469    23368136.068
 03 12 29  2 59 30.0000000  0 10G30G29G15G21G17G26G10G 6G18G16
  23493232.622    -8059564.17949  -6002534.33246  23493232.794    23493237.533
  23018749.547   -12125876.25749  -9246619.13946  23018749.281    23018752.924
  23806693.119    -9386652.49749  -7303006.66245  23806692.320    23806698.163
  20904125.614   -27797588.55749 -21637907.52448  20904125.005    20904127.797
  23383142.327   -11381829.47949  -8840473.66845  23383141.778    23383146.642
  22264727.288   -14626172.11449 -11376316.75246  22264727.290    22264731.634
  24116076.562    -7199391.23749  -5595483.96845  24116075.718    24116080.378
  20372822.896   -28097602.88749 -21446046.91448  20372822.608    20372826.720
  21630068.628   -20558960.65649 -15707782.47047  21630068.195    21630071.765
  23359108.039   -10721232.05749  -8343259.15546  23359107.587    23359111.216
 03 12 29  3  0  0.0000000  0 10G30G29G15G21G17G26G10G 6G18G16
  23513122.049    -7955045.38849  -5921091.11445  23513122.114    23513126.791
  23017408.872   -12132920.92849  -9252108.49146  23017408.640    23017412.393
  23792212.304    -9462749.30949  -7362302.81145  23792211.575    23792217.408
  20899008.066   -27824481.33649 -21658862.92748  20899007.448    20899010.244
  23396188.132   -11313273.07349  -8787053.08745  23396187.536    23396192.410
  22255794.731   -14673112.86649 -11412893.93046  22255794.734    22255798.979
  24136248.784    -7093385.45949  -5512882.06345  24136247.984    24136252.652
  20376281.146   -28079429.74649 -21431886.02148  20376280.854    20376284.962
  21615631.148   -20634830.24449 -15766901.59347  21615630.670    21615634.225
  23350179.617   -10768150.86449  -8379819.24446  23350179.167    23350182.796
 03 12 29  3  0 30.0000000  0 10G30G29G15G21G17G26G10G 6G18G16
  23533020.451    -7850479.14449  -5839610.92545  23533020.369    23533025.124
  23016168.421   -12139439.39249  -9257187.79446  23016168.218    23016171.859
  23777748.635    -9538757.19549  -7421529.66145  23777747.868    23777753.398
  20893929.140   -27851171.10949 -21679660.13848  20893928.534    20893931.322
  23409245.210   -11244658.06049  -8733586.83945  23409244.657    23409249.421
  22246962.234   -14719528.21849 -11449061.70946  22246962.199    22246966.348
  24156440.336    -6987278.03649  -5430200.96045  24156439.516    24156444.240
  20379825.177   -28060805.72149 -21417373.79848  20379824.881    20379828.985
  21601265.214   -20710323.48449 -15825727.46547  21601264.746    21601268.303
  23341347.746   -10814562.08549  -8415983.79946  23341347.342    23341351.004
 03 12 29  3  1  0.0000000  0 10G30G29G15G21G17G26G10G 6G18G16
  23552927.510    -7745866.48849  -5758094.57045  23552927.528    23552932.318
  23015028.677   -12145428.92349  -9261854.94146  23015028.468    23015032.121
  23763301.934    -9614674.15649  -7480685.68045  23763301.179    23763306.785
  20888889.239   -27877655.67349 -21700297.45048  20888888.623    20888891.449
  23422313.832   -11175982.99149  -8680073.79745  23422313.209    23422317.859
  22238230.391   -14765413.92849 -11484816.78646  22238230.413    22238234.537
  24176651.189    -6881069.36849  -5347440.94345  24176650.423    24176655.115
  20383455.454   -28041728.39349 -21402508.35148  20383455.168    20383459.272
  21586971.544   -20785437.02549 -15884257.47047  21586971.101    21586974.682
  23332613.268   -10860462.39349  -8451750.27446  23332612.849    23332616.390
 03 12 29  3  1 30.0000000  0 10G30G29G15G21G17G26G10G 6G18G16
  23572842.369    -7641211.19549  -5676544.98645  23572842.660    23572847.545
  23013989.489   -12150889.39249  -9266109.83946  23013989.337    23013993.076
  23748872.310    -9690501.04849  -7539771.51445  23748871.628    23748877.455
  20883888.154   -27903936.37049 -21720775.89948  20883887.576    20883890.417
  23435393.667   -11107248.81749  -8626514.69445  23435393.015    23435397.656
  22229599.811   -14810767.99449 -11520157.58846  22229599.828    22229603.941
  24196880.699    -6774762.81449  -5264604.68145  24196879.888    24196884.567
  20387171.925   -28022198.09449 -21387289.93348  20387171.665    20387175.789
  21572750.336   -20860169.92549 -15942490.86747  21572749.866    21572753.426
  23323975.970   -10905851.59149  -8487118.45446  23323975.488    23323979.095
 03 12 29  3  2  0.0000000  0 10G30G29G15G21G17G26G10G 6G18G16
  23592765.067    -7536516.34249  -5594964.58445  23592765.379    23592770.316
  23013051.091   -12155820.55949  -9269952.29546  23013050.976    23013054.713
  23734460.210    -9766238.17649  -7598787.37545  23734459.465    23734465.138
  20878925.775   -27930013.81249 -21741095.97048  20878925.191    20878928.016
  23448484.785   -11038455.96849  -8572909.88245  23448484.033    23448488.622
  22221070.845   -14855588.21549 -11555082.40546  22221070.823    22221074.928
  24217128.271    -6668361.31149  -5181694.40445  24217127.491    24217132.021
  20390974.668   -28002214.62549 -21371718.39948  20390974.402    20390978.509
  21558601.719   -20934521.21949 -16000426.90947  21558601.231    21558604.829
  23315436.192   -10950728.27549  -8522087.26746  23315435.700    23315439.337
 03 12 29  3  2 30.0000000  0 10G30G29G15G21G17G26G10G 6G18G16
  23612694.922    -7431784.50149  -5513355.35745  23612695.081    23612700.092
  23012213.749   -12160221.26249  -9273381.39846  23012213.576    23012217.244
  23720065.043    -9841885.26749  -7657733.07945  23720064.222    23720069.818
  20874002.165   -27955887.56849 -21761257.32648  20874001.559    20874004.396
  23461586.572   -10969604.63849  -8519259.49145  23461585.952    23461590.591
  22212643.963   -14899871.76449 -11589589.03846  22212643.937    22212648.083
  24237393.521    -6561866.91949  -5098711.75045  24237392.742    24237397.273
  20394863.778   -27981777.34549 -21355793.25248  20394863.500    20394867.565
  21544525.999   -21008489.18649 -16058064.26047  21544525.555    21544529.162
  23306994.238   -10995090.82949  -8556655.46546  23306993.784    23306997.366
 03 12 29  3  3  0.0000000  0 10G30G29G15G21G17G26G10G 6G18G16
  23632631.423    -7327018.64449  -5431719.62145  23632631.480    23632636.328
  23011477.449   -12164090.66549  -9276396.51346  23011477.236    23011480.877
  23705686.477    -9917442.33949  -7716608.66145  23705685.876    23705691.682
  20869117.308   -27981557.43549 -21781259.80548  20869116.701    20869119.575
  23474699.614   -10900694.82949  -8465563.54545  23474698.895    23474703.620
  22204319.605   -14943616.12349 -11623675.53046  22204319.599    22204323.752
  24257675.870    -6455282.06849  -5015658.62345  24257675.071    24257679.701
  20398839.255   -27960885.81349 -21339514.14348  20398838.988    20398843.071
  21530523.560   -21082072.53249 -16115401.89947  21530523.089    21530526.734
  23298650.409   -11038937.94249  -8590822.02546  23298649.950    23298653.509
 03 12 29  3  3 30.0000000  0 10G30G29G15G21G17G26G10G 6G18G16
  23652573.792    -7222221.36549  -5350059.39845  23652573.823    23652578.581
  23010842.393   -12167428.04649  -9278997.05146  23010842.145    23010845.752
  23691325.667    -9992909.19949  -7775413.94445  23691325.076    23691331.014
  20864271.163   -28007023.94149 -21801103.82748  20864270.576    20864273.425
  23487823.685   -10831726.85749  -8411822.26945  23487823.048    23487827.703
  22196098.413   -14986818.86949 -11657339.97046  22196098.401    22196102.508
  24277975.000    -6348609.17149  -4932536.89945  24277974.169    24277978.958
  20402901.321   -27939539.46549 -21322880.62848  20402901.056    20402905.159
  21516594.537   -21155269.82349 -16172438.72347  21516594.062    21516597.708
  23290404.880   -11082268.41049  -8624586.00746  23290404.449    23290407.992
 03 12 29  3  4  0.0000000  0 10G30G29G15G21G17G26G10G 6G18G16
  23672521.522    -7117395.90949  -5268377.22545  23672521.515    23672526.252
  23010308.681   -12170232.99749  -9281182.71346  23010308.375    23010311.985
  23676982.197   -10068286.09849  -7834149.10645  23676981.367    23676987.210
  20859463.703   -28032287.42349 -21820789.64548  20859463.124    20859465.961
  23500958.898   -10762701.29349  -8358036.12745  23500958.225    23500962.719
  22187980.592   -15029477.65149 -11690580.56046  22187980.631    22187984.802
  24298290.429    -6241850.88349  -4849348.62845  24298289.594    24298294.383
  20407049.983   -27917738.15149 -21305892.59148  20407049.733    20407053.839
  21502739.216   -21228079.93149 -16229173.84047  21502738.754    21502742.367
  23282257.885   -11125081.36849  -8657946.73046  23282257.389    23282260.902
 03 12 29  3  4 30.0000000  0 10G30G29G15G21G17G26G10G 6G18G16
  23692474.076    -7012544.58649  -5186674.90945  23692474.091    23692478.769
  23009876.398   -12172504.29049  -9282952.53946  23009876.115    23009879.795
  23662655.341   -10143572.75849  -7892813.97245  23662654.595    23662660.400
  20854695.011   -28057347.11349 -21840316.66248  20854694.415    20854697.261
  23514105.151   -10693617.64549  -8304204.72645  23514104.494    23514108.932
  22179966.978   -15071589.58249 -11723395.02146  22179966.948    22179971.120
  24318621.818    -6135009.05349  -4766095.26145  24318620.949    24318625.706
  20411285.407   -27895481.01249 -21288549.37248  20411285.131    20411289.225
  21488957.962   -21300500.99249 -16285605.81347  21488957.474    21488961.065
  23274209.609   -11167375.12649  -8690902.88846  23274209.110    23274212.685
 03 12 29  3  5  0.0000000  0 10G30G29G15G21G17G26G10G 6G18G16
  23712431.077    -6907670.41849  -5104954.76245  23712431.115    23712435.661
  23009545.700   -12174241.69349  -9284306.34246  23009545.433    23009549.143
  23648345.947   -10218769.22549  -7951408.54245  23648345.261    23648350.856
  20849964.956   -28082203.76649 -21859685.46748  20849964.360    20849967.186
  23527262.272   -10624476.47049  -8250328.50145  23527261.706    23527266.180
  22172057.795   -15113152.52549 -11755781.71546  22172057.764    22172061.876
  24338968.547    -6028086.35149  -4682778.85745  24338967.613    24338972.405
  20415607.546   -27872767.96949 -21270850.89648  20415607.269    20415611.368
  21475250.916   -21372531.83049 -16341733.70847  21475250.434    21475254.017
  23266260.350   -11209148.67449  -8723453.67946  23266259.883    23266263.451
 03 12 29  3  5 30.0000000  0 10G30G29G15G21G17G26G10G 6G18G16
  23732391.919    -6802776.17549  -5023219.00745  23732391.857    23732396.458
  23009316.810   -12175444.34749  -9285243.46546  23009316.562    23009320.312
  23634053.984   -10293875.28949  -8009932.66045  23634053.165    23634058.701
  20845273.564   -28106857.38849 -21878896.07548  20845272.948    20845275.752
  23540430.254   -10555278.03649  -8196407.65345  23540429.600    23540434.409
  22164253.556   -15154163.88549 -11787738.60246  22164253.547    22164257.650
  24359330.187    -5921085.23449  -4599401.34845  24359329.197    24359334.067
  20420016.564   -27849598.41249 -21252796.70148  20420016.297    20420020.373
  21461618.421   -21444171.23149 -16397556.59447  21461617.941    21461621.451
  23258410.356   -11250400.69749  -8755598.09246  23258409.858    23258413.467
 03 12 29  3  6  0.0000000  0 10G30G29G15G21G17G26G10G 6G18G16
  23752356.064    -6697864.76449  -4941469.85245  23752355.966    23752360.440
  23009189.801   -12176111.79449  -9285763.54646  23009189.530    23009193.328
  23619778.753   -10368891.06149  -8068386.44245  23619777.939    23619783.627
  20840620.736   -28131308.16649 -21897948.61848  20840620.139    20840622.926
  23553609.023   -10486022.58949  -8142442.34945  23553608.356    23553613.356
  22156554.843   -15194621.48549 -11819263.98146  22156554.766    22156558.799
  24379706.304    -5814008.08249  -4515964.59345  24379705.312    24379710.059
  20424512.474   -27825972.25449 -21234386.70848  20424512.214    20424516.299
  21448060.633   -21515417.78549 -16453073.36147  21448060.167    21448063.660
  23250659.732   -11291130.16649  -8787335.30846  23250659.214    23250662.858
 03 12 29  3  6 30.0000000  0 10G30G29G15G21G17G26G10G 6G18G16
  23772322.885    -6592938.80249  -4859709.36345  23772322.773    23772327.265
  23009164.725   -12176243.13649  -9285865.88646  23009164.497    23009168.326
  23605520.729   -10443816.28149  -8126769.66045  23605520.019    23605525.512
  20836006.578   -28155555.69049 -21916842.77948  20836005.973    20836008.777
  23566798.784   -10416709.82049  -8088432.39145  23566798.075    23566803.138
  22148961.772   -15234522.78549 -11850355.88046  22148961.743    22148965.775
  24400096.480    -5706857.09249  -4432470.34945  24400095.485    24400100.215
  20429095.336   -27801888.93849 -21215620.48948  20429095.082    20429099.195
  21434577.976   -21586269.66249 -16508282.59147  21434577.481    21434580.982
  23243008.862   -11331335.72949  -8818664.31646  23243008.390    23243011.925
 03 12 29  3  7  0.0000000  0 10G30G29G15G21G17G26G10G 6G18G16
  23792291.909    -6488000.93249  -4777939.59745  23792291.759    23792296.286
  23009241.826   -12175837.73749  -9285549.98646  23009241.604    23009245.448
  23591280.264   -10518650.94549  -8185082.30845  23591279.517    23591284.712
  20831431.039   -28179599.98949 -21935578.58548  20831430.441    20831433.297
  23579999.482   -10347339.97649  -8034377.97345  23579998.806    23580003.751
  22141475.141   -15273865.03349 -11881012.15346  22141475.116    22141479.145
  24420500.298    -5599634.42649  -4348920.25045  24420499.330    24420503.973
  20433765.367   -27777347.84349 -21196497.56248  20433765.109    20433769.220
  21421170.601   -21656725.80249 -16563183.45547  21421170.113    21421173.607
  23235457.922   -11371015.85149  -8849583.85546  23235457.467    23235461.027
 03 12 29  3  7 30.0000000  0 10G30G29G15G21G17G26G10G 6G18G16
  23812262.380    -6383054.00149  -4696162.77645  23812262.454    23812267.089
  23009421.128   -12174895.25249  -9284815.57646  23009420.959    23009424.748
  23577056.827   -10593395.41149  -8243324.69445  23577056.054    23577061.401
  20826894.205   -28203441.38349 -21954156.29548  20826893.592    20826896.427
  23593211.069   -10277913.31949  -7980279.30245  23593210.370    23593215.188
  22134095.275   -15312646.30249 -11911231.30046  22134095.265    22134099.287
  24440917.282    -5492342.64649  -4265316.26245  24440916.256    24440920.996
  20438522.511   -27752348.82949 -21177017.81648  20438522.245    20438526.376
  21407838.728   -21726784.98149 -16617775.00547  21407838.272    21407841.794
  23228007.127   -11410169.85949  -8880093.44946  23228006.685    23228010.283
 03 12 29  3  8  0.0000000  0 10G30G29G15G21G17G26G10G 6G18G16
  23832234.190    -6278100.76649  -4614381.03145  23832234.368    23832239.079
  23009702.772   -12173415.10949  -9283662.20946  23009702.634    23009706.430
  23562850.414   -10668049.41449  -8301496.59145  23562849.719    23562855.342
  20822395.901   -28227079.96349 -21972575.95048  20822395.276    20822398.111
  23606433.203   -10208430.10949  -7926136.56445  23606432.537    23606437.294
  22126822.768   -15350864.08749 -11941011.36246  22126822.650    22126826.715
  24461346.983    -5384984.01049  -4181660.16745  24461345.923    24461350.549
  20443366.864   -27726891.58449 -21157181.00548  20443366.592    20443370.691
  21394582.716   -21796445.64049 -16672056.01447  21394582.259    21394585.759
  23220656.722   -11448796.62549  -8910192.21446  23220656.234    23220659.728
 03 12 29  3  8 30.0000000  0 10G30G29G15G21G17G26G10G 6G18G16
  23852206.636    -6173144.21549  -4532596.71545  23852206.881    23852211.633
  23010086.881   -12171396.82449  -9282089.51946  23010086.658    23010090.482
  23548661.506   -10742612.80049  -8359597.86945  23548660.741    23548666.215
  20817936.236   -28250515.54149 -21990837.42348  20817935.613    20817938.451
  23619665.991   -10138890.42349  -7871949.79945  23619665.366    23619670.271
  22119657.681   -15388516.25449 -11970350.69746  22119657.590    22119661.693
  24481788.975    -5277560.68149  -4097953.66645  24481787.941    24481792.470
  20448298.469   -27700975.76049 -21136986.86148  20448298.218    20448302.307
  21381402.776   -21865706.71249 -16726025.65747  21381402.283    21381405.815
  23213406.746   -11486895.03649  -8939879.26746  23213406.283    23213409.754
 03 12 29  3  9  0.0000000  0 10G30G29G15G21G17G26G10G 6G18G16
  23872179.352    -6068186.86349  -4450811.77245  23872179.574    23872184.291
  23010573.484   -12168839.78949  -9280097.00646  23010573.292    23010577.039
  23534489.810   -10817085.49849  -8417628.47346  23534488.992    23534494.295
  20813515.196   -28273748.26949 -22008940.83648  20813514.574    20813517.404
  23632909.538   -10069294.36749  -7817719.08645  23632908.938    23632914.062
  22112600.764   -15425600.46049 -11999247.45546  22112600.715    22112604.746
  24502242.747    -5170075.00349  -4014198.59645  24502241.711    24502246.411
  20453317.440   -27674601.06449 -21116435.15348  20453317.173    20453321.236
  21368299.121   -21934566.71849 -16779682.78447  21368298.615    21368302.160
  23206257.694   -11524463.84249  -8969153.65346  23206257.223    23206260.711
 03 12 29  3  9 30.0000000  0 10G30G29G15G21G17G26G10G 6G18G16
  23892151.665    -5963231.57049  -4369028.43545  23892151.897    23892156.535
  23011162.681   -12165743.76649  -9277684.51146  23011162.453    23011166.189
  23520335.256   -10891467.55749  -8475588.45846  23520334.461    23520339.922
  20809132.731   -28296778.38149 -22026886.36648  20809132.098    20809134.917
  23646163.930    -9999642.12049  -7763444.60545  23646163.332    23646168.600
  22105652.411   -15462114.60349 -12027700.01446  22105652.315    22105656.362
  24522707.749    -5062529.78749  -3930397.13745  24522706.753    24522711.433
  20458423.716   -27647767.40249 -21095525.81148  20458423.448    20458427.507
  21355271.998   -22003024.60749 -16833026.57147  21355271.513    21355275.055
  23199209.537   -11561502.25649  -8998014.73146  23199209.061    23199212.601
 03 12 29  3 10  0.0000000  0 10G30G29G15G21G17G26G10G 6G18G16
  23912122.954    -5858281.38649  -4287249.07245  23912123.181    23912127.824
  23011854.482   -12162108.22449  -9274851.60946  23011854.265    23011857.978
  23506198.040   -10965758.91749  -8533477.78346  23506197.288    23506202.830
  20804788.715   -28319606.16049 -22044674.23348  20804788.085    20804790.912
  23659429.121    -9929934.02549  -7709126.62545  23659428.488    23659433.749
  22098812.807   -15498056.53449 -12055706.70346  22098812.730    22098816.852
  24543183.782    -4954927.09649  -3846550.91245  24543182.918    24543187.677
  20463617.359   -27620474.65349 -21074258.73748  20463617.083    20463621.146
  21342321.638   -22071079.30349 -16886056.18547  21342321.139    21342324.668
  23192262.390   -11598009.57349  -9026461.96746  23192261.951    23192265.403
 03 12 29  3 10 30.0000000  0 10G30G29G15G21G17G26G10G 6G18G16
  23932092.759    -5753338.95749  -4205475.75645  23932093.066    23932097.707
  23012648.857   -12157932.95649  -9271598.14246  23012648.645    23012652.440
  23492078.159   -11039959.57649  -8591296.41446  23492077.373    23492082.840
  20800483.279   -28342231.29949 -22062304.19948  20800482.666    20800485.454
  23672704.810    -9860170.43449  -7654765.39445  23672704.158    23672709.334
  22092082.576   -15533424.02549 -12083265.75546  22092082.529    22092086.559
  24563670.315    -4847269.29849  -3762661.72245  24563669.595    24563674.389
  20468898.421   -27592722.57649 -21052633.73948  20468898.147    20468902.200
  21329448.168   -22138729.69849 -16938770.75447  21329447.671    21329451.196
  23185416.690   -11633984.46449  -9054494.35346  23185416.211    23185419.516
 03 12 29  3 11  0.0000000  0 10G30G29G15G21G17G26G10G 6G18G16
  23952060.722    -5648406.67549  -4123710.35145  23952061.073    23952065.718
  23013546.158   -12153217.26849  -9267923.57246  23013546.034    23013549.782
  23477975.390   -11114069.47049  -8649044.33046  23477974.596    23477979.872
  20796216.435   -28364653.79749 -22079776.26448  20796215.789    20796218.565
  23685991.059    -9790350.88149  -7600360.55245  23685990.330    23685995.414
  22085462.134   -15568214.74949 -12110375.40146  22085462.093    22085466.057
  24584167.071    -4739558.10149  -3678730.90945  24584166.396    24584171.047
  20474266.931   -27564510.58249 -21030650.36848  20474266.680    20474270.769
  21316651.897   -22205974.43549 -16991169.23147  21316651.419    21316654.932
  23178672.447   -11669425.74049  -9082110.92146  23178671.930    23178675.347
 03 12 29  3 11 30.0000000  0 10G30G29G15G21G17G26G10G 6G18G16
  23972026.277    -5543487.67549  -4041955.30745  23972026.522    23972031.240
  23014546.454   -12147961.17349  -9263827.90146  23014546.271    23014549.993
  23463889.892   -11188088.99049  -8706721.81846  23463889.117    23463894.390
  20791988.000   -28386874.08649 -22097090.76248  20791987.377    20791990.144
  23699287.644    -9720476.00649  -7545912.59745  23699286.906    23699291.956
  22078951.720   -15602426.88049 -12137034.18246  22078951.709    22078955.699
  24604673.519    -4631796.26649  -3594760.63845  24604672.670    24604677.336
  20479722.992   -27535838.90749 -21008308.80548  20479722.743    20479726.819
  21303933.037   -22272812.28449 -17043250.64747  21303932.564    21303936.088
  23172029.748   -11704333.07649  -9109311.40946  23172029.268    23172032.694
 03 12 29  3 12  0.0000000  0 10G30G29G15G21G17G26G10G 6G18G16
  23991988.728    -5438584.45049  -3960212.54345  23991988.881    23991993.660
  23015649.602   -12142164.09049  -9259310.68446  23015649.428    23015653.230
  23449821.738   -11262017.74949  -8764328.60146  23449821.007    23449826.365
  20787798.146   -28408891.89849 -22114247.49548  20787797.527    20787800.267
  23712594.822    -9650545.69049  -7491421.45345  23712594.053    23712599.208
  22072551.936   -15636058.08349 -12163240.28246  22072551.920    22072555.881
  24625189.160    -4523986.05149  -3510752.68545  24625188.208    24625192.895
  20485266.598   -27506707.12549 -20985608.72448  20485266.345    20485270.407
  21291291.911   -22339242.13349 -17095014.14547  21291291.406    21291294.903
  23165488.969   -11738705.19549  -9136094.87046  23165488.536    23165491.845
 03 12 29  3 12 30.0000000  0 10G30G29G15G21G17G26G10G 6G18G16
  24011947.699    -5333699.59849  -3878484.09545  24011947.756    24011952.684
  23016855.765   -12135825.50749  -9254371.52546  23016855.563    23016859.358
  23435770.833   -11335855.46749  -8821864.43146  23435770.094    23435775.657
  20783646.816   -28430707.23749 -22131246.45048  20783646.221    20783648.925
  23725912.687    -9580559.91249  -7436887.07745  23725912.033    23725916.931
  22066263.060   -15669106.08849 -12188991.94646  22066263.044    22066267.077
  24645713.544    -4416129.51449  -3426708.63745  24645712.598    24645717.454
  20490897.857   -27477114.90049 -20962549.85448  20490897.587    20490901.648
  21278728.697   -22405262.16149 -17146458.30147  21278728.203    21278731.673
  23159050.286   -11772540.87449  -9162460.32946  23159049.753    23159053.124
 03 12 29  3 13  0.0000000  0 10G30G29G15G21G17G26G10G 6G18G16
  24031902.392    -5228836.24749  -3796772.40445  24031902.520    24031907.465
  23018164.951   -12128945.70949  -9249010.63146  23018164.716    23018168.453
  23421737.086   -11409602.57449  -8879329.64846  23421736.390    23421741.758
  20779533.931   -28452320.56949 -22148087.99648  20779533.348    20779536.024
  23739241.233    -9510519.15149  -7382309.87745  23739240.605    23739245.213
  22060085.454   -15701569.30049 -12214287.93846  22060085.441    22060089.483
  24666246.278    -4308229.50649  -3342630.69245  24666245.344    24666250.085
  20496616.605   -27447062.67149 -20939132.53548  20496616.328    20496620.389
  21266243.530   -22470871.88249 -17197582.73747  21266243.056    21266246.543
  23152713.664   -11805839.77649  -9188407.49546  23152713.180    23152716.578
 03 12 29  3 13 30.0000000  0 10G30G29G15G21G17G26G10G 6G18G16
  24051852.636    -5123996.47449  -3715079.06445  24051852.948    24051857.670
  23019577.320   -12121523.56749  -9243227.13546  23019577.088    23019580.879
  23407720.907   -11483258.44749  -8936723.78046  23407720.183    23407725.304
  20775459.679   -28473730.98449 -22164771.43048  20775459.069    20775461.770
  23752580.276    -9440422.85549  -7327689.41145  23752579.591    23752584.260
  22054019.748   -15733444.95049 -12239126.08246  22054019.750    22054023.794
  24686787.083    -4200287.42749  -3258519.94345  24686786.153    24686790.746
  20502423.074   -27416549.46149 -20915356.01348  20502422.798    20502426.857
  21253836.858   -22536069.41549 -17248385.98947  21253836.365    21253839.848
  23146479.539   -11838600.49249  -9213935.32046  23146479.056    23146482.371
 03 12 29  3 14  0.0000000  0  9G30G29G15G21G17G26G 6G18G16
  24071797.635    -5019183.64249  -3633406.75745  24071798.151    24071802.849
  23021092.752   -12113559.70049  -9237021.51746  23021092.529    23021096.330
  23393721.998   -11556823.57649  -8994047.20046  23393721.234    23393726.467
  20771423.810   -28494939.23749 -22181297.33148  20771423.243    20771425.963
  23765929.398    -9370271.99049  -7273026.38345  23765928.720    23765933.739
  22048066.022   -15764731.76749 -12263505.40746  22048066.012    22048070.064
  20508317.154   -27385575.81649 -20891220.71148  20508316.868    20508320.958
  21241508.627   -22600854.60449 -17298867.93647  21241508.100    21241511.597
  23140347.796   -11870822.73449  -9239043.56146  23140347.331    23140350.607
 03 12 29  3 14 30.0000000  0  9G30G29G15G21G17G26G 6G18G16
  24091737.751    -4914397.84749  -3551755.50845  24091738.187    24091742.912
  23022711.843   -12105051.32349  -9230391.60846  23022711.589    23022715.405
  23379740.658   -11630295.40249  -9051297.93846  23379739.853    23379745.447
  20767426.986   -28515942.84949 -22197663.77648  20767426.400    20767429.105
  23779289.255    -9300063.87249  -7218318.75245  23779288.621    23779293.800
  22042225.191   -15795425.32549 -12287422.45046  22042225.195    22042229.177
  20514299.401   -27354139.08249 -20866724.56048  20514299.116    20514303.191
  21229259.531   -22665223.62249 -17349025.59247  21229259.050    21229262.570
  23134319.194   -11902503.15649  -9263729.59546  23134318.784    23134322.007
 03 12 29  3 15  0.0000000  0  9G30G29G15G21G17G26G 6G18G16
  24111671.582    -4809645.14849  -3470130.05045  24111672.027    24111676.625
  23024434.059   -12096001.32749  -9223339.64846  23024433.816    23024437.589
  23365776.489   -11703676.94849  -9108478.33446  23365775.780    23365781.364
  20763468.404   -28536745.27249 -22213873.44448  20763467.800    20763470.529
  23792659.503    -9229802.08849  -7163569.30645  23792658.845    23792663.880
  22036497.080   -15825526.75549 -12310878.09246  22036497.100    22036501.071
  20520369.118   -27322242.47349 -20841870.06648  20520368.844    20520372.891
  21217089.363   -22729178.56849 -17398860.58947  21217088.845    21217092.356
  23128393.304   -11933644.24849  -9287995.35746  23128392.868    23128396.072
 03 12 29  3 15 30.0000000  0  9G30G29G15G21G17G26G 6G18G16
  24131598.853    -4704927.48949  -3388531.88045  24131599.221    24131603.806
  23026259.518   -12086409.00549  -9215865.10546  23026259.213    23026262.873
  23351829.730   -11776967.69849  -9165587.93846  23351828.946    23351834.314
  20759548.281   -28557345.70749 -22229925.72048  20759547.674    20759550.426
  23806040.302    -9159486.20249  -7108777.74645  23806039.711    23806044.486
  22030882.231   -15855033.40249 -12333870.26546  22030882.188    22030886.147
  20526526.472   -27289885.39849 -20816656.76648  20526526.192    20526530.240
  21204998.215   -22792717.85649 -17448371.70247  21204997.706    21205001.183
  23122570.168   -11964244.62349  -9311839.80446  23122569.728    23122572.972
 03 12 29  3 16  0.0000000  0  9G30G29G15G21G17G26G 6G18G16
  24151518.855    -4600247.70249  -3306963.22045  24151519.102    24151523.751
  23028187.964   -12076274.46549  -9207968.05746  23028187.727    23028191.432
  23337900.138   -11850167.98549  -9222627.07746  23337899.319    23337904.676
  20755666.606   -28577744.14349 -22245820.59448  20755666.001    20755668.728
  23819431.449    -9089115.93049  -7053943.79045  23819430.951    23819435.487
  22025380.741   -15883943.52049 -12356397.61246  22025380.726    22025384.647
  20532771.481   -27257067.72449 -20791084.55148  20532771.208    20532775.274
  21192986.296   -22855840.65049 -17497558.27547  21192985.821    21192989.276
  23116850.086   -11994303.61349  -9335262.36946  23116849.677    23116852.921
 03 12 29  3 16 30.0000000  0  9G30G29G15G21G17G26G 6G18G16
  24171431.339    -4495608.03049  -3225425.82545  24171431.377    24171436.008
  23030219.856   -12065596.96549  -9199647.91346  23030219.670    23030223.375
  23323987.849   -11923277.11549  -9279595.19946  23323987.110    23323992.502
  20751823.409   -28597940.38349 -22261557.90848  20751822.792    20751825.504
  23832833.075    -9018691.24049  -6999067.43045  23832832.403    23832837.019
  22019993.272   -15912254.90149 -12378458.41346  22019993.256    22019997.150
  20539104.222   -27223788.97349 -20765153.06448  20539103.944    20539108.010
  21181054.043   -22918545.09649 -17546418.86247  21181053.532    21181056.985
  23111233.357   -12023820.06749  -9358262.19446  23111232.936    23111236.157
 03 12 29  3 17  0.0000000  0  9G30G29G15G21G17G26G 6G18G16
  24191335.611    -4391011.14349  -3143921.76245  24191335.407    24191340.222
  23032354.978   -12054376.69749  -9190904.84446  23032354.793    23032358.563
  23310092.966   -11996295.18349  -9336492.34946  23310092.189    23310097.601
  20748018.641   -28617934.44949 -22277137.69348  20748018.026    20748020.713
  23846244.648    -8948212.21849  -6944148.69545  23846244.050    23846248.810
  22014720.084   -15939965.88649 -12400051.36846  22014720.037    22014723.929
  20545524.683   -27190049.24249 -20738862.37348  20545524.399    20545528.475
  21169201.430   -22980830.54649 -17594952.96147  21169200.947    21169204.410
  23105719.867   -12052793.38249  -9380838.79746  23105719.424    23105722.630
 03 12 29  3 17 30.0000000  0  9G30G29G15G21G17G26G 6G18G16
  24211231.248    -4286459.28449  -3062452.76345  24211231.153    24211235.772
  23034593.440   -12042612.74949  -9181738.13646  23034593.313    23034597.135
  23296215.493   -12069221.57349  -9393318.06846  23296214.796    23296220.116
  20744252.444   -28637725.93349 -22292559.62448  20744251.813    20744254.533
  23859666.487    -8877678.66949  -6889187.46945  23859666.008    23859671.035
  22009561.473   -15967073.97449 -12421174.53546  22009561.458    22009565.379
  20552032.938   -27155848.19049 -20712212.20748  20552032.644    20552036.724
  21157428.999   -23042695.12849 -17643159.11147  21157428.517    21157431.953
  23100310.008   -12081222.23849  -9402991.15746  23100309.599    23100312.778
 03 12 29  3 18  0.0000000  0  9G30G29G15G21G17G26G 6G18G16
  24231117.511    -4181955.35949  -2981021.13845  24231117.506    24231122.048
  23036935.507   -12030305.59549  -9172148.11946  23036935.331    23036939.100
  23282355.369   -12142056.44749  -9450072.47346  23282354.631    23282360.016
  20740524.750   -28657315.02549 -22307823.84148  20740524.124    20740526.852
  23873098.951    -8807090.79049  -6834183.92345  23873098.458    23873103.581
  22004518.029   -15993577.77149 -12441826.82946  22004518.010    22004521.895
  20558628.931   -27121186.04749 -20685202.75447  20558628.628    20558632.718
  21145736.688   -23104138.47449 -17691037.02247  21145736.192    21145739.656
  23095003.780   -12109106.47249  -9424719.10846  23095003.352    23095006.702
 03 12 29  3 18 30.0000000  0  9G30G29G15G21G17G26G 6G18G16
  24250994.320    -4077501.96049  -2899628.89145  24250994.406    24250998.857
  23039380.855   -12017455.24149  -9162134.84946  23039380.639    23039384.412
  23268512.698   -12214799.66749  -9506755.46846  23268511.994    23268517.417
  20736835.539   -28676701.81649 -22322930.42148  20736834.908    20736837.640
  23886541.990    -8736448.64649  -6779138.13845  23886541.381    23886546.080
  21999589.914   -16019475.38149 -12462006.77246  21999589.881    21999593.752
  20565312.677   -27086062.63249 -20657833.86747  20565312.391    20565316.516
  21134124.784   -23165159.28649 -17738585.69447  21134124.310    21134127.742
  23089801.319   -12136445.19749  -9446022.00846  23089800.933    23089804.289
 03 12 29  3 19  0.0000000  0  9G30G29G15G21G17G26G 6G18G16
  24270860.953    -3973102.28949  -2818278.51545  24270861.073    24270865.547
  23041929.453   -12004062.06449  -9151698.61246  23041929.224    23041933.076
  23254687.576   -12287451.58949  -9563367.30946  23254686.865    23254692.183
  20733184.827   -28695886.50049 -22337879.51348  20733184.185    20733186.937
  23899995.109    -8665752.66649  -6724050.39345  23899994.517    23899998.966
  21994777.308   -16044765.47549 -12481713.32546  21994777.273    21994781.190
  20572084.116   -27050478.63549 -20630106.08247  20572083.833    20572087.923
  21122593.431   -23225757.19849 -17785804.82547  21122592.903    21122596.307
  23084702.803   -12163238.45849  -9466899.87146  23084702.303    23084705.633
 03 12 29  3 19 30.0000000  0  9G30G29G15G21G17G26G 6G18G16
  24290717.022    -3868758.40049  -2736971.61045  24290717.096    24290721.497
  23044581.510   -11990125.58249  -9140839.02146  23044581.268    23044585.074
  23240879.778   -12360011.81349  -9619907.71546  23240879.034    23240884.293
  20729572.655   -28714868.48549 -22352670.65848  20729572.026    20729574.746
  23913458.454    -8595002.41849  -6668920.35945  23913457.848    23913462.425
  21990080.714   -16069445.81549 -12500944.74046  21990080.704    21990084.621
  20578943.292   -27014433.56049 -20602019.02547  20578942.994    20578947.053
  21111142.757   -23285930.59649 -17832693.17247  21111142.260    21111145.683
  23079708.162   -12189485.02249  -9487351.70846  23079707.691    23079711.187
 03 12 29  3 20  0.0000000  0  9G30G29G15G21G17G26G 6G18G16
  24310562.131    -3764472.75149  -2655710.09445  24310562.118    24310566.449
  23047337.017   -11975645.67749  -9129555.96646  23047336.761    23047340.553
  23227089.327   -12432480.35249  -9676376.66146  23227088.602    23227093.887
  20725999.021   -28733648.03749 -22367304.06648  20725998.400    20726001.078
  23926931.822    -8524198.00649  -6613748.07445  23926931.181    23926936.193
  21985500.586   -16093514.78549 -12519699.76946  21985500.545    21985504.470
  20585890.138   -26977927.56349 -20573572.80247  20585889.875    20585893.934
  21099773.093   -23345678.68149 -17879250.10547  21099772.581    21099776.021
  23074817.726   -12215184.56149  -9507377.32046  23074817.247    23074820.693
 03 12 29  3 20 30.0000000  0  9G30G29G15G21G17G26G 6G18G16
  24330395.510    -3660248.29849  -2574496.25345  24330395.497    24330399.744
  23050195.773   -11960622.83349  -9117849.83646  23050195.512    23050199.268
  23213316.398   -12504857.32049  -9732774.25346  23213315.686    23213321.061
  20722463.918   -28752225.24849 -22381779.80148  20722463.267    20722465.954
  23940415.475    -8453339.61849  -6558533.74745  23940414.886    23940420.269
  21981037.004   -16116970.88449 -12537977.22146  21981036.995    21981040.902
  20592924.654   -26940960.92249 -20544767.62947  20592924.395    20592928.436
  21088484.450   -23405000.81149 -17925475.12547  21088483.966    21088487.393
  23070031.580   -12240336.52349  -9526976.24546  23070031.080    23070034.465
 03 12 29  3 21  0.0000000  0  9G30G29G15G21G17G26G 6G18G16
  24350216.737    -3556087.71449  -2493332.17445  24350216.666    24350220.962
  23053157.858   -11945057.15749  -9105720.73846  23053157.511    23053161.326
  23199561.128   -12577142.51349  -9789100.34046  23199560.349    23199565.708
  20718967.332   -28770599.73049 -22396097.56548  20718966.698    20718969.396
  23953909.814    -8382427.46649  -6503277.54345  23953909.184    23953914.481
  21976690.328   -16139812.57549 -12555775.92046  21976690.344    21976694.214
  20600046.820   -26903533.83249 -20515603.66247  20600046.554    20600050.630
  21077277.099   -23463895.93049 -17971367.40547  21077276.605    21077279.989
  23065349.513   -12264940.51349  -9546148.17646  23065349.031    23065352.429
 03 12 29  3 21 30.0000000  0  9G30G29G15G21G17G26G 6G18G16
  24370025.245    -3451993.82549  -2412220.08245  24370025.122    24370029.428
  23056223.080   -11928948.99349  -9093168.91446  23056222.759    23056226.638
  23185823.195   -12649336.17949  -9845355.10846  23185822.429    23185827.612
  20715509.271   -28788772.10749 -22410257.85248  20715508.632    20715511.289
  23967414.324    -8311461.75949  -6447979.63645  23967413.664    23967418.782
  21972460.883   -16162038.57049 -12573094.86246  21972460.852    21972464.747
  20607256.521   -26865646.66549 -20486081.20547  20607256.234    20607260.333
  21066151.089   -23522363.48549 -18016926.52647  21066150.588    21066153.968
  23060771.923   -12288996.34049  -9564892.99346  23060771.430    23060774.745
 03 12 29  3 22  0.0000000  0  9G30G29G15G21G17G26G 6G18G16
  24389820.418    -3347968.35049  -2331161.28245  24389820.449    24389824.839
  23059391.786   -11912297.49649  -9080193.72646  23059391.455    23059395.327
  23172102.716   -12721437.10849  -9901537.61246  23172101.928    23172107.042
  20712089.814   -28806741.46149 -22424259.93548  20712089.169    20712091.843
  23980929.082    -8240441.64949  -6392639.34545  23980928.459    23980933.438
  21968349.102   -16183646.13149 -12589931.90246  21968349.068    21968352.934
  20614553.911   -26827298.54049 -20456199.55347  20614553.641    20614557.739
  21055106.770   -23580401.64049 -18062151.04547  21055106.273    21055109.690
  23056298.805   -12312502.49549  -9583209.45846  23056298.247    23056301.673
 03 12 29  3 22 30.0000000  0  9G30G29G15G21G17G26G 6G18G16
  24409601.943    -3244014.41049  -2250158.24545  24409602.114    24409606.644
  23062663.636   -11895103.54149  -9066795.82046  23062663.280    23062667.235
  23158399.768   -12793446.03449  -9957648.43546  23158399.024    23158404.102
  20708708.897   -28824508.12449 -22438104.07948  20708708.269    20708710.939
  23994453.862    -8169367.90849  -6337257.21545  23994453.226    23994458.273
  21964355.159   -16204634.49349 -12606286.46546  21964355.083    21964358.996
  20621938.886   -26788490.23249 -20425959.31847  20621938.609    20621942.705
  21044144.255   -23638009.98549 -18107040.65247  21044143.732    21044147.136
  23051930.267   -12335459.17849  -9601097.77346  23051929.771    23051933.165
 03 12 29  3 23  0.0000000  0  9G30G29G15G21G17G26G 6G18G16
  24429369.506    -3140134.11849  -2169212.57645  24429369.679    24429374.392
  23066038.723   -11877366.81349  -9052974.99946  23066038.434    23066042.315
  23144714.635   -12865362.48949 -10013687.20546  23144713.867    23144718.918
  20705366.667   -28842071.68249 -22451789.96448  20705366.033    20705368.688
  24007988.887    -8098240.13949  -6281832.98845  24007988.335    24007993.426
  21960479.333   -16225001.67049 -12622156.98746  21960479.287    21960483.263
  20629411.485   -26749221.52849 -20395360.33347  20629411.216    20629415.315
  21033263.758   -23695187.23449 -18151594.33547  21033263.265    21033266.662
  23047666.494   -12357865.58349  -9618557.29946  23047665.963    23047669.278
 03 12 29  3 23 30.0000000  0  9G30G29G15G21G17G26G 6G18G16
  24449122.459    -3036330.36249  -2088326.55245  24449122.914    24449127.667
  23069517.107   -11859088.00749  -9038731.76346  23069516.856    23069520.614
  23131047.067   -12937186.82149 -10069654.16746  23131046.210    23131051.314
  20702063.055   -28859432.34549 -22465317.74648  20702062.420    20702065.074
  24021534.326    -8027058.59649  -6226366.85745  24021533.758    24021538.741
  21956722.040   -16244746.45149 -12637542.51346  21956721.988    21956725.946
  20636971.551   -26709493.10649 -20364403.12547  20636971.282    20636975.365
  21022465.443   -23751932.89749 -18195811.71947  21022464.940    21022468.302
  23043507.328   -12379721.58849  -9635587.92546  23043506.832    23043510.263
